Wetterdaten: Dienstag, 06.08.2019
Datum Zeit Temp. A. Pool Temp. Temp. 5cm Feuchte A. Luftdruck Regen Wind Richtung Richtung Sonnenschein ET UV Solar Taupunkt Windchill Windben Empfang
06.08.2019 00:01 19,7 C 23,9 C 18,3 C 79 % 1011,0 hPa 0,0 l/m 3,3 km/h (1 Bft) S-SW 200 0 min 0,000 mm 0,0 UV-I 0 W/m 16,0 C 19,7 C 4,8 km/h (1 Bft) 95,45 %
06.08.2019 00:02 19,7 C 23,9 C 18,3 C 79 % 1011,0 hPa 0,0 l/m 3,6 km/h (1 Bft) S-SW 200 0 min 0,000 mm 0,0 UV-I 0 W/m 16,0 C 19,7 C 4,8 km/h (1 Bft) 95,83 %
06.08.2019 00:04 19,7 C 23,9 C 18,3 C 80 % 1011,0 hPa 0,0 l/m 3,6 km/h (1 Bft) S-SW 200 0 min 0,000 mm 0,0 UV-I 0 W/m 16,1 C 19,7 C 4,8 km/h (1 Bft) 95,74 %
06.08.2019 00:06 19,7 C 23,9 C 18,3 C 79 % 1011,0 hPa 0,0 l/m 3,3 km/h (1 Bft) S-SW 200 0 min 0,000 mm 0,0 UV-I 0 W/m 16,0 C 19,7 C 4,8 km/h (1 Bft) 94,74 %
06.08.2019 00:08 19,7 C 23,9 C 17,8 C 79 % 1011,0 hPa 0,0 l/m 3,2 km/h (1 Bft) S-SW 200 0 min 0,000 mm 0,0 UV-I 0 W/m 16,0 C 19,7 C 4,8 km/h (1 Bft) 95,74 %
06.08.2019 00:10 19,8 C 23,9 C 17,8 C 79 % 1011,1 hPa 0,0 l/m 2,5 km/h (1 Bft) S-SW 200 0 min 0,000 mm 0,0 UV-I 0 W/m 16,0 C 19,8 C 4,8 km/h (1 Bft) 93,62 %
06.08.2019 00:12 19,9 C 23,9 C 17,8 C 79 % 1011,1 hPa 0,0 l/m 2,0 km/h (1 Bft) S-SW 200 0 min 0,000 mm 0,0 UV-I 0 W/m 16,1 C 19,9 C 3,2 km/h (1 Bft) 95,74 %
06.08.2019 00:14 19,9 C 23,9 C 17,8 C 79 % 1011,1 hPa 0,0 l/m 1,8 km/h (1 Bft) S-SW 200 0 min 0,000 mm 0,0 UV-I 0 W/m 16,1 C 19,9 C 3,2 km/h (1 Bft) 95,74 %
06.08.2019 00:16 19,8 C 23,9 C 17,8 C 79 % 1011,1 hPa 0,0 l/m 3,1 km/h (1 Bft) S-SW 200 0 min 0,000 mm 0,0 UV-I 0 W/m 16,0 C 19,8 C 3,2 km/h (1 Bft) 95,74 %
06.08.2019 00:18 19,8 C 23,9 C 18,3 C 80 % 1011,1 hPa 0,0 l/m 2,8 km/h (1 Bft) S-SW 200 0 min 0,000 mm 0,0 UV-I 0 W/m 16,2 C 19,8 C 3,2 km/h (1 Bft) 96,00 %
06.08.2019 00:20 19,6 C 23,9 C 18,3 C 81 % 1011,2 hPa 0,0 l/m 2,2 km/h (1 Bft) S-SW 200 0 min 0,000 mm 0,0 UV-I 0 W/m 16,2 C 19,6 C 3,2 km/h (1 Bft) 96,00 %
06.08.2019 00:22 19,4 C 23,9 C 18,3 C 82 % 1011,2 hPa 0,0 l/m 1,0 km/h (0 Bft) S-SW 200 0 min 0,000 mm 0,0 UV-I 0 W/m 16,2 C 19,4 C 3,2 km/h (1 Bft) 93,62 %
06.08.2019 00:24 19,4 C 23,9 C 17,8 C 82 % 1011,2 hPa 0,0 l/m 0,0 km/h (0 Bft) S-SW 200 0 min 0,000 mm 0,0 UV-I 0 W/m 16,2 C 19,4 C 0,0 km/h (0 Bft) 91,49 %
06.08.2019 00:26 19,3 C 23,9 C 17,8 C 82 % 1011,2 hPa 0,0 l/m 1,7 km/h (1 Bft) S-SW 200 0 min 0,000 mm 0,0 UV-I 0 W/m 16,1 C 19,3 C 3,2 km/h (1 Bft) 97,87 %
06.08.2019 00:28 19,1 C 23,9 C 17,8 C 83 % 1011,3 hPa 0,0 l/m 4,2 km/h (1 Bft) S-SW 200 0 min 0,000 mm 0,0 UV-I 0 W/m 16,1 C 19,1 C 4,8 km/h (1 Bft) 95,12 %
06.08.2019 00:30 18,7 C 23,9 C 17,8 C 84 % 1011,2 hPa 0,0 l/m 3,7 km/h (1 Bft) S-SW 200 0 min 0,000 mm 0,0 UV-I 0 W/m 15,9 C 18,7 C 4,8 km/h (1 Bft) 96,00 %
06.08.2019 00:32 18,6 C 23,9 C 17,8 C 86 % 1011,2 hPa 0,0 l/m 3,0 km/h (1 Bft) S-SW 200 0 min 0,000 mm 0,0 UV-I 0 W/m 16,2 C 18,6 C 4,8 km/h (1 Bft) 95,74 %
06.08.2019 00:34 18,4 C 23,9 C 17,8 C 86 % 1011,2 hPa 0,0 l/m 1,6 km/h (1 Bft) S-SW 200 0 min 0,000 mm 0,0 UV-I 0 W/m 16,0 C 18,4 C 3,2 km/h (1 Bft) 97,87 %
06.08.2019 00:36 18,5 C 23,9 C 17,8 C 86 % 1011,2 hPa 0,0 l/m 0,2 km/h (0 Bft) S-SW 200 0 min 0,000 mm 0,0 UV-I 0 W/m 16,1 C 18,5 C 1,6 km/h (1 Bft) 97,92 %
06.08.2019 00:38 18,6 C 23,9 C 17,8 C 86 % 1011,2 hPa 0,0 l/m 0,4 km/h (0 Bft) S-SW 200 0 min 0,000 mm 0,0 UV-I 0 W/m 16,2 C 18,6 C 1,6 km/h (1 Bft) 100,00 %
06.08.2019 00:40 18,6 C 23,9 C 17,2 C 86 % 1011,1 hPa 0,0 l/m 0,0 km/h (0 Bft) S-SW 200 0 min 0,000 mm 0,0 UV-I 0 W/m 16,2 C 18,6 C 0,0 km/h (0 Bft) 93,62 %
06.08.2019 00:42 18,5 C 23,9 C 17,2 C 86 % 1011,1 hPa 0,0 l/m 0,0 km/h (0 Bft) S-SW 200 0 min 0,000 mm 0,0 UV-I 0 W/m 16,1 C 18,5 C 0,0 km/h (0 Bft) 100,00 %
06.08.2019 00:44 18,4 C 23,9 C 17,2 C 87 % 1011,1 hPa 0,0 l/m 0,0 km/h (0 Bft) S-SW 200 0 min 0,000 mm 0,0 UV-I 0 W/m 16,2 C 18,4 C 0,0 km/h (0 Bft) 97,87 %
06.08.2019 00:46 18,4 C 23,9 C 16,7 C 87 % 1011,2 hPa 0,0 l/m 0,0 km/h (0 Bft) S-SW 200 0 min 0,000 mm 0,0 UV-I 0 W/m 16,2 C 18,4 C 0,0 km/h (0 Bft) 100,00 %
06.08.2019 00:48 18,4 C 23,9 C 16,7 C 87 % 1011,1 hPa 0,0 l/m 0,0 km/h (0 Bft) S-SW 200 0 min 0,000 mm 0,0 UV-I 0 W/m 16,2 C 18,4 C 0,0 km/h (0 Bft) 100,00 %
06.08.2019 00:50 18,3 C 23,9 C 16,7 C 87 % 1011,1 hPa 0,0 l/m 0,0 km/h (0 Bft) S-SW 200 0 min 0,000 mm 0,0 UV-I 0 W/m 16,1 C 18,3 C 0,0 km/h (0 Bft) 100,00 %
06.08.2019 00:52 18,1 C 23,9 C 16,7 C 87 % 1011,1 hPa 0,0 l/m 0,4 km/h (0 Bft) S-SW 200 0 min 0,000 mm 0,0 UV-I 0 W/m 15,9 C 18,1 C 3,2 km/h (1 Bft) 100,00 %
06.08.2019 00:54 17,9 C 23,9 C 16,7 C 87 % 1011,1 hPa 0,0 l/m 1,3 km/h (1 Bft) S-SW 200 0 min 0,000 mm 0,0 UV-I 0 W/m 15,7 C 17,9 C 1,6 km/h (1 Bft) 100,00 %
06.08.2019 00:56 17,9 C 23,9 C 16,1 C 88 % 1011,1 hPa 0,0 l/m 2,5 km/h (1 Bft) S-SW 200 0 min 0,000 mm 0,0 UV-I 0 W/m 15,9 C 17,9 C 3,2 km/h (1 Bft) 100,00 %
06.08.2019 00:58 18,1 C 23,9 C 16,1 C 88 % 1011,1 hPa 0,0 l/m 2,6 km/h (1 Bft) S-SW 200 0 min 0,000 mm 0,0 UV-I 0 W/m 16,1 C 18,1 C 3,2 km/h (1 Bft) 100,00 %
06.08.2019 01:00 18,0 C 23,9 C 16,1 C 87 % 1011,1 hPa 0,0 l/m 2,6 km/h (1 Bft) S-SW 200 0 min 0,000 mm 0,0 UV-I 0 W/m 15,8 C 18,0 C 3,2 km/h (1 Bft) 100,00 %
06.08.2019 01:02 18,0 C 23,9 C 16,1 C 88 % 1011,0 hPa 0,0 l/m 3,1 km/h (1 Bft) S-SW 200 0 min 0,000 mm 0,0 UV-I 0 W/m 16,0 C 18,0 C 3,2 km/h (1 Bft) 100,00 %
06.08.2019 01:04 18,2 C 23,9 C 16,1 C 87 % 1011,1 hPa 0,0 l/m 3,6 km/h (1 Bft) O-SO 110 0 min 0,000 mm 0,0 UV-I 0 W/m 16,0 C 18,2 C 4,8 km/h (1 Bft) 100,00 %
06.08.2019 01:06 18,3 C 23,9 C 16,1 C 86 % 1011,1 hPa 0,0 l/m 2,7 km/h (1 Bft) O-SO 110 0 min 0,000 mm 0,0 UV-I 0 W/m 15,9 C 18,3 C 3,2 km/h (1 Bft) 100,00 %
06.08.2019 01:08 18,5 C 23,9 C 16,1 C 85 % 1011,1 hPa 0,0 l/m 2,5 km/h (1 Bft) O-SO 110 0 min 0,000 mm 0,0 UV-I 0 W/m 15,9 C 18,5 C 3,2 km/h (1 Bft) 95,74 %
06.08.2019 01:10 18,6 C 23,9 C 16,1 C 85 % 1011,1 hPa 0,0 l/m 1,2 km/h (1 Bft) O-SO 110 0 min 0,000 mm 0,0 UV-I 0 W/m 16,0 C 18,6 C 1,6 km/h (1 Bft) 100,00 %
06.08.2019 01:12 18,4 C 23,9 C 16,7 C 85 % 1011,1 hPa 0,0 l/m 1,2 km/h (1 Bft) O-SO 110 0 min 0,000 mm 0,0 UV-I 0 W/m 15,8 C 18,4 C 3,2 km/h (1 Bft) 97,87 %
06.08.2019 01:14 18,4 C 23,9 C 16,7 C 85 % 1011,1 hPa 0,0 l/m 1,4 km/h (1 Bft) O-SO 110 0 min 0,000 mm 0,0 UV-I 0 W/m 15,8 C 18,4 C 3,2 km/h (1 Bft) 100,00 %
06.08.2019 01:16 18,4 C 23,9 C 16,7 C 85 % 1011,1 hPa 0,0 l/m 0,7 km/h (0 Bft) O-SO 110 0 min 0,000 mm 0,0 UV-I 0 W/m 15,8 C 18,4 C 1,6 km/h (1 Bft) 97,92 %
06.08.2019 01:18 18,4 C 23,9 C 16,7 C 85 % 1011,1 hPa 0,0 l/m 0,0 km/h (0 Bft) O-SO 110 0 min 0,000 mm 0,0 UV-I 0 W/m 15,8 C 18,4 C 0,0 km/h (0 Bft) 100,00 %
06.08.2019 01:20 18,4 C 23,9 C 17,2 C 85 % 1011,1 hPa 0,0 l/m 0,4 km/h (0 Bft) O-SO 110 0 min 0,000 mm 0,0 UV-I 0 W/m 15,8 C 18,4 C 1,6 km/h (1 Bft) 97,87 %
06.08.2019 01:22 18,3 C 23,9 C 17,2 C 86 % 1011,2 hPa 0,0 l/m 2,3 km/h (1 Bft) O-SO 111 0 min 0,000 mm 0,0 UV-I 0 W/m 15,9 C 18,3 C 4,8 km/h (1 Bft) 100,00 %
06.08.2019 01:24 18,2 C 23,9 C 17,2 C 86 % 1011,1 hPa 0,0 l/m 5,1 km/h (1 Bft) S-SO 165 0 min 0,000 mm 0,0 UV-I 0 W/m 15,8 C 18,2 C 6,4 km/h (2 Bft) 100,00 %
06.08.2019 01:26 18,2 C 23,9 C 17,2 C 87 % 1011,2 hPa 0,0 l/m 5,9 km/h (2 Bft) S-SO 165 0 min 0,000 mm 0,0 UV-I 0 W/m 16,0 C 18,2 C 8,0 km/h (2 Bft) 97,87 %
06.08.2019 01:28 18,2 C 23,9 C 17,8 C 87 % 1011,1 hPa 0,0 l/m 4,2 km/h (1 Bft) S-SO 165 0 min 0,000 mm 0,0 UV-I 0 W/m 16,0 C 18,2 C 6,4 km/h (2 Bft) 97,87 %
06.08.2019 01:30 18,2 C 23,9 C 17,8 C 87 % 1011,1 hPa 0,0 l/m 3,1 km/h (1 Bft) S-SO 165 0 min 0,000 mm 0,0 UV-I 0 W/m 16,0 C 18,2 C 6,4 km/h (2 Bft) 97,37 %
06.08.2019 01:32 18,3 C 23,9 C 17,8 C 86 % 1011,0 hPa 0,0 l/m 4,5 km/h (1 Bft) S-SO 165 0 min 0,000 mm 0,0 UV-I 0 W/m 15,9 C 18,3 C 6,4 km/h (2 Bft) 97,92 %
06.08.2019 01:34 18,2 C 23,9 C 17,8 C 87 % 1011,0 hPa 0,0 l/m 3,1 km/h (1 Bft) S-SO 165 0 min 0,000 mm 0,0 UV-I 0 W/m 16,0 C 18,2 C 6,4 km/h (2 Bft) 97,87 %
06.08.2019 01:36 18,1 C 23,9 C 17,8 C 87 % 1011,1 hPa 0,0 l/m 3,1 km/h (1 Bft) S-SO 165 0 min 0,000 mm 0,0 UV-I 0 W/m 15,9 C 18,1 C 3,2 km/h (1 Bft) 97,87 %
06.08.2019 01:38 18,1 C 23,9 C 17,8 C 87 % 1011,0 hPa 0,0 l/m 2,5 km/h (1 Bft) S-SO 165 0 min 0,000 mm 0,0 UV-I 0 W/m 15,9 C 18,1 C 3,2 km/h (1 Bft) 97,87 %
06.08.2019 01:40 18,2 C 23,9 C 17,8 C 87 % 1011,0 hPa 0,0 l/m 1,9 km/h (1 Bft) S-SO 165 0 min 0,000 mm 0,0 UV-I 0 W/m 16,0 C 18,2 C 3,2 km/h (1 Bft) 97,87 %
06.08.2019 01:42 18,3 C 23,9 C 17,8 C 87 % 1011,0 hPa 0,0 l/m 1,1 km/h (1 Bft) S-SO 165 0 min 0,000 mm 0,0 UV-I 0 W/m 16,1 C 18,3 C 3,2 km/h (1 Bft) 98,00 %
06.08.2019 01:44 18,4 C 23,9 C 17,8 C 86 % 1011,0 hPa 0,0 l/m 0,0 km/h (0 Bft) S-SO 165 0 min 0,000 mm 0,0 UV-I 0 W/m 16,0 C 18,4 C 0,0 km/h (0 Bft) 97,87 %
06.08.2019 01:46 18,4 C 23,9 C 17,8 C 86 % 1011,0 hPa 0,0 l/m 1,1 km/h (1 Bft) S-SO 165 0 min 0,000 mm 0,0 UV-I 0 W/m 16,0 C 18,4 C 3,2 km/h (1 Bft) 97,87 %
06.08.2019 01:48 18,4 C 23,9 C 17,8 C 86 % 1011,0 hPa 0,0 l/m 3,8 km/h (1 Bft) S-SO 165 0 min 0,000 mm 0,0 UV-I 0 W/m 16,0 C 18,4 C 6,4 km/h (2 Bft) 95,83 %
06.08.2019 01:50 18,4 C 23,9 C 18,3 C 86 % 1011,0 hPa 0,0 l/m 5,2 km/h (1 Bft) S-SO 165 0 min 0,000 mm 0,0 UV-I 0 W/m 16,0 C 18,4 C 6,4 km/h (2 Bft) 95,74 %
06.08.2019 01:52 18,3 C 23,9 C 18,3 C 86 % 1011,0 hPa 0,0 l/m 5,2 km/h (1 Bft) S-SO 165 0 min 0,000 mm 0,0 UV-I 0 W/m 15,9 C 18,3 C 6,4 km/h (2 Bft) 91,49 %
06.08.2019 01:54 18,3 C 23,9 C 18,3 C 86 % 1011,1 hPa 0,0 l/m 2,4 km/h (1 Bft) S-SO 165 0 min 0,000 mm 0,0 UV-I 0 W/m 15,9 C 18,3 C 3,2 km/h (1 Bft) 95,74 %
06.08.2019 01:56 18,4 C 23,9 C 17,8 C 86 % 1011,1 hPa 0,0 l/m 1,6 km/h (1 Bft) S-SO 165 0 min 0,000 mm 0,0 UV-I 0 W/m 16,0 C 18,4 C 1,6 km/h (1 Bft) 96,00 %
06.08.2019 01:58 18,4 C 23,9 C 17,8 C 86 % 1011,0 hPa 0,0 l/m 0,9 km/h (0 Bft) S-SO 165 0 min 0,000 mm 0,0 UV-I 0 W/m 16,0 C 18,4 C 3,2 km/h (1 Bft) 93,62 %
06.08.2019 02:00 18,4 C 23,9 C 17,8 C 86 % 1011,0 hPa 0,0 l/m 0,5 km/h (0 Bft) S-SO 165 0 min 0,000 mm 0,0 UV-I 0 W/m 16,0 C 18,4 C 1,6 km/h (1 Bft) 95,74 %
06.08.2019 02:02 18,4 C 23,9 C 17,8 C 85 % 1011,1 hPa 0,0 l/m 1,0 km/h (0 Bft) S-SO 165 0 min 0,000 mm 0,0 UV-I 0 W/m 15,8 C 18,4 C 1,6 km/h (1 Bft) 97,87 %
06.08.2019 02:04 18,4 C 23,9 C 17,8 C 85 % 1011,1 hPa 0,0 l/m 1,5 km/h (1 Bft) S-SO 165 0 min 0,000 mm 0,0 UV-I 0 W/m 15,8 C 18,4 C 3,2 km/h (1 Bft) 97,87 %
06.08.2019 02:06 18,4 C 23,9 C 17,8 C 86 % 1011,1 hPa 0,0 l/m 2,9 km/h (1 Bft) S-SO 165 0 min 0,000 mm 0,0 UV-I 0 W/m 16,0 C 18,4 C 6,4 km/h (2 Bft) 94,74 %
06.08.2019 02:08 18,4 C 23,9 C 17,8 C 86 % 1011,1 hPa 0,0 l/m 4,3 km/h (1 Bft) S-SO 166 0 min 0,000 mm 0,0 UV-I 0 W/m 16,0 C 18,4 C 6,4 km/h (2 Bft) 95,74 %
06.08.2019 02:10 18,3 C 23,9 C 17,8 C 86 % 1011,1 hPa 0,0 l/m 3,5 km/h (1 Bft) S-SO 166 0 min 0,000 mm 0,0 UV-I 0 W/m 15,9 C 18,3 C 4,8 km/h (1 Bft) 93,75 %
06.08.2019 02:12 18,3 C 23,9 C 17,8 C 86 % 1011,1 hPa 0,0 l/m 0,7 km/h (0 Bft) S-SO 166 0 min 0,000 mm 0,0 UV-I 0 W/m 15,9 C 18,3 C 4,8 km/h (1 Bft) 93,62 %
06.08.2019 02:14 18,3 C 23,9 C 17,2 C 86 % 1011,0 hPa 0,0 l/m 0,2 km/h (0 Bft) S-SO 166 0 min 0,000 mm 0,0 UV-I 0 W/m 15,9 C 18,3 C 1,6 km/h (1 Bft) 95,74 %
06.08.2019 02:16 18,2 C 23,9 C 17,2 C 86 % 1011,0 hPa 0,0 l/m 0,7 km/h (0 Bft) S-SO 166 0 min 0,000 mm 0,0 UV-I 0 W/m 15,8 C 18,2 C 1,6 km/h (1 Bft) 96,00 %
06.08.2019 02:18 18,1 C 23,9 C 17,2 C 87 % 1011,0 hPa 0,0 l/m 0,8 km/h (0 Bft) S-SO 166 0 min 0,000 mm 0,0 UV-I 0 W/m 15,9 C 18,1 C 4,8 km/h (1 Bft) 95,74 %
06.08.2019 02:20 18,1 C 23,9 C 17,2 C 87 % 1011,0 hPa 0,0 l/m 2,5 km/h (1 Bft) S-SO 166 0 min 0,000 mm 0,0 UV-I 0 W/m 15,9 C 18,1 C 4,8 km/h (1 Bft) 94,00 %
06.08.2019 02:22 18,1 C 23,9 C 17,2 C 87 % 1011,0 hPa 0,0 l/m 2,8 km/h (1 Bft) S-SO 166 0 min 0,000 mm 0,0 UV-I 0 W/m 15,9 C 18,1 C 4,8 km/h (1 Bft) 95,74 %
06.08.2019 02:24 18,1 C 23,9 C 17,2 C 87 % 1011,0 hPa 0,0 l/m 0,7 km/h (0 Bft) S-SO 166 0 min 0,000 mm 0,0 UV-I 0 W/m 15,9 C 18,1 C 1,6 km/h (1 Bft) 93,62 %
06.08.2019 02:26 18,0 C 23,9 C 17,2 C 87 % 1011,0 hPa 0,0 l/m 0,0 km/h (0 Bft) S-SO 166 0 min 0,000 mm 0,0 UV-I 0 W/m 15,8 C 18,0 C 0,0 km/h (0 Bft) 93,62 %
06.08.2019 02:28 17,9 C 23,9 C 17,2 C 88 % 1011,1 hPa 0,0 l/m 0,0 km/h (0 Bft) S-SO 166 0 min 0,000 mm 0,0 UV-I 0 W/m 15,9 C 17,9 C 0,0 km/h (0 Bft) 94,87 %
06.08.2019 02:30 17,9 C 23,9 C 17,2 C 88 % 1011,1 hPa 0,0 l/m 0,0 km/h (0 Bft) S-SO 166 0 min 0,000 mm 0,0 UV-I 0 W/m 15,9 C 17,9 C 0,0 km/h (0 Bft) 93,62 %
06.08.2019 02:32 17,9 C 23,9 C 17,2 C 88 % 1011,1 hPa 0,0 l/m 1,6 km/h (1 Bft) S-SO 165 0 min 0,000 mm 0,0 UV-I 0 W/m 15,9 C 17,9 C 4,8 km/h (1 Bft) 95,74 %
06.08.2019 02:34 17,8 C 23,9 C 17,2 C 89 % 1011,1 hPa 0,0 l/m 2,0 km/h (1 Bft) S-SO 165 0 min 0,000 mm 0,0 UV-I 0 W/m 16,0 C 17,8 C 3,2 km/h (1 Bft) 94,00 %
06.08.2019 02:36 17,7 C 23,9 C 17,2 C 89 % 1011,1 hPa 0,0 l/m 1,8 km/h (1 Bft) S-SO 165 0 min 0,000 mm 0,0 UV-I 0 W/m 15,9 C 17,7 C 3,2 km/h (1 Bft) 93,62 %
06.08.2019 02:38 17,6 C 23,9 C 16,7 C 90 % 1011,1 hPa 0,0 l/m 0,4 km/h (0 Bft) S-SO 165 0 min 0,000 mm 0,0 UV-I 0 W/m 15,9 C 17,6 C 3,2 km/h (1 Bft) 95,12 %
06.08.2019 02:40 17,6 C 23,9 C 16,7 C 90 % 1011,1 hPa 0,0 l/m 1,7 km/h (1 Bft) S-SO 165 0 min 0,000 mm 0,0 UV-I 0 W/m 15,9 C 17,6 C 4,8 km/h (1 Bft) 97,87 %
06.08.2019 02:42 17,6 C 23,9 C 16,7 C 90 % 1011,1 hPa 0,0 l/m 4,4 km/h (1 Bft) S-SO 166 0 min 0,000 mm 0,0 UV-I 0 W/m 15,9 C 17,6 C 6,4 km/h (2 Bft) 97,87 %
06.08.2019 02:44 17,6 C 23,9 C 16,7 C 90 % 1011,1 hPa 0,0 l/m 4,5 km/h (1 Bft) S-SO 166 0 min 0,000 mm 0,0 UV-I 0 W/m 15,9 C 17,6 C 6,4 km/h (2 Bft) 100,00 %
06.08.2019 02:46 17,6 C 23,9 C 16,7 C 89 % 1011,1 hPa 0,0 l/m 1,7 km/h (1 Bft) S-SO 166 0 min 0,000 mm 0,0 UV-I 0 W/m 15,8 C 17,6 C 4,8 km/h (1 Bft) 93,62 %
06.08.2019 02:48 17,6 C 23,9 C 16,7 C 89 % 1011,1 hPa 0,0 l/m 1,0 km/h (0 Bft) S-SO 166 0 min 0,000 mm 0,0 UV-I 0 W/m 15,8 C 17,6 C 1,6 km/h (1 Bft) 97,87 %
06.08.2019 02:50 17,5 C 23,9 C 16,7 C 89 % 1011,1 hPa 0,0 l/m 1,4 km/h (1 Bft) S-SO 166 0 min 0,000 mm 0,0 UV-I 0 W/m 15,7 C 17,5 C 4,8 km/h (1 Bft) 95,74 %
06.08.2019 02:52 17,4 C 23,9 C 16,7 C 89 % 1011,1 hPa 0,0 l/m 1,6 km/h (1 Bft) S-SO 166 0 min 0,000 mm 0,0 UV-I 0 W/m 15,6 C 17,4 C 1,6 km/h (1 Bft) 100,00 %
06.08.2019 02:54 17,4 C 23,9 C 16,7 C 90 % 1011,1 hPa 0,0 l/m 1,6 km/h (1 Bft) S-SO 166 0 min 0,000 mm 0,0 UV-I 0 W/m 15,7 C 17,4 C 1,6 km/h (1 Bft) 100,00 %
06.08.2019 02:56 17,5 C 23,9 C 16,7 C 90 % 1011,2 hPa 0,0 l/m 2,1 km/h (1 Bft) S-SO 166 0 min 0,000 mm 0,0 UV-I 0 W/m 15,8 C 17,5 C 4,8 km/h (1 Bft) 97,87 %
06.08.2019 02:58 17,6 C 23,9 C 16,7 C 89 % 1011,1 hPa 0,0 l/m 2,3 km/h (1 Bft) S-SO 166 0 min 0,000 mm 0,0 UV-I 0 W/m 15,8 C 17,6 C 4,8 km/h (1 Bft) 97,87 %
06.08.2019 03:00 17,7 C 23,9 C 16,7 C 89 % 1011,1 hPa 0,0 l/m 4,9 km/h (1 Bft) S-SO 166 0 min 0,000 mm 0,0 UV-I 0 W/m 15,9 C 17,7 C 6,4 km/h (2 Bft) 95,74 %
06.08.2019 03:02 17,7 C 23,9 C 17,2 C 89 % 1011,1 hPa 0,0 l/m 4,7 km/h (1 Bft) S-SO 166 0 min 0,000 mm 0,0 UV-I 0 W/m 15,9 C 17,7 C 6,4 km/h (2 Bft) 95,83 %
06.08.2019 03:04 17,8 C 23,9 C 17,2 C 89 % 1011,1 hPa 0,0 l/m 2,6 km/h (1 Bft) S-SO 166 0 min 0,000 mm 0,0 UV-I 0 W/m 16,0 C 17,8 C 4,8 km/h (1 Bft) 97,87 %
06.08.2019 03:06 17,7 C 23,9 C 17,2 C 88 % 1011,1 hPa 0,0 l/m 1,1 km/h (1 Bft) S-SO 166 0 min 0,000 mm 0,0 UV-I 0 W/m 15,7 C 17,7 C 1,6 km/h (1 Bft) 97,87 %
06.08.2019 03:08 17,6 C 23,9 C 17,2 C 88 % 1011,1 hPa 0,0 l/m 0,0 km/h (0 Bft) S-SO 166 0 min 0,000 mm 0,0 UV-I 0 W/m 15,6 C 17,6 C 1,6 km/h (1 Bft) 95,74 %
06.08.2019 03:10 17,6 C 23,9 C 17,2 C 89 % 1011,2 hPa 0,0 l/m 1,5 km/h (1 Bft) S-SO 165 0 min 0,000 mm 0,0 UV-I 0 W/m 15,8 C 17,6 C 3,2 km/h (1 Bft) 95,74 %
06.08.2019 03:12 17,5 C 23,9 C 16,7 C 89 % 1011,2 hPa 0,0 l/m 1,4 km/h (1 Bft) S-SO 165 0 min 0,000 mm 0,0 UV-I 0 W/m 15,7 C 17,5 C 3,2 km/h (1 Bft) 98,00 %
06.08.2019 03:14 17,4 C 23,9 C 16,7 C 90 % 1011,3 hPa 0,0 l/m 0,7 km/h (0 Bft) S-SO 165 0 min 0,000 mm 0,0 UV-I 0 W/m 15,7 C 17,4 C 1,6 km/h (1 Bft) 91,49 %
06.08.2019 03:16 17,5 C 23,9 C 16,7 C 90 % 1011,3 hPa 0,0 l/m 0,0 km/h (0 Bft) S-SO 165 0 min 0,000 mm 0,0 UV-I 0 W/m 15,8 C 17,5 C 0,0 km/h (0 Bft) 98,00 %
06.08.2019 03:18 17,5 C 23,9 C 16,7 C 90 % 1011,2 hPa 0,0 l/m 0,0 km/h (0 Bft) S-SO 165 0 min 0,000 mm 0,0 UV-I 0 W/m 15,8 C 17,5 C 0,0 km/h (0 Bft) 100,00 %
06.08.2019 03:20 17,6 C 23,9 C 16,7 C 90 % 1011,2 hPa 0,0 l/m 0,0 km/h (0 Bft) S-SO 165 0 min 0,000 mm 0,0 UV-I 0 W/m 15,9 C 17,6 C 0,0 km/h (0 Bft) 100,00 %
06.08.2019 03:22 17,5 C 23,9 C 16,7 C 90 % 1011,2 hPa 0,0 l/m 0,0 km/h (0 Bft) S-SO 165 0 min 0,000 mm 0,0 UV-I 0 W/m 15,8 C 17,5 C 0,0 km/h (0 Bft) 97,87 %
06.08.2019 03:24 17,4 C 23,9 C 16,7 C 90 % 1011,1 hPa 0,0 l/m 0,0 km/h (0 Bft) S-SO 165 0 min 0,000 mm 0,0 UV-I 0 W/m 15,7 C 17,4 C 0,0 km/h (0 Bft) 100,00 %
06.08.2019 03:26 17,3 C 23,9 C 16,7 C 90 % 1011,2 hPa 0,0 l/m 2,7 km/h (1 Bft) S-SO 165 0 min 0,000 mm 0,0 UV-I 0 W/m 15,6 C 17,3 C 6,4 km/h (2 Bft) 100,00 %
06.08.2019 03:28 17,3 C 23,9 C 16,7 C 90 % 1011,3 hPa 0,0 l/m 4,2 km/h (1 Bft) S 174 0 min 0,000 mm 0,0 UV-I 0 W/m 15,6 C 17,3 C 6,4 km/h (2 Bft) 100,00 %
06.08.2019 03:30 17,4 C 23,9 C 16,7 C 90 % 1011,3 hPa 0,0 l/m 2,9 km/h (1 Bft) S 174 0 min 0,000 mm 0,0 UV-I 0 W/m 15,7 C 17,4 C 4,8 km/h (1 Bft) 97,14 %
06.08.2019 03:32 17,4 C 23,9 C 16,7 C 90 % 1011,3 hPa 0,0 l/m 2,3 km/h (1 Bft) S 174 0 min 0,000 mm 0,0 UV-I 0 W/m 15,7 C 17,4 C 4,8 km/h (1 Bft) 100,00 %
06.08.2019 03:34 17,4 C 23,9 C 16,7 C 90 % 1011,4 hPa 0,0 l/m 1,9 km/h (1 Bft) S 174 0 min 0,000 mm 0,0 UV-I 0 W/m 15,7 C 17,4 C 3,2 km/h (1 Bft) 97,87 %
06.08.2019 03:36 17,2 C 23,9 C 16,7 C 90 % 1011,5 hPa 0,0 l/m 2,3 km/h (1 Bft) S-SW 209 0 min 0,000 mm 0,0 UV-I 0 W/m 15,5 C 17,2 C 4,8 km/h (1 Bft) 100,00 %
06.08.2019 03:38 17,1 C 23,9 C 16,7 C 90 % 1011,5 hPa 0,0 l/m 6,6 km/h (2 Bft) W-SW 246 0 min 0,000 mm 0,0 UV-I 0 W/m 15,4 C 17,0 C 12,9 km/h (3 Bft) 96,00 %
06.08.2019 03:40 17,1 C 23,9 C 16,7 C 91 % 1011,7 hPa 0,0 l/m 9,3 km/h (2 Bft) W-SW 245 0 min 0,000 mm 0,0 UV-I 0 W/m 15,6 C 15,7 C 14,5 km/h (3 Bft) 97,87 %
06.08.2019 03:42 17,0 C 23,9 C 16,7 C 91 % 1011,8 hPa 0,0 l/m 8,6 km/h (2 Bft) S-SW 209 0 min 0,000 mm 0,0 UV-I 0 W/m 15,5 C 15,9 C 12,9 km/h (3 Bft) 98,00 %
06.08.2019 03:44 17,2 C 23,9 C 16,7 C 91 % 1011,6 hPa 0,0 l/m 5,9 km/h (2 Bft) S-SW 210 0 min 0,000 mm 0,0 UV-I 0 W/m 15,7 C 17,2 C 8,0 km/h (2 Bft) 100,00 %
06.08.2019 03:46 17,3 C 23,9 C 16,7 C 91 % 1011,5 hPa 0,0 l/m 2,8 km/h (1 Bft) S-SW 209 0 min 0,000 mm 0,0 UV-I 0 W/m 15,8 C 17,3 C 4,8 km/h (1 Bft) 100,00 %
06.08.2019 03:48 17,4 C 23,9 C 17,2 C 91 % 1011,5 hPa 0,0 l/m 1,7 km/h (1 Bft) S-SW 209 0 min 0,000 mm 0,0 UV-I 0 W/m 15,9 C 17,4 C 3,2 km/h (1 Bft) 100,00 %
06.08.2019 03:50 17,6 C 23,9 C 17,2 C 90 % 1011,5 hPa 0,0 l/m 2,1 km/h (1 Bft) S-SW 209 0 min 0,000 mm 0,0 UV-I 0 W/m 15,9 C 17,6 C 4,8 km/h (1 Bft) 100,00 %
06.08.2019 03:52 17,8 C 23,9 C 17,2 C 89 % 1011,5 hPa 0,0 l/m 2,5 km/h (1 Bft) S-SW 209 0 min 0,000 mm 0,0 UV-I 0 W/m 16,0 C 17,8 C 3,2 km/h (1 Bft) 97,87 %
06.08.2019 03:54 17,9 C 23,9 C 17,2 C 88 % 1011,5 hPa 0,0 l/m 4,2 km/h (1 Bft) S-SW 204 0 min 0,000 mm 0,0 UV-I 0 W/m 15,9 C 17,9 C 6,4 km/h (2 Bft) 100,00 %
06.08.2019 03:56 18,1 C 23,9 C 17,2 C 88 % 1011,4 hPa 0,0 l/m 3,3 km/h (1 Bft) S-SW 204 0 min 0,000 mm 0,0 UV-I 0 W/m 16,1 C 18,1 C 4,8 km/h (1 Bft) 100,00 %
06.08.2019 03:58 18,1 C 23,9 C 17,2 C 87 % 1011,4 hPa 0,0 l/m 2,0 km/h (1 Bft) S-SW 204 0 min 0,000 mm 0,0 UV-I 0 W/m 15,9 C 18,1 C 4,8 km/h (1 Bft) 97,87 %
06.08.2019 04:00 18,2 C 23,9 C 17,2 C 87 % 1011,4 hPa 0,0 l/m 1,5 km/h (1 Bft) S-SW 206 0 min 0,000 mm 0,0 UV-I 0 W/m 16,0 C 18,2 C 3,2 km/h (1 Bft) 100,00 %
06.08.2019 04:02 18,1 C 23,9 C 17,2 C 87 % 1011,3 hPa 0,0 l/m 2,7 km/h (1 Bft) S-SW 206 0 min 0,000 mm 0,0 UV-I 0 W/m 15,9 C 18,1 C 3,2 km/h (1 Bft) 93,75 %
06.08.2019 04:04 17,8 C 23,9 C 17,2 C 88 % 1011,3 hPa 0,0 l/m 3,4 km/h (1 Bft) S-SW 206 0 min 0,000 mm 0,0 UV-I 0 W/m 15,8 C 17,8 C 4,8 km/h (1 Bft) 97,37 %
06.08.2019 04:06 17,6 C 23,9 C 17,2 C 89 % 1011,3 hPa 0,0 l/m 5,1 km/h (1 Bft) N-NO 13 0 min 0,000 mm 0,0 UV-I 0 W/m 15,8 C 17,6 C 6,4 km/h (2 Bft) 97,87 %
06.08.2019 04:08 17,4 C 23,9 C 17,2 C 90 % 1011,3 hPa 0,0 l/m 6,5 km/h (2 Bft) N-NO 16 0 min 0,000 mm 0,0 UV-I 0 W/m 15,7 C 17,4 C 8,0 km/h (2 Bft) 97,87 %
06.08.2019 04:10 17,3 C 23,9 C 16,7 C 90 % 1011,3 hPa 0,0 l/m 5,7 km/h (1 Bft) N-NO 16 0 min 0,000 mm 0,0 UV-I 0 W/m 15,6 C 17,3 C 8,0 km/h (2 Bft) 97,87 %
06.08.2019 04:12 17,2 C 23,9 C 16,7 C 90 % 1011,3 hPa 0,0 l/m 3,5 km/h (1 Bft) N-NO 16 0 min 0,000 mm 0,0 UV-I 0 W/m 15,5 C 17,2 C 6,4 km/h (2 Bft) 95,74 %
06.08.2019 04:14 17,3 C 23,9 C 16,7 C 90 % 1011,4 hPa 0,0 l/m 1,8 km/h (1 Bft) N-NO 16 0 min 0,000 mm 0,0 UV-I 0 W/m 15,6 C 17,3 C 3,2 km/h (1 Bft) 97,87 %
06.08.2019 04:16 17,4 C 23,9 C 16,1 C 90 % 1011,3 hPa 0,0 l/m 0,6 km/h (0 Bft) N-NO 16 0 min 0,000 mm 0,0 UV-I 0 W/m 15,7 C 17,4 C 1,6 km/h (1 Bft) 97,92 %
06.08.2019 04:18 17,4 C 23,9 C 16,1 C 89 % 1011,3 hPa 0,0 l/m 2,4 km/h (1 Bft) N-NO 16 0 min 0,000 mm 0,0 UV-I 0 W/m 15,6 C 17,4 C 3,2 km/h (1 Bft) 98,00 %
06.08.2019 04:20 17,4 C 23,9 C 15,6 C 89 % 1011,3 hPa 0,0 l/m 1,9 km/h (1 Bft) N-NO 16 0 min 0,000 mm 0,0 UV-I 0 W/m 15,6 C 17,4 C 3,2 km/h (1 Bft) 95,74 %
06.08.2019 04:22 17,4 C 23,9 C 15,6 C 89 % 1011,4 hPa 0,0 l/m 0,2 km/h (0 Bft) N-NO 16 0 min 0,000 mm 0,0 UV-I 0 W/m 15,6 C 17,4 C 1,6 km/h (1 Bft) 95,74 %
06.08.2019 04:24 17,4 C 23,9 C 15,6 C 89 % 1011,3 hPa 0,0 l/m 0,2 km/h (0 Bft) N-NO 16 0 min 0,000 mm 0,0 UV-I 0 W/m 15,6 C 17,4 C 1,6 km/h (1 Bft) 91,49 %
06.08.2019 04:26 17,3 C 23,9 C 15,6 C 89 % 1011,3 hPa 0,0 l/m 1,4 km/h (1 Bft) N-NO 16 0 min 0,000 mm 0,0 UV-I 0 W/m 15,5 C 17,3 C 1,6 km/h (1 Bft) 95,74 %
06.08.2019 04:28 17,3 C 23,9 C 15,6 C 89 % 1011,3 hPa 0,0 l/m 1,1 km/h (1 Bft) N-NO 16 0 min 0,000 mm 0,0 UV-I 0 W/m 15,5 C 17,3 C 1,6 km/h (1 Bft) 92,00 %
06.08.2019 04:30 17,3 C 23,9 C 15,6 C 89 % 1011,2 hPa 0,0 l/m 0,6 km/h (0 Bft) N-NO 16 0 min 0,000 mm 0,0 UV-I 0 W/m 15,5 C 17,3 C 1,6 km/h (1 Bft) 95,74 %
06.08.2019 04:32 17,2 C 23,9 C 15,6 C 89 % 1011,2 hPa 0,0 l/m 0,0 km/h (0 Bft) N-NO 16 0 min 0,000 mm 0,0 UV-I 0 W/m 15,4 C 17,2 C 0,0 km/h (0 Bft) 95,74 %
06.08.2019 04:34 17,1 C 23,9 C 15,0 C 90 % 1011,2 hPa 0,0 l/m 0,0 km/h (0 Bft) N-NO 16 0 min 0,000 mm 0,0 UV-I 0 W/m 15,4 C 17,1 C 0,0 km/h (0 Bft) 94,74 %
06.08.2019 04:36 17,1 C 23,3 C 15,0 C 90 % 1011,2 hPa 0,0 l/m 0,0 km/h (0 Bft) N-NO 16 0 min 0,000 mm 0,0 UV-I 0 W/m 15,4 C 17,1 C 0,0 km/h (0 Bft) 93,62 %
06.08.2019 04:38 17,1 C 23,3 C 15,6 C 90 % 1011,2 hPa 0,0 l/m 2,4 km/h (1 Bft) O 91 0 min 0,000 mm 0,0 UV-I 0 W/m 15,4 C 17,1 C 4,8 km/h (1 Bft) 95,74 %
06.08.2019 04:40 17,0 C 23,9 C 15,6 C 90 % 1011,2 hPa 0,0 l/m 4,9 km/h (1 Bft) S-SO 149 0 min 0,000 mm 0,0 UV-I 0 W/m 15,3 C 17,0 C 6,4 km/h (2 Bft) 95,74 %
06.08.2019 04:42 16,9 C 23,3 C 15,6 C 90 % 1011,2 hPa 0,0 l/m 6,3 km/h (2 Bft) S-SO 155 0 min 0,000 mm 0,0 UV-I 0 W/m 15,2 C 16,9 C 8,0 km/h (2 Bft) 96,00 %
06.08.2019 04:44 16,8 C 23,9 C 15,6 C 90 % 1011,2 hPa 0,0 l/m 3,4 km/h (1 Bft) S-SO 155 0 min 0,000 mm 0,0 UV-I 0 W/m 15,1 C 16,8 C 4,8 km/h (1 Bft) 97,87 %
06.08.2019 04:46 16,7 C 23,3 C 15,0 C 90 % 1011,2 hPa 0,0 l/m 2,6 km/h (1 Bft) S-SO 155 0 min 0,000 mm 0,0 UV-I 0 W/m 15,0 C 16,7 C 3,2 km/h (1 Bft) 97,87 %
06.08.2019 04:48 16,7 C 23,3 C 15,0 C 91 % 1011,2 hPa 0,0 l/m 2,4 km/h (1 Bft) S-SO 155 0 min 0,000 mm 0,0 UV-I 0 W/m 15,2 C 16,7 C 3,2 km/h (1 Bft) 100,00 %
06.08.2019 04:50 16,7 C 23,3 C 15,0 C 91 % 1011,2 hPa 0,0 l/m 1,7 km/h (1 Bft) S-SO 155 0 min 0,000 mm 0,0 UV-I 0 W/m 15,2 C 16,7 C 3,2 km/h (1 Bft) 97,87 %
06.08.2019 04:52 16,7 C 23,3 C 15,0 C 91 % 1011,2 hPa 0,0 l/m 1,1 km/h (1 Bft) S-SO 155 0 min 0,000 mm 0,0 UV-I 0 W/m 15,2 C 16,7 C 1,6 km/h (1 Bft) 100,00 %
06.08.2019 04:54 16,6 C 23,3 C 15,0 C 91 % 1011,2 hPa 0,0 l/m 1,5 km/h (1 Bft) S-SO 155 0 min 0,000 mm 0,0 UV-I 0 W/m 15,1 C 16,6 C 3,2 km/h (1 Bft) 100,00 %
06.08.2019 04:56 16,7 C 23,3 C 15,0 C 91 % 1011,2 hPa 0,0 l/m 2,7 km/h (1 Bft) S-SO 155 0 min 0,000 mm 0,0 UV-I 0 W/m 15,2 C 16,7 C 3,2 km/h (1 Bft) 100,00 %
06.08.2019 04:58 16,7 C 23,3 C 15,6 C 91 % 1011,2 hPa 0,0 l/m 3,0 km/h (1 Bft) S-SO 155 0 min 0,000 mm 0,0 UV-I 0 W/m 15,2 C 16,7 C 4,8 km/h (1 Bft) 100,00 %
06.08.2019 05:00 16,7 C 23,3 C 15,6 C 91 % 1011,3 hPa 0,0 l/m 4,6 km/h (1 Bft) S 169 0 min 0,000 mm 0,0 UV-I 0 W/m 15,2 C 16,7 C 8,0 km/h (2 Bft) 100,00 %
06.08.2019 05:02 16,7 C 23,3 C 15,6 C 91 % 1011,3 hPa 0,0 l/m 4,9 km/h (1 Bft) S 175 0 min 0,000 mm 0,0 UV-I 0 W/m 15,2 C 16,7 C 6,4 km/h (2 Bft) 97,87 %
06.08.2019 05:04 16,7 C 23,3 C 15,6 C 91 % 1011,4 hPa 0,0 l/m 2,2 km/h (1 Bft) S 175 0 min 0,000 mm 0,0 UV-I 0 W/m 15,2 C 16,7 C 3,2 km/h (1 Bft) 97,87 %
06.08.2019 05:06 16,7 C 23,3 C 15,6 C 90 % 1011,4 hPa 0,0 l/m 2,0 km/h (1 Bft) S 175 0 min 0,000 mm 0,0 UV-I 0 W/m 15,0 C 16,7 C 3,2 km/h (1 Bft) 100,00 %
06.08.2019 05:08 16,7 C 23,3 C 15,0 C 91 % 1011,5 hPa 0,0 l/m 2,4 km/h (1 Bft) S 175 0 min 0,000 mm 0,0 UV-I 0 W/m 15,2 C 16,7 C 4,8 km/h (1 Bft) 97,87 %
06.08.2019 05:10 16,7 C 23,3 C 15,0 C 91 % 1011,5 hPa 0,0 l/m 2,5 km/h (1 Bft) S 175 0 min 0,000 mm 0,0 UV-I 0 W/m 15,2 C 16,7 C 4,8 km/h (1 Bft) 97,87 %
06.08.2019 05:12 16,8 C 23,3 C 15,0 C 91 % 1011,5 hPa 0,0 l/m 0,8 km/h (0 Bft) S 175 0 min 0,000 mm 0,0 UV-I 0 W/m 15,3 C 16,8 C 3,2 km/h (1 Bft) 97,87 %
06.08.2019 05:14 16,8 C 23,3 C 15,0 C 90 % 1011,5 hPa 0,0 l/m 1,6 km/h (1 Bft) S 175 0 min 0,000 mm 0,0 UV-I 0 W/m 15,1 C 16,8 C 3,2 km/h (1 Bft) 97,87 %
06.08.2019 05:16 16,7 C 23,3 C 15,0 C 90 % 1011,6 hPa 0,0 l/m 0,7 km/h (0 Bft) S 175 0 min 0,000 mm 0,0 UV-I 0 W/m 15,0 C 16,7 C 1,6 km/h (1 Bft) 100,00 %
06.08.2019 05:18 16,7 C 23,3 C 15,0 C 91 % 1011,6 hPa 0,0 l/m 1,0 km/h (0 Bft) S 175 0 min 0,000 mm 0,0 UV-I 0 W/m 15,2 C 16,7 C 3,2 km/h (1 Bft) 100,00 %
06.08.2019 05:20 16,6 C 23,3 C 15,0 C 91 % 1011,6 hPa 0,0 l/m 2,5 km/h (1 Bft) S 175 0 min 0,000 mm 0,0 UV-I 0 W/m 15,1 C 16,6 C 3,2 km/h (1 Bft) 100,00 %
06.08.2019 05:22 16,4 C 23,3 C 15,0 C 91 % 1011,6 hPa 0,0 l/m 1,9 km/h (1 Bft) S 175 0 min 0,000 mm 0,0 UV-I 0 W/m 14,9 C 16,4 C 3,2 km/h (1 Bft) 100,00 %
06.08.2019 05:24 16,4 C 23,3 C 15,0 C 91 % 1011,7 hPa 0,0 l/m 0,6 km/h (0 Bft) S 175 0 min 0,000 mm 0,0 UV-I 0 W/m 14,9 C 16,4 C 1,6 km/h (1 Bft) 98,00 %
06.08.2019 05:26 16,4 C 23,3 C 15,6 C 91 % 1011,6 hPa 0,0 l/m 0,0 km/h (0 Bft) S 175 0 min 0,000 mm 0,0 UV-I 0 W/m 14,9 C 16,4 C 0,0 km/h (0 Bft) 95,74 %
06.08.2019 05:28 16,4 C 23,3 C 15,6 C 91 % 1011,7 hPa 0,0 l/m 0,0 km/h (0 Bft) S 175 0 min 0,000 mm 0,0 UV-I 0 W/m 14,9 C 16,4 C 0,0 km/h (0 Bft) 95,74 %
06.08.2019 05:30 16,5 C 23,3 C 15,6 C 92 % 1011,7 hPa 0,0 l/m 0,8 km/h (0 Bft) S 175 0 min 0,000 mm 0,0 UV-I 0 W/m 15,2 C 16,5 C 1,6 km/h (1 Bft) 97,87 %
06.08.2019 05:32 16,6 C 23,3 C 15,6 C 92 % 1011,8 hPa 0,0 l/m 0,3 km/h (0 Bft) S 175 0 min 0,000 mm 0,0 UV-I 0 W/m 15,3 C 16,6 C 1,6 km/h (1 Bft) 97,96 %
06.08.2019 05:34 16,6 C 23,3 C 16,1 C 92 % 1011,8 hPa 0,0 l/m 0,0 km/h (0 Bft) S 175 0 min 0,000 mm 0,0 UV-I 0 W/m 15,3 C 16,6 C 0,0 km/h (0 Bft) 95,83 %
06.08.2019 05:36 16,6 C 23,3 C 16,1 C 91 % 1011,9 hPa 0,0 l/m 0,5 km/h (0 Bft) S 175 0 min 0,000 mm 0,0 UV-I 0 W/m 15,1 C 16,6 C 1,6 km/h (1 Bft) 97,87 %
06.08.2019 05:38 16,6 C 23,3 C 16,7 C 91 % 1011,9 hPa 0,0 l/m 1,0 km/h (0 Bft) S 175 0 min 0,000 mm 0,0 UV-I 0 W/m 15,1 C 16,6 C 1,6 km/h (1 Bft) 97,87 %
06.08.2019 05:40 16,6 C 23,3 C 16,7 C 92 % 1011,9 hPa 0,0 l/m 0,6 km/h (0 Bft) S 175 0 min 0,000 mm 0,0 UV-I 0 W/m 15,3 C 16,6 C 1,6 km/h (1 Bft) 98,11 %
06.08.2019 05:42 16,7 C 23,3 C 16,7 C 92 % 1012,0 hPa 0,0 l/m 1,1 km/h (1 Bft) S 175 0 min 0,000 mm 0,0 UV-I 4 W/m 15,4 C 16,7 C 1,6 km/h (1 Bft) 97,87 %
06.08.2019 05:44 16,7 C 23,3 C 16,7 C 92 % 1012,0 hPa 0,0 l/m 0,0 km/h (0 Bft) S 175 0 min 0,000 mm 0,0 UV-I 5 W/m 15,4 C 16,7 C 1,6 km/h (1 Bft) 97,87 %
06.08.2019 05:46 16,8 C 23,3 C 16,7 C 92 % 1012,0 hPa 0,0 l/m 0,0 km/h (0 Bft) S 175 0 min 0,000 mm 0,0 UV-I 5 W/m 15,5 C 16,8 C 0,0 km/h (0 Bft) 97,87 %
06.08.2019 05:48 16,8 C 23,3 C 17,2 C 92 % 1012,0 hPa 0,0 l/m 1,5 km/h (1 Bft) S 175 0 min 0,000 mm 0,0 UV-I 5 W/m 15,5 C 16,8 C 3,2 km/h (1 Bft) 95,74 %
06.08.2019 05:50 16,9 C 23,3 C 17,2 C 91 % 1012,0 hPa 0,0 l/m 2,4 km/h (1 Bft) S 175 0 min 0,000 mm 0,0 UV-I 5 W/m 15,4 C 16,9 C 3,2 km/h (1 Bft) 94,74 %
06.08.2019 05:52 16,9 C 23,3 C 17,2 C 91 % 1012,0 hPa 0,0 l/m 1,3 km/h (1 Bft) S 175 0 min 0,000 mm 0,0 UV-I 5 W/m 15,4 C 16,9 C 3,2 km/h (1 Bft) 95,74 %
06.08.2019 05:54 17,0 C 23,3 C 17,2 C 91 % 1012,0 hPa 0,0 l/m 0,0 km/h (0 Bft) S 175 0 min 0,000 mm 0,0 UV-I 5 W/m 15,5 C 17,0 C 1,6 km/h (1 Bft) 95,74 %
06.08.2019 05:56 16,9 C 23,3 C 17,2 C 91 % 1012,0 hPa 0,0 l/m 0,0 km/h (0 Bft) S 175 0 min 0,000 mm 0,0 UV-I 6 W/m 15,4 C 16,9 C 0,0 km/h (0 Bft) 91,49 %
06.08.2019 05:58 17,0 C 23,3 C 17,2 C 91 % 1012,1 hPa 0,0 l/m 1,4 km/h (1 Bft) S 175 0 min 0,000 mm 0,0 UV-I 7 W/m 15,5 C 17,0 C 3,2 km/h (1 Bft) 93,62 %
06.08.2019 06:00 17,1 C 23,3 C 17,2 C 91 % 1012,1 hPa 0,0 l/m 1,6 km/h (1 Bft) S 175 0 min 0,000 mm 0,0 UV-I 9 W/m 15,6 C 17,1 C 3,2 km/h (1 Bft) 95,74 %
06.08.2019 06:02 17,1 C 23,3 C 17,2 C 91 % 1012,2 hPa 0,0 l/m 1,7 km/h (1 Bft) S 175 0 min 0,000 mm 0,0 UV-I 11 W/m 15,6 C 17,1 C 3,2 km/h (1 Bft) 94,00 %
06.08.2019 06:04 17,1 C 23,3 C 17,2 C 91 % 1012,2 hPa 0,0 l/m 1,3 km/h (1 Bft) S 175 0 min 0,000 mm 0,0 UV-I 12 W/m 15,6 C 17,1 C 3,2 km/h (1 Bft) 96,00 %
06.08.2019 06:06 17,1 C 23,3 C 16,7 C 91 % 1012,3 hPa 0,0 l/m 2,2 km/h (1 Bft) S 175 0 min 0,000 mm 0,0 UV-I 12 W/m 15,6 C 17,1 C 3,2 km/h (1 Bft) 95,74 %
06.08.2019 06:08 16,9 C 23,3 C 16,7 C 91 % 1012,4 hPa 0,0 l/m 3,3 km/h (1 Bft) S 175 0 min 0,000 mm 0,0 UV-I 14 W/m 15,4 C 16,9 C 4,8 km/h (1 Bft) 94,44 %
06.08.2019 06:10 16,8 C 23,3 C 16,7 C 91 % 1012,4 hPa 0,0 l/m 2,1 km/h (1 Bft) S 175 0 min 0,000 mm 0,0 UV-I 14 W/m 15,3 C 16,8 C 4,8 km/h (1 Bft) 93,88 %
06.08.2019 06:12 16,8 C 23,3 C 17,2 C 91 % 1012,4 hPa 0,0 l/m 0,4 km/h (0 Bft) S 175 0 min 0,000 mm 0,0 UV-I 15 W/m 15,3 C 16,8 C 1,6 km/h (1 Bft) 93,75 %
06.08.2019 06:14 16,7 C 23,3 C 17,2 C 91 % 1012,4 hPa 0,0 l/m 2,0 km/h (1 Bft) N-NO 33 0 min 0,000 mm 0,0 UV-I 16 W/m 15,2 C 16,7 C 4,8 km/h (1 Bft) 93,62 %
06.08.2019 06:16 16,8 C 23,3 C 17,2 C 92 % 1012,4 hPa 0,0 l/m 1,7 km/h (1 Bft) NO 55 0 min 0,000 mm 0,0 UV-I 17 W/m 15,5 C 16,8 C 3,2 km/h (1 Bft) 93,62 %
06.08.2019 06:18 17,0 C 23,3 C 17,2 C 92 % 1012,4 hPa 0,0 l/m 1,7 km/h (1 Bft) O-NO 66 0 min 0,000 mm 0,0 UV-I 16 W/m 15,7 C 17,0 C 3,2 km/h (1 Bft) 90,00 %
06.08.2019 06:20 17,2 C 23,3 C 17,2 C 92 % 1012,4 hPa 0,0 l/m 1,9 km/h (1 Bft) NO 55 0 min 0,000 mm 0,0 UV-I 16 W/m 15,9 C 17,2 C 3,2 km/h (1 Bft) 96,00 %
06.08.2019 06:22 17,3 C 23,3 C 17,2 C 91 % 1012,3 hPa 0,0 l/m 2,8 km/h (1 Bft) NO 55 0 min 0,000 mm 0,0 UV-I 17 W/m 15,8 C 17,3 C 3,2 km/h (1 Bft) 95,74 %
06.08.2019 06:24 17,4 C 23,3 C 17,2 C 91 % 1012,4 hPa 0,0 l/m 3,4 km/h (1 Bft) NO 55 0 min 0,000 mm 0,0 UV-I 20 W/m 15,9 C 17,4 C 4,8 km/h (1 Bft) 95,74 %
06.08.2019 06:26 17,4 C 23,3 C 17,8 C 91 % 1012,4 hPa 0,0 l/m 1,3 km/h (1 Bft) NO 55 0 min 0,000 mm 0,0 UV-I 23 W/m 15,9 C 17,4 C 3,2 km/h (1 Bft) 94,74 %
06.08.2019 06:29 17,5 C 23,3 C 17,8 C 90 % 1012,4 hPa 0,0 l/m 2,2 km/h (1 Bft) S 173 0 min 0,000 mm 0,0 UV-I 28 W/m 15,8 C 17,5 C 4,8 km/h (1 Bft) 95,89 %
06.08.2019 06:30 17,6 C 23,3 C 17,8 C 90 % 1012,4 hPa 0,0 l/m 0,9 km/h (0 Bft) S 173 0 min 0,000 mm 0,0 UV-I 30 W/m 15,9 C 17,6 C 1,6 km/h (1 Bft) 96,30 %
06.08.2019 06:32 17,5 C 23,3 C 17,8 C 90 % 1012,3 hPa 0,0 l/m 4,1 km/h (1 Bft) O 86 0 min 0,000 mm 0,0 UV-I 33 W/m 15,8 C 17,5 C 4,8 km/h (1 Bft) 97,87 %
06.08.2019 06:34 17,4 C 23,3 C 17,8 C 91 % 1012,3 hPa 0,0 l/m 3,1 km/h (1 Bft) O 85 0 min 0,000 mm 0,0 UV-I 35 W/m 15,9 C 17,4 C 4,8 km/h (1 Bft) 97,87 %
06.08.2019 06:36 17,4 C 23,3 C 17,8 C 91 % 1012,3 hPa 0,0 l/m 1,9 km/h (1 Bft) S 178 0 min 0,000 mm 0,0 UV-I 37 W/m 15,9 C 17,4 C 6,4 km/h (2 Bft) 97,87 %
06.08.2019 06:38 17,4 C 23,3 C 17,8 C 91 % 1012,3 hPa 0,0 l/m 4,6 km/h (1 Bft) S-SW 194 0 min 0,000 mm 0,0 UV-I 40 W/m 15,9 C 17,4 C 6,4 km/h (2 Bft) 97,87 %
06.08.2019 06:40 17,5 C 23,3 C 17,8 C 91 % 1012,2 hPa 0,0 l/m 3,1 km/h (1 Bft) S 191 0 min 0,000 mm 0,0 UV-I 41 W/m 16,0 C 17,5 C 8,0 km/h (2 Bft) 96,00 %
06.08.2019 06:42 17,5 C 23,3 C 17,8 C 90 % 1012,2 hPa 0,0 l/m 2,2 km/h (1 Bft) S 191 0 min 0,000 mm 0,0 UV-I 46 W/m 15,8 C 17,5 C 3,2 km/h (1 Bft) 97,87 %
06.08.2019 06:44 17,5 C 23,3 C 17,8 C 90 % 1012,3 hPa 0,0 l/m 0,8 km/h (0 Bft) S 191 0 min 0,000 mm 0,0 UV-I 48 W/m 15,8 C 17,5 C 3,2 km/h (1 Bft) 97,14 %
06.08.2019 06:46 17,5 C 23,3 C 17,8 C 91 % 1012,4 hPa 0,0 l/m 2,6 km/h (1 Bft) S-SW 193 0 min 0,000 mm 0,0 UV-I 52 W/m 16,0 C 17,5 C 6,4 km/h (2 Bft) 100,00 %
06.08.2019 06:48 17,5 C 23,3 C 17,8 C 91 % 1012,3 hPa 0,0 l/m 1,8 km/h (1 Bft) S-SW 193 0 min 0,000 mm 0,0 UV-I 53 W/m 16,0 C 17,5 C 4,8 km/h (1 Bft) 100,00 %
06.08.2019 06:50 17,5 C 23,3 C 17,8 C 91 % 1012,3 hPa 0,0 l/m 1,7 km/h (1 Bft) S-SW 193 0 min 0,000 mm 0,0 UV-I 54 W/m 16,0 C 17,5 C 3,2 km/h (1 Bft) 95,74 %
06.08.2019 06:52 17,5 C 23,3 C 17,8 C 91 % 1012,3 hPa 0,0 l/m 1,4 km/h (1 Bft) S-SW 193 0 min 0,000 mm 0,0 UV-I 56 W/m 16,0 C 17,5 C 3,2 km/h (1 Bft) 98,00 %
06.08.2019 06:54 17,5 C 23,3 C 18,3 C 91 % 1012,3 hPa 0,0 l/m 0,4 km/h (0 Bft) S-SW 193 0 min 0,000 mm 0,0 UV-I 59 W/m 16,0 C 17,5 C 1,6 km/h (1 Bft) 97,87 %
06.08.2019 06:56 17,5 C 23,3 C 18,3 C 91 % 1012,4 hPa 0,0 l/m 1,7 km/h (1 Bft) N-NW 348 0 min 0,000 mm 0,0 UV-I 63 W/m 16,0 C 17,5 C 4,8 km/h (1 Bft) 95,74 %
06.08.2019 06:58 17,5 C 23,3 C 18,3 C 91 % 1012,4 hPa 0,0 l/m 3,1 km/h (1 Bft) N-NW 348 0 min 0,000 mm 0,0 UV-I 67 W/m 16,0 C 17,5 C 4,8 km/h (1 Bft) 100,00 %
06.08.2019 07:00 17,5 C 23,3 C 18,3 C 91 % 1012,4 hPa 0,0 l/m 0,5 km/h (0 Bft) N-NW 348 0 min 0,025 mm 0,0 UV-I 71 W/m 16,0 C 17,5 C 3,2 km/h (1 Bft) 97,87 %
06.08.2019 07:02 17,6 C 23,3 C 18,3 C 91 % 1012,4 hPa 0,0 l/m 2,8 km/h (1 Bft) N-NW 348 0 min 0,000 mm 0,0 UV-I 76 W/m 16,1 C 17,6 C 3,2 km/h (1 Bft) 100,00 %
06.08.2019 07:04 17,6 C 23,3 C 18,9 C 91 % 1012,3 hPa 0,0 l/m 2,3 km/h (1 Bft) N-NW 348 0 min 0,000 mm 0,0 UV-I 81 W/m 16,1 C 17,6 C 4,8 km/h (1 Bft) 100,00 %
06.08.2019 07:06 17,7 C 23,3 C 18,9 C 91 % 1012,4 hPa 0,0 l/m 0,3 km/h (0 Bft) N-NW 348 0 min 0,000 mm 0,0 UV-I 85 W/m 16,2 C 17,7 C 1,6 km/h (1 Bft) 100,00 %
06.08.2019 07:08 17,8 C 23,3 C 18,9 C 91 % 1012,4 hPa 0,0 l/m 0,4 km/h (0 Bft) N-NW 348 0 min 0,000 mm 0,0 UV-I 88 W/m 16,3 C 17,8 C 1,6 km/h (1 Bft) 97,37 %
06.08.2019 07:10 17,8 C 23,3 C 18,9 C 90 % 1012,5 hPa 0,0 l/m 0,6 km/h (0 Bft) N-NW 348 0 min 0,000 mm 0,0 UV-I 90 W/m 16,1 C 17,8 C 1,6 km/h (1 Bft) 100,00 %
06.08.2019 07:12 17,8 C 23,3 C 19,4 C 90 % 1012,5 hPa 0,0 l/m 0,3 km/h (0 Bft) N-NW 348 0 min 0,000 mm 0,0 UV-I 92 W/m 16,1 C 17,8 C 1,6 km/h (1 Bft) 100,00 %
06.08.2019 07:14 17,8 C 23,3 C 19,4 C 90 % 1012,5 hPa 0,0 l/m 1,0 km/h (0 Bft) N-NW 348 0 min 0,000 mm 0,0 UV-I 95 W/m 16,1 C 17,8 C 3,2 km/h (1 Bft) 100,00 %
06.08.2019 07:16 17,9 C 23,3 C 19,4 C 90 % 1012,5 hPa 0,0 l/m 2,1 km/h (1 Bft) N-NW 348 0 min 0,000 mm 0,0 UV-I 98 W/m 16,2 C 17,9 C 3,2 km/h (1 Bft) 100,00 %
06.08.2019 07:18 18,0 C 23,3 C 19,4 C 90 % 1012,5 hPa 0,0 l/m 2,5 km/h (1 Bft) N-NW 348 0 min 0,000 mm 0,0 UV-I 101 W/m 16,3 C 18,0 C 3,2 km/h (1 Bft) 97,87 %
06.08.2019 07:20 18,0 C 23,3 C 19,4 C 90 % 1012,5 hPa 0,0 l/m 3,4 km/h (1 Bft) S-SO 161 0 min 0,000 mm 0,0 UV-I 101 W/m 16,3 C 18,0 C 6,4 km/h (2 Bft) 97,87 %
06.08.2019 07:22 18,0 C 23,3 C 19,4 C 90 % 1012,5 hPa 0,0 l/m 2,9 km/h (1 Bft) S-SO 153 0 min 0,000 mm 0,0 UV-I 89 W/m 16,3 C 18,0 C 6,4 km/h (2 Bft) 95,74 %
06.08.2019 07:24 18,1 C 23,3 C 20,0 C 90 % 1012,5 hPa 0,0 l/m 3,4 km/h (1 Bft) S-SO 153 0 min 0,000 mm 0,0 UV-I 77 W/m 16,4 C 18,1 C 4,8 km/h (1 Bft) 95,74 %
06.08.2019 07:26 18,2 C 23,3 C 20,0 C 90 % 1012,4 hPa 0,0 l/m 3,3 km/h (1 Bft) S-SO 153 0 min 0,000 mm 0,0 UV-I 78 W/m 16,5 C 18,2 C 4,8 km/h (1 Bft) 95,74 %
06.08.2019 07:28 18,2 C 23,3 C 20,0 C 90 % 1012,4 hPa 0,0 l/m 4,3 km/h (1 Bft) SO 138 0 min 0,000 mm 0,0 UV-I 85 W/m 16,5 C 18,2 C 6,4 km/h (2 Bft) 95,74 %
06.08.2019 07:30 18,3 C 23,3 C 20,0 C 90 % 1012,4 hPa 0,0 l/m 4,2 km/h (1 Bft) SO 139 0 min 0,000 mm 0,0 UV-I 89 W/m 16,6 C 18,3 C 4,8 km/h (1 Bft) 96,00 %
06.08.2019 07:32 18,4 C 23,3 C 20,0 C 89 % 1012,5 hPa 0,0 l/m 3,3 km/h (1 Bft) SO 140 0 min 0,000 mm 0,0 UV-I 87 W/m 16,6 C 18,4 C 6,4 km/h (2 Bft) 97,92 %
06.08.2019 07:34 18,5 C 23,3 C 20,6 C 88 % 1012,5 hPa 0,0 l/m 3,4 km/h (1 Bft) SO 144 0 min 0,000 mm 0,0 UV-I 86 W/m 16,5 C 18,5 C 6,4 km/h (2 Bft) 97,37 %
06.08.2019 07:36 18,6 C 23,3 C 20,6 C 88 % 1012,5 hPa 0,0 l/m 2,2 km/h (1 Bft) SO 144 0 min 0,000 mm 0,0 UV-I 89 W/m 16,6 C 18,6 C 4,8 km/h (1 Bft) 97,87 %
06.08.2019 07:38 18,6 C 23,3 C 20,6 C 88 % 1012,6 hPa 0,0 l/m 3,4 km/h (1 Bft) S-SO 166 0 min 0,000 mm 0,0 UV-I 90 W/m 16,6 C 18,6 C 8,0 km/h (2 Bft) 96,00 %
06.08.2019 07:40 18,7 C 23,3 C 20,6 C 87 % 1012,6 hPa 0,0 l/m 3,1 km/h (1 Bft) S 184 0 min 0,000 mm 0,0 UV-I 88 W/m 16,5 C 18,7 C 6,4 km/h (2 Bft) 97,87 %
06.08.2019 07:42 18,6 C 23,3 C 20,6 C 87 % 1012,6 hPa 0,0 l/m 3,7 km/h (1 Bft) S-SO 161 0 min 0,000 mm 0,0 UV-I 85 W/m 16,4 C 18,6 C 8,0 km/h (2 Bft) 97,87 %
06.08.2019 07:44 18,6 C 23,3 C 20,6 C 87 % 1012,7 hPa 0,0 l/m 5,3 km/h (1 Bft) S-SO 167 0 min 0,000 mm 0,0 UV-I 80 W/m 16,4 C 18,6 C 8,0 km/h (2 Bft) 100,00 %
06.08.2019 07:46 18,6 C 23,3 C 20,6 C 87 % 1012,7 hPa 0,0 l/m 3,8 km/h (1 Bft) S 173 0 min 0,000 mm 0,0 UV-I 78 W/m 16,4 C 18,6 C 4,8 km/h (1 Bft) 97,87 %
06.08.2019 07:48 18,6 C 23,3 C 20,0 C 87 % 1012,7 hPa 0,0 l/m 5,9 km/h (2 Bft) S-SO 152 0 min 0,000 mm 0,0 UV-I 84 W/m 16,4 C 18,6 C 8,0 km/h (2 Bft) 100,00 %
06.08.2019 07:50 18,6 C 23,3 C 20,6 C 87 % 1012,8 hPa 0,0 l/m 4,4 km/h (1 Bft) S-SO 162 0 min 0,000 mm 0,0 UV-I 95 W/m 16,4 C 18,6 C 8,0 km/h (2 Bft) 100,00 %
06.08.2019 07:52 18,7 C 23,3 C 20,6 C 87 % 1012,8 hPa 0,0 l/m 2,6 km/h (1 Bft) S-SO 165 0 min 0,000 mm 0,0 UV-I 104 W/m 16,5 C 18,7 C 6,4 km/h (2 Bft) 100,00 %
06.08.2019 07:54 18,7 C 23,3 C 20,6 C 87 % 1012,9 hPa 0,0 l/m 4,2 km/h (1 Bft) S 178 0 min 0,000 mm 0,0 UV-I 107 W/m 16,5 C 18,7 C 6,4 km/h (2 Bft) 100,00 %
06.08.2019 07:56 18,8 C 23,3 C 20,6 C 86 % 1012,9 hPa 0,0 l/m 2,3 km/h (1 Bft) S 178 0 min 0,000 mm 0,0 UV-I 111 W/m 16,4 C 18,8 C 3,2 km/h (1 Bft) 97,87 %
06.08.2019 07:58 18,8 C 23,3 C 21,1 C 86 % 1012,9 hPa 0,0 l/m 1,3 km/h (1 Bft) S 178 0 min 0,000 mm 0,0 UV-I 116 W/m 16,4 C 18,8 C 3,2 km/h (1 Bft) 100,00 %
06.08.2019 08:00 19,0 C 23,3 C 21,1 C 86 % 1013,0 hPa 0,0 l/m 0,0 km/h (0 Bft) S 178 0 min 0,051 mm 0,0 UV-I 122 W/m 16,6 C 19,0 C 0,0 km/h (0 Bft) 100,00 %
06.08.2019 08:02 19,1 C 23,3 C 21,1 C 86 % 1013,0 hPa 0,0 l/m 0,2 km/h (0 Bft) S 178 0 min 0,000 mm 0,0 UV-I 130 W/m 16,7 C 19,1 C 1,6 km/h (1 Bft) 100,00 %
06.08.2019 08:04 19,2 C 23,3 C 21,7 C 86 % 1013,0 hPa 0,0 l/m 1,1 km/h (1 Bft) S 178 0 min 0,000 mm 0,2 UV-I 138 W/m 16,8 C 19,2 C 1,6 km/h (1 Bft) 96,00 %
06.08.2019 08:06 19,2 C 23,3 C 21,7 C 85 % 1013,0 hPa 0,0 l/m 1,6 km/h (1 Bft) S 178 0 min 0,000 mm 0,5 UV-I 145 W/m 16,6 C 19,2 C 3,2 km/h (1 Bft) 100,00 %
06.08.2019 08:08 19,3 C 23,3 C 21,7 C 84 % 1013,0 hPa 0,0 l/m 3,8 km/h (1 Bft) S-SO 157 0 min 0,000 mm 0,5 UV-I 153 W/m 16,5 C 19,3 C 8,0 km/h (2 Bft) 97,44 %
06.08.2019 08:10 19,3 C 23,3 C 22,2 C 84 % 1013,0 hPa 0,0 l/m 4,7 km/h (1 Bft) S-SO 165 0 min 0,000 mm 0,5 UV-I 162 W/m 16,5 C 19,3 C 8,0 km/h (2 Bft) 97,87 %
06.08.2019 08:12 19,4 C 23,3 C 22,2 C 84 % 1013,1 hPa 0,0 l/m 4,4 km/h (1 Bft) S-SO 164 0 min 0,000 mm 0,6 UV-I 177 W/m 16,6 C 19,4 C 8,0 km/h (2 Bft) 95,74 %
06.08.2019 08:14 19,4 C 23,3 C 22,2 C 84 % 1013,1 hPa 0,0 l/m 4,8 km/h (1 Bft) S-SO 156 0 min 0,000 mm 0,6 UV-I 177 W/m 16,6 C 19,4 C 8,0 km/h (2 Bft) 95,74 %
06.08.2019 08:16 19,4 C 23,3 C 22,2 C 84 % 1013,2 hPa 0,0 l/m 5,7 km/h (1 Bft) SO 140 0 min 0,000 mm 0,6 UV-I 189 W/m 16,6 C 19,4 C 9,7 km/h (2 Bft) 95,74 %
06.08.2019 08:18 19,5 C 23,3 C 22,2 C 84 % 1013,2 hPa 0,0 l/m 3,7 km/h (1 Bft) S 182 0 min 0,000 mm 0,6 UV-I 181 W/m 16,7 C 19,5 C 6,4 km/h (2 Bft) 98,00 %
06.08.2019 08:20 19,6 C 23,3 C 22,2 C 83 % 1013,3 hPa 0,0 l/m 3,2 km/h (1 Bft) S 186 0 min 0,000 mm 0,6 UV-I 172 W/m 16,6 C 19,6 C 4,8 km/h (1 Bft) 97,87 %
06.08.2019 08:22 19,6 C 23,3 C 22,8 C 82 % 1013,3 hPa 0,0 l/m 4,2 km/h (1 Bft) S-SW 194 0 min 0,000 mm 0,6 UV-I 174 W/m 16,4 C 19,6 C 8,0 km/h (2 Bft) 97,87 %
06.08.2019 08:24 19,7 C 23,3 C 22,8 C 83 % 1013,3 hPa 0,0 l/m 2,7 km/h (1 Bft) S-SO 163 0 min 0,000 mm 0,6 UV-I 176 W/m 16,7 C 19,7 C 6,4 km/h (2 Bft) 97,87 %
06.08.2019 08:26 19,7 C 23,3 C 22,8 C 82 % 1013,3 hPa 0,0 l/m 3,9 km/h (1 Bft) S-SW 203 0 min 0,000 mm 0,6 UV-I 176 W/m 16,5 C 19,7 C 6,4 km/h (2 Bft) 97,87 %
06.08.2019 08:28 19,8 C 23,3 C 23,3 C 83 % 1013,3 hPa 0,0 l/m 1,0 km/h (0 Bft) S-SW 203 0 min 0,000 mm 0,6 UV-I 171 W/m 16,8 C 19,8 C 3,2 km/h (1 Bft) 95,74 %
06.08.2019 08:30 19,9 C 23,3 C 23,3 C 82 % 1013,3 hPa 0,0 l/m 1,0 km/h (0 Bft) S-SW 203 0 min 0,000 mm 0,6 UV-I 171 W/m 16,7 C 19,9 C 1,6 km/h (1 Bft) 92,00 %
06.08.2019 08:32 19,9 C 23,3 C 23,3 C 82 % 1013,2 hPa 0,0 l/m 1,8 km/h (1 Bft) S-SW 202 0 min 0,000 mm 0,6 UV-I 165 W/m 16,7 C 19,9 C 3,2 km/h (1 Bft) 100,00 %
06.08.2019 08:34 20,0 C 23,3 C 23,3 C 81 % 1013,2 hPa 0,0 l/m 3,5 km/h (1 Bft) S 178 0 min 0,000 mm 0,6 UV-I 173 W/m 16,6 C 20,0 C 4,8 km/h (1 Bft) 93,62 %
06.08.2019 08:36 20,1 C 23,3 C 23,3 C 81 % 1013,2 hPa 0,0 l/m 2,9 km/h (1 Bft) S 180 0 min 0,000 mm 0,7 UV-I 195 W/m 16,7 C 20,1 C 4,8 km/h (1 Bft) 98,00 %
06.08.2019 08:38 20,1 C 23,3 C 23,9 C 81 % 1013,2 hPa 0,0 l/m 3,5 km/h (1 Bft) S 190 0 min 0,000 mm 0,8 UV-I 203 W/m 16,7 C 20,1 C 6,4 km/h (2 Bft) 97,87 %
06.08.2019 08:40 20,1 C 23,3 C 23,9 C 81 % 1013,3 hPa 0,0 l/m 4,5 km/h (1 Bft) S-SW 203 0 min 0,000 mm 0,8 UV-I 206 W/m 16,7 C 20,1 C 6,4 km/h (2 Bft) 97,87 %
06.08.2019 08:42 20,2 C 23,3 C 23,9 C 82 % 1013,2 hPa 0,0 l/m 5,6 km/h (1 Bft) S 179 0 min 0,000 mm 0,8 UV-I 215 W/m 17,0 C 20,2 C 8,0 km/h (2 Bft) 98,11 %
06.08.2019 08:44 20,2 C 23,3 C 23,9 C 81 % 1013,3 hPa 0,0 l/m 6,3 km/h (2 Bft) S 188 0 min 0,000 mm 0,9 UV-I 226 W/m 16,8 C 20,2 C 8,0 km/h (2 Bft) 100,00 %
06.08.2019 08:46 20,2 C 23,3 C 23,9 C 81 % 1013,2 hPa 0,0 l/m 4,9 km/h (1 Bft) S 182 0 min 0,000 mm 0,9 UV-I 232 W/m 16,8 C 20,2 C 8,0 km/h (2 Bft) 93,62 %
06.08.2019 08:48 20,3 C 23,3 C 23,9 C 81 % 1013,3 hPa 0,0 l/m 3,5 km/h (1 Bft) S-SW 205 0 min 0,000 mm 0,8 UV-I 231 W/m 16,9 C 20,3 C 6,4 km/h (2 Bft) 97,87 %
06.08.2019 08:50 20,3 C 23,3 C 23,9 C 81 % 1013,3 hPa 0,0 l/m 3,5 km/h (1 Bft) S-SW 211 0 min 0,000 mm 0,8 UV-I 221 W/m 16,9 C 20,3 C 6,4 km/h (2 Bft) 96,00 %
06.08.2019 08:52 20,4 C 23,3 C 23,9 C 81 % 1013,3 hPa 0,0 l/m 4,6 km/h (1 Bft) SW 228 0 min 0,000 mm 0,7 UV-I 199 W/m 17,0 C 20,4 C 6,4 km/h (2 Bft) 93,62 %
06.08.2019 08:54 20,4 C 23,3 C 23,9 C 81 % 1013,4 hPa 0,0 l/m 3,7 km/h (1 Bft) SW 228 0 min 0,000 mm 0,7 UV-I 191 W/m 17,0 C 20,4 C 6,4 km/h (2 Bft) 95,74 %
06.08.2019 08:56 20,4 C 23,3 C 23,9 C 81 % 1013,4 hPa 0,0 l/m 3,3 km/h (1 Bft) SW 229 0 min 0,000 mm 0,8 UV-I 194 W/m 17,0 C 20,4 C 4,8 km/h (1 Bft) 97,87 %
06.08.2019 08:58 20,4 C 23,3 C 23,9 C 81 % 1013,4 hPa 0,0 l/m 4,2 km/h (1 Bft) SW 215 0 min 0,000 mm 0,8 UV-I 198 W/m 17,0 C 20,4 C 6,4 km/h (2 Bft) 97,87 %
06.08.2019 09:00 20,4 C 23,3 C 23,9 C 81 % 1013,4 hPa 0,0 l/m 3,6 km/h (1 Bft) SW 217 0 min 0,127 mm 0,8 UV-I 200 W/m 17,0 C 20,4 C 4,8 km/h (1 Bft) 97,87 %
06.08.2019 09:02 20,4 C 23,3 C 23,9 C 81 % 1013,5 hPa 0,0 l/m 2,6 km/h (1 Bft) SW 219 0 min 0,000 mm 0,8 UV-I 197 W/m 17,0 C 20,4 C 4,8 km/h (1 Bft) 97,87 %
06.08.2019 09:04 20,4 C 23,3 C 23,9 C 81 % 1013,4 hPa 0,0 l/m 2,8 km/h (1 Bft) SW 219 0 min 0,000 mm 0,7 UV-I 173 W/m 17,0 C 20,4 C 4,8 km/h (1 Bft) 98,00 %
06.08.2019 09:06 20,5 C 23,3 C 23,9 C 81 % 1013,4 hPa 0,0 l/m 3,1 km/h (1 Bft) SW 219 0 min 0,000 mm 0,6 UV-I 144 W/m 17,1 C 20,5 C 4,8 km/h (1 Bft) 97,14 %
06.08.2019 09:08 20,4 C 23,3 C 23,3 C 81 % 1013,4 hPa 0,0 l/m 2,8 km/h (1 Bft) S 190 0 min 0,000 mm 0,5 UV-I 124 W/m 17,0 C 20,4 C 4,8 km/h (1 Bft) 96,00 %
06.08.2019 09:10 20,5 C 23,3 C 23,3 C 81 % 1013,4 hPa 0,0 l/m 3,3 km/h (1 Bft) S-SW 206 0 min 0,000 mm 0,5 UV-I 116 W/m 17,1 C 20,5 C 6,4 km/h (2 Bft) 97,87 %
06.08.2019 09:12 20,4 C 23,3 C 23,3 C 80 % 1013,3 hPa 0,0 l/m 4,9 km/h (1 Bft) S-SW 205 0 min 0,000 mm 0,5 UV-I 112 W/m 16,8 C 20,4 C 6,4 km/h (2 Bft) 97,87 %
06.08.2019 09:14 20,4 C 23,3 C 22,8 C 81 % 1013,4 hPa 0,0 l/m 2,6 km/h (1 Bft) W-SW 254 0 min 0,000 mm 0,5 UV-I 105 W/m 17,0 C 20,4 C 4,8 km/h (1 Bft) 98,00 %
06.08.2019 09:16 20,5 C 23,3 C 22,8 C 81 % 1013,4 hPa 0,0 l/m 2,6 km/h (1 Bft) W-SW 249 0 min 0,000 mm 0,5 UV-I 112 W/m 17,1 C 20,5 C 4,8 km/h (1 Bft) 100,00 %
06.08.2019 09:18 20,6 C 23,3 C 22,8 C 81 % 1013,4 hPa 0,0 l/m 3,4 km/h (1 Bft) SW 215 0 min 0,000 mm 0,5 UV-I 108 W/m 17,2 C 20,6 C 6,4 km/h (2 Bft) 100,00 %
06.08.2019 09:20 20,5 C 23,3 C 22,8 C 81 % 1013,3 hPa 0,0 l/m 3,5 km/h (1 Bft) SW 221 0 min 0,000 mm 0,5 UV-I 102 W/m 17,1 C 20,5 C 6,4 km/h (2 Bft) 100,00 %
06.08.2019 09:22 20,6 C 23,3 C 22,8 C 80 % 1013,3 hPa 0,0 l/m 3,5 km/h (1 Bft) SW 221 0 min 0,000 mm 0,5 UV-I 112 W/m 17,0 C 20,6 C 4,8 km/h (1 Bft) 100,00 %
06.08.2019 09:24 20,6 C 23,3 C 22,8 C 80 % 1013,3 hPa 0,0 l/m 2,9 km/h (1 Bft) SW 222 0 min 0,000 mm 0,5 UV-I 114 W/m 17,0 C 20,6 C 4,8 km/h (1 Bft) 95,74 %
06.08.2019 09:26 20,6 C 23,3 C 22,8 C 80 % 1013,4 hPa 0,0 l/m 2,5 km/h (1 Bft) SW 222 0 min 0,000 mm 0,5 UV-I 104 W/m 17,0 C 20,6 C 4,8 km/h (1 Bft) 98,00 %
06.08.2019 09:28 20,6 C 23,3 C 22,2 C 80 % 1013,4 hPa 0,0 l/m 2,0 km/h (1 Bft) SW 222 0 min 0,000 mm 0,0 UV-I 91 W/m 17,0 C 20,6 C 3,2 km/h (1 Bft) 93,62 %
06.08.2019 09:30 20,6 C 23,3 C 22,2 C 80 % 1013,4 hPa 0,0 l/m 1,4 km/h (1 Bft) SW 222 0 min 0,000 mm 0,0 UV-I 88 W/m 17,0 C 20,6 C 3,2 km/h (1 Bft) 95,74 %
06.08.2019 09:32 20,6 C 23,3 C 22,2 C 79 % 1013,4 hPa 0,0 l/m 1,2 km/h (1 Bft) SW 222 0 min 0,000 mm 0,0 UV-I 88 W/m 16,8 C 20,6 C 1,6 km/h (1 Bft) 95,74 %
06.08.2019 09:34 20,6 C 23,3 C 22,2 C 79 % 1013,3 hPa 0,0 l/m 1,1 km/h (1 Bft) SW 222 0 min 0,000 mm 0,5 UV-I 97 W/m 16,8 C 20,6 C 1,6 km/h (1 Bft) 97,37 %
06.08.2019 09:36 20,6 C 23,3 C 22,8 C 79 % 1013,3 hPa 0,0 l/m 0,9 km/h (0 Bft) SW 222 0 min 0,000 mm 0,6 UV-I 119 W/m 16,8 C 20,6 C 1,6 km/h (1 Bft) 97,87 %
06.08.2019 09:38 20,6 C 23,3 C 22,8 C 80 % 1013,3 hPa 0,0 l/m 0,0 km/h (0 Bft) SW 222 0 min 0,000 mm 0,7 UV-I 133 W/m 17,0 C 20,6 C 0,0 km/h (0 Bft) 97,87 %
06.08.2019 09:40 20,6 C 23,3 C 22,8 C 79 % 1013,3 hPa 0,0 l/m 0,2 km/h (0 Bft) SW 222 0 min 0,000 mm 0,7 UV-I 141 W/m 16,8 C 20,6 C 1,6 km/h (1 Bft) 95,74 %
06.08.2019 09:42 20,7 C 23,3 C 23,3 C 79 % 1013,2 hPa 0,0 l/m 0,0 km/h (0 Bft) SW 222 0 min 0,000 mm 0,8 UV-I 152 W/m 16,9 C 20,7 C 1,6 km/h (1 Bft) 95,74 %
06.08.2019 09:44 20,7 C 23,3 C 23,3 C 79 % 1013,3 hPa 0,0 l/m 0,0 km/h (0 Bft) SW 222 0 min 0,000 mm 0,8 UV-I 149 W/m 16,9 C 20,7 C 0,0 km/h (0 Bft) 95,74 %
06.08.2019 09:46 20,7 C 23,3 C 23,3 C 80 % 1013,3 hPa 0,0 l/m 2,1 km/h (1 Bft) SW 222 0 min 0,000 mm 0,7 UV-I 134 W/m 17,1 C 20,7 C 3,2 km/h (1 Bft) 95,74 %
06.08.2019 09:48 20,7 C 23,3 C 23,3 C 79 % 1013,4 hPa 0,0 l/m 1,2 km/h (1 Bft) SW 222 0 min 0,000 mm 0,6 UV-I 118 W/m 16,9 C 20,7 C 3,2 km/h (1 Bft) 96,00 %
06.08.2019 09:50 20,7 C 23,3 C 22,8 C 80 % 1013,5 hPa 0,0 l/m 1,3 km/h (1 Bft) SW 222 0 min 0,000 mm 0,5 UV-I 105 W/m 17,1 C 20,7 C 3,2 km/h (1 Bft) 97,87 %
06.08.2019 09:52 20,8 C 23,3 C 22,8 C 80 % 1013,4 hPa 0,0 l/m 2,5 km/h (1 Bft) SW 222 0 min 0,000 mm 0,6 UV-I 105 W/m 17,2 C 20,8 C 3,2 km/h (1 Bft) 95,74 %
06.08.2019 09:54 20,7 C 23,3 C 22,8 C 81 % 1013,5 hPa 0,0 l/m 2,7 km/h (1 Bft) SW 223 0 min 0,000 mm 0,6 UV-I 109 W/m 17,3 C 20,7 C 4,8 km/h (1 Bft) 96,00 %
06.08.2019 09:56 20,7 C 23,3 C 22,8 C 80 % 1013,4 hPa 0,0 l/m 1,7 km/h (1 Bft) SW 223 0 min 0,000 mm 0,7 UV-I 135 W/m 17,1 C 20,7 C 3,2 km/h (1 Bft) 97,44 %
06.08.2019 09:58 20,8 C 23,3 C 23,3 C 80 % 1013,5 hPa 0,0 l/m 0,9 km/h (0 Bft) SW 223 0 min 0,000 mm 1,0 UV-I 181 W/m 17,2 C 20,8 C 1,6 km/h (1 Bft) 95,74 %
06.08.2019 10:00 20,8 C 23,3 C 23,9 C 81 % 1013,4 hPa 0,0 l/m 0,4 km/h (0 Bft) SW 223 0 min 0,076 mm 1,1 UV-I 205 W/m 17,4 C 20,8 C 1,6 km/h (1 Bft) 97,87 %
06.08.2019 10:02 21,0 C 23,3 C 23,9 C 81 % 1013,4 hPa 0,0 l/m 3,0 km/h (1 Bft) N 355 0 min 0,000 mm 1,1 UV-I 209 W/m 17,6 C 21,0 C 4,8 km/h (1 Bft) 96,23 %
06.08.2019 10:04 21,0 C 23,3 C 24,4 C 81 % 1013,4 hPa 0,0 l/m 3,9 km/h (1 Bft) N 355 0 min 0,000 mm 1,1 UV-I 204 W/m 17,6 C 21,0 C 4,8 km/h (1 Bft) 97,87 %
06.08.2019 10:06 21,1 C 23,3 C 23,9 C 81 % 1013,5 hPa 0,0 l/m 3,5 km/h (1 Bft) N 351 0 min 0,000 mm 1,1 UV-I 201 W/m 17,7 C 21,1 C 6,4 km/h (2 Bft) 95,74 %
06.08.2019 10:08 21,1 C 23,3 C 24,4 C 80 % 1013,4 hPa 0,0 l/m 4,1 km/h (1 Bft) N 5 0 min 0,000 mm 1,2 UV-I 213 W/m 17,5 C 21,1 C 6,4 km/h (2 Bft) 93,62 %
06.08.2019 10:10 21,1 C 23,3 C 24,4 C 81 % 1013,5 hPa 0,0 l/m 4,4 km/h (1 Bft) N 5 0 min 0,000 mm 1,3 UV-I 235 W/m 17,7 C 21,1 C 6,4 km/h (2 Bft) 95,74 %
06.08.2019 10:12 21,1 C 23,3 C 25,0 C 79 % 1013,5 hPa 0,0 l/m 3,7 km/h (1 Bft) NW 315 0 min 0,000 mm 1,4 UV-I 250 W/m 17,3 C 21,1 C 6,4 km/h (2 Bft) 91,49 %
06.08.2019 10:14 21,1 C 23,3 C 25,0 C 79 % 1013,6 hPa 0,0 l/m 3,1 km/h (1 Bft) NW 313 0 min 0,000 mm 1,4 UV-I 256 W/m 17,3 C 21,1 C 4,8 km/h (1 Bft) 93,62 %
06.08.2019 10:16 21,1 C 23,3 C 25,6 C 78 % 1013,6 hPa 0,0 l/m 2,3 km/h (1 Bft) N 355 0 min 0,000 mm 1,5 UV-I 264 W/m 17,1 C 21,1 C 4,8 km/h (1 Bft) 97,87 %
06.08.2019 10:18 21,2 C 23,3 C 25,6 C 78 % 1013,5 hPa 0,0 l/m 4,6 km/h (1 Bft) N-NO 14 0 min 0,000 mm 1,6 UV-I 283 W/m 17,2 C 21,2 C 6,4 km/h (2 Bft) 91,49 %
06.08.2019 10:20 21,2 C 23,3 C 26,1 C 78 % 1013,5 hPa 0,0 l/m 2,6 km/h (1 Bft) N-NW 327 0 min 0,000 mm 1,7 UV-I 315 W/m 17,2 C 21,2 C 4,8 km/h (1 Bft) 93,62 %
06.08.2019 10:22 21,3 C 23,3 C 26,7 C 78 % 1013,5 hPa 0,0 l/m 1,9 km/h (1 Bft) N-NW 327 0 min 0,000 mm 1,8 UV-I 339 W/m 17,3 C 21,3 C 3,2 km/h (1 Bft) 93,62 %
06.08.2019 10:24 21,3 C 23,3 C 27,2 C 78 % 1013,5 hPa 0,0 l/m 1,5 km/h (1 Bft) N-NW 327 0 min 0,000 mm 1,7 UV-I 322 W/m 17,3 C 21,3 C 3,2 km/h (1 Bft) 93,62 %
06.08.2019 10:26 21,4 C 23,3 C 27,2 C 77 % 1013,5 hPa 0,0 l/m 3,1 km/h (1 Bft) N 5 0 min 0,000 mm 1,6 UV-I 299 W/m 17,2 C 21,4 C 6,4 km/h (2 Bft) 95,74 %
06.08.2019 10:28 21,4 C 23,3 C 27,2 C 77 % 1013,5 hPa 0,0 l/m 4,3 km/h (1 Bft) N 5 0 min 0,000 mm 1,5 UV-I 259 W/m 17,2 C 21,4 C 6,4 km/h (2 Bft) 93,62 %
06.08.2019 10:30 21,4 C 23,3 C 26,7 C 77 % 1013,5 hPa 0,0 l/m 4,3 km/h (1 Bft) N 5 0 min 0,000 mm 1,5 UV-I 264 W/m 17,2 C 21,4 C 4,8 km/h (1 Bft) 91,49 %
06.08.2019 10:32 21,3 C 23,3 C 26,1 C 77 % 1013,5 hPa 0,0 l/m 4,0 km/h (1 Bft) N 351 0 min 0,000 mm 1,5 UV-I 265 W/m 17,1 C 21,3 C 6,4 km/h (2 Bft) 92,68 %
06.08.2019 10:34 21,3 C 23,3 C 26,1 C 76 % 1013,5 hPa 0,0 l/m 3,1 km/h (1 Bft) N 351 0 min 0,000 mm 1,5 UV-I 259 W/m 16,9 C 21,3 C 4,8 km/h (1 Bft) 93,62 %
06.08.2019 10:36 21,3 C 23,3 C 26,1 C 77 % 1013,5 hPa 0,0 l/m 2,9 km/h (1 Bft) N 355 0 min 0,000 mm 1,5 UV-I 258 W/m 17,1 C 21,3 C 4,8 km/h (1 Bft) 93,62 %
06.08.2019 10:38 21,3 C 23,3 C 26,1 C 78 % 1013,5 hPa 0,0 l/m 4,0 km/h (1 Bft) N-NW 348 0 min 0,000 mm 1,5 UV-I 254 W/m 17,3 C 21,3 C 6,4 km/h (2 Bft) 98,00 %
06.08.2019 10:40 21,3 C 23,3 C 26,1 C 76 % 1013,5 hPa 0,0 l/m 2,9 km/h (1 Bft) N 349 0 min 0,000 mm 1,5 UV-I 253 W/m 16,9 C 21,3 C 4,8 km/h (1 Bft) 95,83 %
06.08.2019 10:42 21,3 C 23,3 C 26,1 C 77 % 1013,5 hPa 0,0 l/m 1,7 km/h (1 Bft) N 349 0 min 0,000 mm 1,7 UV-I 276 W/m 17,1 C 21,3 C 3,2 km/h (1 Bft) 100,00 %
06.08.2019 10:44 21,3 C 23,3 C 26,1 C 78 % 1013,5 hPa 0,0 l/m 3,2 km/h (1 Bft) N-NO 15 0 min 0,000 mm 1,8 UV-I 305 W/m 17,3 C 21,3 C 4,8 km/h (1 Bft) 97,87 %
06.08.2019 10:46 21,4 C 23,3 C 26,7 C 77 % 1013,5 hPa 0,0 l/m 2,8 km/h (1 Bft) N-NO 16 0 min 0,000 mm 2,0 UV-I 325 W/m 17,2 C 21,4 C 4,8 km/h (1 Bft) 100,00 %
06.08.2019 10:48 21,4 C 23,3 C 26,7 C 77 % 1013,4 hPa 0,0 l/m 2,0 km/h (1 Bft) N-NO 17 0 min 0,000 mm 2,1 UV-I 338 W/m 17,2 C 21,4 C 4,8 km/h (1 Bft) 100,00 %
06.08.2019 10:50 21,5 C 23,3 C 27,2 C 78 % 1013,4 hPa 0,0 l/m 3,5 km/h (1 Bft) N-NO 26 0 min 0,000 mm 2,2 UV-I 354 W/m 17,5 C 21,5 C 4,8 km/h (1 Bft) 98,00 %
06.08.2019 10:52 21,6 C 23,3 C 27,2 C 78 % 1013,4 hPa 0,0 l/m 4,6 km/h (1 Bft) N-NO 27 0 min 0,000 mm 2,3 UV-I 373 W/m 17,6 C 21,6 C 6,4 km/h (2 Bft) 97,87 %
06.08.2019 10:54 21,7 C 23,3 C 27,2 C 76 % 1013,4 hPa 0,0 l/m 3,0 km/h (1 Bft) N-NO 32 0 min 0,000 mm 2,4 UV-I 386 W/m 17,3 C 21,7 C 4,8 km/h (1 Bft) 100,00 %
06.08.2019 10:56 21,7 C 23,3 C 27,8 C 76 % 1013,4 hPa 0,0 l/m 0,7 km/h (0 Bft) N-NO 32 2 min 0,000 mm 2,5 UV-I 406 W/m 17,3 C 21,7 C 1,6 km/h (1 Bft) 95,74 %
06.08.2019 10:58 21,8 C 23,3 C 28,9 C 77 % 1013,4 hPa 0,0 l/m 2,1 km/h (1 Bft) N-NO 32 2 min 0,000 mm 2,6 UV-I 429 W/m 17,6 C 21,8 C 4,8 km/h (1 Bft) 97,87 %
06.08.2019 11:00 22,0 C 23,3 C 29,4 C 77 % 1013,4 hPa 0,0 l/m 3,8 km/h (1 Bft) NO 43 2 min 0,178 mm 2,6 UV-I 440 W/m 17,8 C 22,0 C 6,4 km/h (2 Bft) 100,00 %
06.08.2019 11:02 22,1 C 23,3 C 29,4 C 76 % 1013,4 hPa 0,0 l/m 4,4 km/h (1 Bft) NO 44 2 min 0,000 mm 2,7 UV-I 439 W/m 17,7 C 22,1 C 6,4 km/h (2 Bft) 100,00 %
06.08.2019 11:04 22,1 C 23,3 C 29,4 C 76 % 1013,4 hPa 0,0 l/m 3,5 km/h (1 Bft) NO 47 2 min 0,000 mm 2,8 UV-I 464 W/m 17,7 C 22,1 C 6,4 km/h (2 Bft) 100,00 %
06.08.2019 11:06 22,1 C 23,3 C 30,0 C 75 % 1013,4 hPa 0,0 l/m 3,1 km/h (1 Bft) NO 46 2 min 0,000 mm 3,0 UV-I 508 W/m 17,5 C 22,1 C 4,8 km/h (1 Bft) 97,37 %
06.08.2019 11:08 22,1 C 23,3 C 30,6 C 75 % 1013,4 hPa 0,0 l/m 3,5 km/h (1 Bft) N-NO 26 2 min 0,000 mm 3,2 UV-I 543 W/m 17,5 C 22,1 C 6,4 km/h (2 Bft) 100,00 %
06.08.2019 11:10 22,2 C 23,3 C 31,7 C 75 % 1013,3 hPa 0,0 l/m 3,0 km/h (1 Bft) N-NO 26 2 min 0,000 mm 3,3 UV-I 567 W/m 17,5 C 22,2 C 4,8 km/h (1 Bft) 100,00 %
06.08.2019 11:12 22,2 C 23,3 C 32,2 C 73 % 1013,3 hPa 0,0 l/m 0,9 km/h (0 Bft) N-NO 26 2 min 0,000 mm 3,2 UV-I 560 W/m 17,1 C 22,2 C 1,6 km/h (1 Bft) 100,00 %
06.08.2019 11:14 22,1 C 23,3 C 32,8 C 73 % 1013,3 hPa 0,0 l/m 2,9 km/h (1 Bft) S 188 2 min 0,000 mm 3,2 UV-I 553 W/m 17,0 C 22,1 C 4,8 km/h (1 Bft) 97,92 %
06.08.2019 11:16 22,1 C 23,3 C 32,8 C 74 % 1013,2 hPa 0,0 l/m 1,6 km/h (1 Bft) S 188 2 min 0,000 mm 3,1 UV-I 549 W/m 17,2 C 22,1 C 3,2 km/h (1 Bft) 97,87 %
06.08.2019 11:18 22,2 C 23,3 C 32,8 C 74 % 1013,1 hPa 0,0 l/m 2,3 km/h (1 Bft) S 185 2 min 0,000 mm 2,9 UV-I 478 W/m 17,3 C 22,2 C 4,8 km/h (1 Bft) 100,00 %
06.08.2019 11:20 22,3 C 23,3 C 32,2 C 74 % 1013,1 hPa 0,0 l/m 5,7 km/h (1 Bft) SO 136 2 min 0,000 mm 2,8 UV-I 468 W/m 17,4 C 22,3 C 8,0 km/h (2 Bft) 100,00 %
06.08.2019 11:22 22,6 C 23,3 C 32,2 C 73 % 1013,0 hPa 0,0 l/m 5,2 km/h (1 Bft) SO 128 2 min 0,000 mm 2,7 UV-I 461 W/m 17,5 C 22,6 C 8,0 km/h (2 Bft) 98,00 %
06.08.2019 11:24 22,6 C 23,3 C 31,7 C 72 % 1013,0 hPa 0,0 l/m 4,4 km/h (1 Bft) S-SO 155 2 min 0,000 mm 2,7 UV-I 456 W/m 17,3 C 22,6 C 8,0 km/h (2 Bft) 97,87 %
06.08.2019 11:26 22,6 C 23,3 C 31,7 C 72 % 1013,1 hPa 0,0 l/m 1,7 km/h (1 Bft) W-SW 249 0 min 0,000 mm 2,5 UV-I 416 W/m 17,3 C 22,6 C 4,8 km/h (1 Bft) 100,00 %
06.08.2019 11:28 22,7 C 23,3 C 31,1 C 71 % 1013,2 hPa 0,0 l/m 3,5 km/h (1 Bft) W-SW 249 0 min 0,000 mm 2,3 UV-I 384 W/m 17,2 C 22,7 C 4,8 km/h (1 Bft) 100,00 %
06.08.2019 11:30 22,8 C 23,3 C 30,6 C 72 % 1013,1 hPa 0,0 l/m 2,0 km/h (1 Bft) W-SW 249 0 min 0,000 mm 2,2 UV-I 362 W/m 17,5 C 22,8 C 4,8 km/h (1 Bft) 97,87 %
06.08.2019 11:32 22,8 C 23,3 C 30,0 C 72 % 1013,1 hPa 0,0 l/m 3,9 km/h (1 Bft) N-NW 328 0 min 0,000 mm 2,2 UV-I 346 W/m 17,5 C 22,8 C 6,4 km/h (2 Bft) 100,00 %
06.08.2019 11:34 22,8 C 23,3 C 29,4 C 71 % 1013,1 hPa 0,0 l/m 2,5 km/h (1 Bft) N-NW 328 0 min 0,000 mm 2,2 UV-I 348 W/m 17,3 C 22,8 C 4,8 km/h (1 Bft) 100,00 %
06.08.2019 11:36 22,7 C 23,3 C 29,4 C 71 % 1013,1 hPa 0,0 l/m 1,8 km/h (1 Bft) N-NW 329 0 min 0,000 mm 2,3 UV-I 358 W/m 17,2 C 22,7 C 3,2 km/h (1 Bft) 95,74 %
06.08.2019 11:38 22,7 C 23,3 C 29,4 C 71 % 1013,1 hPa 0,0 l/m 1,0 km/h (0 Bft) N-NW 329 0 min 0,000 mm 2,3 UV-I 358 W/m 17,2 C 22,7 C 3,2 km/h (1 Bft) 97,87 %
06.08.2019 11:40 22,8 C 23,3 C 29,4 C 70 % 1013,1 hPa 0,0 l/m 0,7 km/h (0 Bft) N-NW 329 0 min 0,000 mm 2,4 UV-I 357 W/m 17,0 C 22,8 C 3,2 km/h (1 Bft) 100,00 %
06.08.2019 11:42 22,8 C 23,3 C 29,4 C 72 % 1013,1 hPa 0,0 l/m 2,3 km/h (1 Bft) N-NW 329 0 min 0,000 mm 2,5 UV-I 365 W/m 17,5 C 22,8 C 3,2 km/h (1 Bft) 100,00 %
06.08.2019 11:44 22,9 C 23,3 C 29,4 C 72 % 1013,0 hPa 0,0 l/m 2,1 km/h (1 Bft) N-NW 329 0 min 0,000 mm 2,7 UV-I 397 W/m 17,6 C 22,9 C 4,8 km/h (1 Bft) 100,00 %
06.08.2019 11:46 23,0 C 23,3 C 30,0 C 71 % 1013,1 hPa 0,0 l/m 2,4 km/h (1 Bft) N-NW 329 2 min 0,000 mm 3,0 UV-I 464 W/m 17,4 C 23,0 C 4,8 km/h (1 Bft) 100,00 %
06.08.2019 11:48 23,1 C 23,3 C 30,6 C 71 % 1013,1 hPa 0,0 l/m 2,9 km/h (1 Bft) N-NW 329 2 min 0,000 mm 3,2 UV-I 505 W/m 17,5 C 23,1 C 4,8 km/h (1 Bft) 95,74 %
06.08.2019 11:50 23,1 C 23,9 C 31,1 C 71 % 1013,0 hPa 0,0 l/m 3,2 km/h (1 Bft) N-NW 337 2 min 0,000 mm 3,4 UV-I 520 W/m 17,5 C 23,1 C 4,8 km/h (1 Bft) 97,87 %
06.08.2019 11:52 23,1 C 23,9 C 31,7 C 69 % 1013,0 hPa 0,0 l/m 2,4 km/h (1 Bft) N 11 2 min 0,000 mm 3,5 UV-I 546 W/m 17,1 C 23,1 C 4,8 km/h (1 Bft) 97,87 %
06.08.2019 11:54 23,2 C 23,9 C 32,2 C 72 % 1012,9 hPa 0,0 l/m 2,6 km/h (1 Bft) N-NO 14 2 min 0,000 mm 3,4 UV-I 561 W/m 17,9 C 23,2 C 4,8 km/h (1 Bft) 98,00 %
06.08.2019 11:56 23,4 C 23,9 C 32,8 C 72 % 1013,0 hPa 0,0 l/m 4,7 km/h (1 Bft) NW 326 2 min 0,000 mm 3,5 UV-I 544 W/m 18,1 C 23,4 C 6,4 km/h (2 Bft) 97,92 %
06.08.2019 11:58 23,5 C 23,9 C 32,8 C 70 % 1012,9 hPa 0,0 l/m 4,0 km/h (1 Bft) N 9 2 min 0,000 mm 3,1 UV-I 500 W/m 17,7 C 23,5 C 6,4 km/h (2 Bft) 95,74 %
06.08.2019 12:00 23,5 C 23,9 C 32,8 C 70 % 1012,9 hPa 0,0 l/m 2,5 km/h (1 Bft) W 277 2 min 0,280 mm 3,5 UV-I 509 W/m 17,7 C 23,5 C 4,8 km/h (1 Bft) 91,49 %
06.08.2019 12:02 23,6 C 23,9 C 33,3 C 69 % 1012,9 hPa 0,0 l/m 4,4 km/h (1 Bft) W-SW 250 2 min 0,000 mm 3,6 UV-I 545 W/m 17,6 C 23,6 C 8,0 km/h (2 Bft) 95,74 %
06.08.2019 12:04 23,6 C 23,9 C 33,9 C 68 % 1012,9 hPa 0,0 l/m 5,2 km/h (1 Bft) SW 235 2 min 0,000 mm 3,8 UV-I 574 W/m 17,3 C 23,6 C 9,7 km/h (2 Bft) 97,14 %
06.08.2019 12:06 23,7 C 23,9 C 33,9 C 66 % 1012,8 hPa 0,0 l/m 6,8 km/h (2 Bft) SW 219 2 min 0,000 mm 3,9 UV-I 622 W/m 17,0 C 23,6 C 11,3 km/h (2 Bft) 95,74 %
06.08.2019 12:08 23,7 C 23,9 C 35,0 C 66 % 1012,7 hPa 0,0 l/m 6,6 km/h (2 Bft) S-SW 202 2 min 0,000 mm 3,9 UV-I 662 W/m 17,0 C 23,6 C 9,7 km/h (2 Bft) 93,62 %
06.08.2019 12:10 23,8 C 23,9 C 35,0 C 67 % 1012,7 hPa 0,0 l/m 4,4 km/h (1 Bft) N-NW 346 2 min 0,000 mm 3,7 UV-I 578 W/m 17,3 C 23,8 C 8,0 km/h (2 Bft) 95,74 %
06.08.2019 12:12 23,9 C 23,9 C 33,9 C 66 % 1012,7 hPa 0,0 l/m 3,3 km/h (1 Bft) NW 313 2 min 0,000 mm 3,3 UV-I 495 W/m 17,1 C 23,9 C 8,0 km/h (2 Bft) 93,62 %
06.08.2019 12:14 23,9 C 23,9 C 33,3 C 67 % 1012,6 hPa 0,0 l/m 3,9 km/h (1 Bft) NW 325 0 min 0,000 mm 3,1 UV-I 450 W/m 17,4 C 23,9 C 4,8 km/h (1 Bft) 93,62 %
06.08.2019 12:16 23,8 C 23,9 C 32,2 C 64 % 1012,7 hPa 0,0 l/m 4,1 km/h (1 Bft) W-NW 291 0 min 0,000 mm 3,0 UV-I 437 W/m 16,6 C 23,8 C 6,4 km/h (2 Bft) 95,74 %
06.08.2019 12:18 23,7 C 23,9 C 31,7 C 64 % 1012,6 hPa 0,0 l/m 1,6 km/h (1 Bft) W-NW 288 0 min 0,000 mm 2,9 UV-I 449 W/m 16,5 C 23,7 C 3,2 km/h (1 Bft) 94,00 %
06.08.2019 12:20 23,7 C 23,9 C 31,1 C 64 % 1012,6 hPa 0,0 l/m 3,0 km/h (1 Bft) N-NW 334 0 min 0,000 mm 2,8 UV-I 412 W/m 16,5 C 23,7 C 4,8 km/h (1 Bft) 97,87 %
06.08.2019 12:22 23,8 C 23,9 C 31,1 C 66 % 1012,6 hPa 0,0 l/m 1,8 km/h (1 Bft) N-NW 334 0 min 0,000 mm 2,8 UV-I 407 W/m 17,1 C 23,8 C 3,2 km/h (1 Bft) 97,87 %
06.08.2019 12:24 23,8 C 23,9 C 30,6 C 65 % 1012,5 hPa 0,0 l/m 1,7 km/h (1 Bft) NW 319 0 min 0,000 mm 2,9 UV-I 420 W/m 16,8 C 23,8 C 4,8 km/h (1 Bft) 97,87 %
06.08.2019 12:26 23,8 C 23,9 C 31,1 C 66 % 1012,5 hPa 0,0 l/m 0,9 km/h (0 Bft) NW 319 0 min 0,000 mm 2,9 UV-I 431 W/m 17,1 C 23,8 C 3,2 km/h (1 Bft) 97,87 %
06.08.2019 12:28 23,9 C 23,9 C 31,7 C 68 % 1012,4 hPa 0,0 l/m 1,0 km/h (0 Bft) NW 317 2 min 0,000 mm 2,6 UV-I 469 W/m 17,6 C 23,9 C 3,2 km/h (1 Bft) 97,87 %
06.08.2019 12:30 24,0 C 23,9 C 31,7 C 66 % 1012,4 hPa 0,0 l/m 4,8 km/h (1 Bft) SW 223 2 min 0,000 mm 3,3 UV-I 504 W/m 17,2 C 24,0 C 9,7 km/h (2 Bft) 97,92 %
06.08.2019 12:32 24,1 C 23,9 C 32,2 C 64 % 1012,5 hPa 0,0 l/m 4,7 km/h (1 Bft) SW 236 2 min 0,000 mm 3,4 UV-I 522 W/m 16,9 C 24,1 C 9,7 km/h (2 Bft) 97,87 %
06.08.2019 12:34 24,1 C 23,9 C 32,2 C 65 % 1012,5 hPa 0,0 l/m 6,0 km/h (2 Bft) SW 223 2 min 0,000 mm 3,4 UV-I 524 W/m 17,1 C 24,1 C 8,0 km/h (2 Bft) 100,00 %
06.08.2019 12:36 24,2 C 23,9 C 32,8 C 65 % 1012,4 hPa 0,0 l/m 1,8 km/h (1 Bft) SW 223 2 min 0,000 mm 3,3 UV-I 516 W/m 17,2 C 24,2 C 4,8 km/h (1 Bft) 100,00 %
06.08.2019 12:38 24,3 C 23,9 C 32,8 C 65 % 1012,5 hPa 0,0 l/m 1,9 km/h (1 Bft) W-NW 285 2 min 0,000 mm 3,1 UV-I 487 W/m 17,3 C 24,3 C 4,8 km/h (1 Bft) 100,00 %
06.08.2019 12:40 24,3 C 23,9 C 32,8 C 64 % 1012,5 hPa 0,0 l/m 2,2 km/h (1 Bft) W-NW 286 0 min 0,000 mm 3,0 UV-I 449 W/m 17,0 C 24,3 C 4,8 km/h (1 Bft) 97,87 %
06.08.2019 12:42 24,4 C 23,9 C 32,2 C 65 % 1012,5 hPa 0,0 l/m 5,4 km/h (1 Bft) S 171 0 min 0,000 mm 3,0 UV-I 426 W/m 17,4 C 24,4 C 9,7 km/h (2 Bft) 100,00 %
06.08.2019 12:44 24,3 C 23,9 C 32,2 C 63 % 1012,4 hPa 0,0 l/m 4,6 km/h (1 Bft) W 261 0 min 0,000 mm 3,1 UV-I 443 W/m 16,8 C 24,3 C 11,3 km/h (2 Bft) 100,00 %
06.08.2019 12:46 24,4 C 23,9 C 31,7 C 63 % 1012,5 hPa 0,0 l/m 7,7 km/h (2 Bft) W-SW 246 0 min 0,000 mm 3,0 UV-I 414 W/m 16,9 C 24,0 C 14,5 km/h (3 Bft) 100,00 %
06.08.2019 12:48 24,3 C 23,9 C 30,6 C 62 % 1012,4 hPa 0,0 l/m 9,6 km/h (2 Bft) W-SW 249 0 min 0,000 mm 2,6 UV-I 351 W/m 16,5 C 23,5 C 17,7 km/h (3 Bft) 100,00 %
06.08.2019 12:50 24,3 C 23,9 C 30,0 C 62 % 1012,4 hPa 0,0 l/m 5,0 km/h (1 Bft) W-SW 251 0 min 0,000 mm 2,5 UV-I 320 W/m 16,5 C 24,3 C 8,0 km/h (2 Bft) 97,87 %
06.08.2019 12:52 24,1 C 23,9 C 29,4 C 60 % 1012,4 hPa 0,0 l/m 3,3 km/h (1 Bft) W 281 0 min 0,000 mm 2,5 UV-I 318 W/m 15,8 C 24,1 C 4,8 km/h (1 Bft) 100,00 %
06.08.2019 12:54 24,1 C 23,9 C 29,4 C 61 % 1012,3 hPa 0,0 l/m 1,4 km/h (1 Bft) W 281 0 min 0,000 mm 2,7 UV-I 336 W/m 16,1 C 24,1 C 4,8 km/h (1 Bft) 97,87 %
06.08.2019 12:56 24,2 C 23,9 C 29,4 C 61 % 1012,4 hPa 0,0 l/m 0,8 km/h (0 Bft) SW 235 0 min 0,000 mm 2,9 UV-I 353 W/m 16,2 C 24,2 C 4,8 km/h (1 Bft) 97,87 %
06.08.2019 12:58 24,2 C 23,9 C 30,0 C 63 % 1012,3 hPa 0,0 l/m 3,6 km/h (1 Bft) W 267 0 min 0,000 mm 3,0 UV-I 387 W/m 16,7 C 24,2 C 6,4 km/h (2 Bft) 100,00 %
06.08.2019 13:00 24,3 C 23,9 C 30,6 C 65 % 1012,3 hPa 0,0 l/m 2,6 km/h (1 Bft) W 277 2 min 0,304 mm 3,4 UV-I 481 W/m 17,3 C 24,3 C 4,8 km/h (1 Bft) 100,00 %
06.08.2019 13:02 24,4 C 23,9 C 32,2 C 62 % 1012,3 hPa 0,0 l/m 3,4 km/h (1 Bft) W 263 2 min 0,000 mm 4,1 UV-I 612 W/m 16,6 C 24,4 C 4,8 km/h (1 Bft) 100,00 %
06.08.2019 13:04 24,4 C 23,9 C 33,9 C 62 % 1012,2 hPa 0,0 l/m 3,2 km/h (1 Bft) W-NW 286 2 min 0,000 mm 4,0 UV-I 660 W/m 16,6 C 24,4 C 6,4 km/h (2 Bft) 100,00 %
06.08.2019 13:06 24,5 C 23,9 C 34,4 C 62 % 1012,2 hPa 0,0 l/m 1,5 km/h (1 Bft) W-NW 286 2 min 0,000 mm 4,2 UV-I 589 W/m 16,7 C 24,5 C 3,2 km/h (1 Bft) 100,00 %
06.08.2019 13:08 24,6 C 23,9 C 35,0 C 61 % 1012,2 hPa 0,0 l/m 2,5 km/h (1 Bft) NW 307 2 min 0,000 mm 4,3 UV-I 665 W/m 16,6 C 24,6 C 4,8 km/h (1 Bft) 97,87 %
06.08.2019 13:10 24,7 C 23,9 C 36,1 C 63 % 1012,1 hPa 0,0 l/m 1,0 km/h (0 Bft) NW 306 2 min 0,000 mm 3,9 UV-I 630 W/m 17,2 C 24,7 C 1,6 km/h (1 Bft) 100,00 %
06.08.2019 13:12 24,8 C 23,9 C 36,1 C 63 % 1012,1 hPa 0,0 l/m 2,3 km/h (1 Bft) N 355 2 min 0,000 mm 3,8 UV-I 532 W/m 17,3 C 24,8 C 3,2 km/h (1 Bft) 100,00 %
06.08.2019 13:14 24,8 C 23,9 C 35,6 C 63 % 1012,1 hPa 0,0 l/m 1,4 km/h (1 Bft) NW 318 2 min 0,000 mm 3,7 UV-I 508 W/m 17,3 C 24,8 C 4,8 km/h (1 Bft) 96,00 %
06.08.2019 13:16 24,8 C 23,9 C 35,0 C 61 % 1012,0 hPa 0,0 l/m 2,8 km/h (1 Bft) W-SW 244 0 min 0,000 mm 3,7 UV-I 457 W/m 16,8 C 24,8 C 4,8 km/h (1 Bft) 100,00 %
06.08.2019 13:18 24,8 C 23,9 C 35,0 C 61 % 1012,1 hPa 0,0 l/m 5,2 km/h (1 Bft) W 279 0 min 0,000 mm 3,4 UV-I 444 W/m 16,8 C 24,8 C 16,1 km/h (3 Bft) 100,00 %
06.08.2019 13:20 24,9 C 23,9 C 34,4 C 57 % 1012,0 hPa 0,0 l/m 8,0 km/h (2 Bft) SW 224 2 min 0,000 mm 4,1 UV-I 518 W/m 15,8 C 24,5 C 12,9 km/h (3 Bft) 100,00 %
06.08.2019 13:22 25,0 C 23,9 C 36,1 C 58 % 1012,1 hPa 0,0 l/m 7,4 km/h (2 Bft) W-SW 240 2 min 0,000 mm 5,0 UV-I 665 W/m 16,1 C 24,7 C 12,9 km/h (3 Bft) 100,00 %
06.08.2019 13:24 25,2 C 23,9 C 36,7 C 56 % 1011,9 hPa 0,0 l/m 10,5 km/h (2 Bft) W-SW 253 2 min 0,000 mm 5,2 UV-I 774 W/m 15,8 C 24,3 C 20,9 km/h (4 Bft) 95,74 %
06.08.2019 13:26 25,3 C 23,9 C 37,2 C 56 % 1011,9 hPa 0,0 l/m 10,0 km/h (2 Bft) SW 227 2 min 0,000 mm 5,1 UV-I 739 W/m 15,9 C 24,5 C 17,7 km/h (3 Bft) 97,87 %
06.08.2019 13:28 25,5 C 23,9 C 37,8 C 55 % 1011,9 hPa 0,0 l/m 9,7 km/h (2 Bft) W-NW 296 2 min 0,000 mm 5,4 UV-I 816 W/m 15,8 C 24,8 C 17,7 km/h (3 Bft) 97,87 %
06.08.2019 13:30 25,6 C 23,9 C 39,4 C 59 % 1011,9 hPa 0,0 l/m 2,8 km/h (1 Bft) SW 232 2 min 0,000 mm 5,4 UV-I 719 W/m 17,0 C 25,6 C 4,8 km/h (1 Bft) 95,74 %
06.08.2019 13:32 25,7 C 23,9 C 39,4 C 55 % 1012,0 hPa 0,0 l/m 6,3 km/h (2 Bft) NW 306 2 min 0,000 mm 5,7 UV-I 745 W/m 16,0 C 25,7 C 9,7 km/h (2 Bft) 97,87 %
06.08.2019 13:34 25,8 C 23,9 C 40,0 C 55 % 1011,9 hPa 0,0 l/m 9,2 km/h (2 Bft) SW 226 2 min 0,000 mm 5,7 UV-I 903 W/m 16,1 C 25,2 C 14,5 km/h (3 Bft) 97,87 %
06.08.2019 13:36 25,9 C 23,9 C 40,6 C 55 % 1012,0 hPa 0,0 l/m 11,1 km/h (2 Bft) SW 223 2 min 0,000 mm 5,9 UV-I 894 W/m 16,2 C 25,0 C 17,7 km/h (3 Bft) 95,74 %
06.08.2019 13:38 25,9 C 23,9 C 41,1 C 53 % 1012,0 hPa 0,0 l/m 7,2 km/h (2 Bft) SW 230 2 min 0,000 mm 5,8 UV-I 947 W/m 15,6 C 25,7 C 12,9 km/h (3 Bft) 97,87 %
06.08.2019 13:40 26,1 C 23,9 C 42,2 C 55 % 1011,9 hPa 0,0 l/m 4,9 km/h (1 Bft) NW 308 2 min 0,000 mm 5,8 UV-I 960 W/m 16,3 C 26,1 C 11,3 km/h (2 Bft) 93,62 %
06.08.2019 13:42 26,2 C 23,9 C 42,2 C 54 % 1011,9 hPa 0,0 l/m 5,0 km/h (1 Bft) NW 316 2 min 0,000 mm 5,7 UV-I 955 W/m 16,1 C 26,2 C 12,9 km/h (3 Bft) 95,74 %
06.08.2019 13:44 26,3 C 23,9 C 42,8 C 53 % 1011,9 hPa 0,0 l/m 9,1 km/h (2 Bft) W 281 2 min 0,000 mm 5,7 UV-I 939 W/m 15,9 C 25,8 C 14,5 km/h (3 Bft) 95,74 %
06.08.2019 13:46 26,2 C 23,9 C 40,0 C 51 % 1011,9 hPa 0,0 l/m 9,2 km/h (2 Bft) W-NW 288 2 min 0,000 mm 4,9 UV-I 926 W/m 15,2 C 25,6 C 14,5 km/h (3 Bft) 94,44 %
06.08.2019 13:48 26,1 C 23,9 C 38,9 C 54 % 1011,8 hPa 0,0 l/m 5,6 km/h (1 Bft) S-SW 211 2 min 0,000 mm 4,1 UV-I 721 W/m 16,0 C 26,1 C 9,7 km/h (2 Bft) 94,00 %
06.08.2019 13:50 26,1 C 23,9 C 40,0 C 54 % 1011,8 hPa 0,0 l/m 5,6 km/h (1 Bft) W 269 2 min 0,000 mm 4,7 UV-I 577 W/m 16,0 C 26,1 C 8,0 km/h (2 Bft) 93,62 %
06.08.2019 13:52 26,3 C 23,9 C 40,6 C 53 % 1011,8 hPa 0,0 l/m 5,4 km/h (1 Bft) W-NW 288 2 min 0,000 mm 5,4 UV-I 835 W/m 15,9 C 26,3 C 12,9 km/h (3 Bft) 95,74 %
06.08.2019 13:54 26,3 C 23,9 C 40,6 C 52 % 1011,8 hPa 0,0 l/m 7,1 km/h (2 Bft) W 262 2 min 0,000 mm 5,5 UV-I 823 W/m 15,6 C 26,2 C 12,9 km/h (3 Bft) 95,74 %
06.08.2019 13:56 26,3 C 23,9 C 41,1 C 51 % 1011,8 hPa 0,0 l/m 8,5 km/h (2 Bft) W 270 2 min 0,000 mm 5,7 UV-I 876 W/m 15,3 C 25,9 C 16,1 km/h (3 Bft) 95,74 %
06.08.2019 13:58 26,4 C 23,9 C 41,7 C 52 % 1011,8 hPa 0,0 l/m 6,6 km/h (2 Bft) N-NW 336 2 min 0,000 mm 5,6 UV-I 853 W/m 15,7 C 26,4 C 12,9 km/h (3 Bft) 95,74 %
06.08.2019 14:00 26,6 C 23,9 C 41,7 C 54 % 1011,7 hPa 0,0 l/m 6,3 km/h (2 Bft) W-NW 302 2 min 0,508 mm 5,5 UV-I 830 W/m 16,5 C 26,6 C 11,3 km/h (2 Bft) 91,49 %
06.08.2019 14:02 26,7 C 23,9 C 41,7 C 52 % 1011,6 hPa 0,0 l/m 3,9 km/h (1 Bft) W-NW 286 2 min 0,000 mm 5,2 UV-I 805 W/m 16,0 C 26,7 C 6,4 km/h (2 Bft) 93,62 %
06.08.2019 14:04 26,8 C 23,9 C 42,8 C 55 % 1011,6 hPa 0,0 l/m 3,4 km/h (1 Bft) W-SW 247 2 min 0,000 mm 5,1 UV-I 832 W/m 17,0 C 26,8 C 9,7 km/h (2 Bft) 95,74 %
06.08.2019 14:06 26,9 C 23,9 C 42,8 C 53 % 1011,6 hPa 0,0 l/m 9,4 km/h (2 Bft) W-SW 243 2 min 0,000 mm 5,4 UV-I 842 W/m 16,5 C 26,4 C 17,7 km/h (3 Bft) 93,62 %
06.08.2019 14:08 26,9 C 23,9 C 41,7 C 49 % 1011,6 hPa 0,0 l/m 9,1 km/h (2 Bft) S-SW 209 2 min 0,000 mm 5,5 UV-I 839 W/m 15,3 C 26,4 C 19,3 km/h (3 Bft) 91,49 %
06.08.2019 14:10 26,9 C 23,9 C 42,2 C 51 % 1011,6 hPa 0,0 l/m 10,2 km/h (2 Bft) W-SW 241 2 min 0,000 mm 5,3 UV-I 832 W/m 15,9 C 26,2 C 17,7 km/h (3 Bft) 93,62 %
06.08.2019 14:12 26,9 C 23,9 C 42,2 C 51 % 1011,5 hPa 0,0 l/m 8,9 km/h (2 Bft) SW 224 2 min 0,000 mm 5,3 UV-I 818 W/m 15,9 C 26,4 C 12,9 km/h (3 Bft) 95,74 %
06.08.2019 14:14 27,1 C 23,9 C 42,8 C 51 % 1011,6 hPa 0,0 l/m 7,4 km/h (2 Bft) SW 219 2 min 0,000 mm 5,4 UV-I 841 W/m 16,1 C 26,9 C 11,3 km/h (2 Bft) 91,49 %
06.08.2019 14:16 27,2 C 23,9 C 43,3 C 49 % 1011,6 hPa 0,0 l/m 6,4 km/h (2 Bft) W-NW 290 2 min 0,000 mm 5,3 UV-I 808 W/m 15,5 C 27,2 C 12,9 km/h (3 Bft) 93,62 %
06.08.2019 14:18 27,3 C 23,9 C 43,3 C 51 % 1011,6 hPa 0,0 l/m 9,0 km/h (2 Bft) W-SW 241 2 min 0,000 mm 5,1 UV-I 774 W/m 16,3 C 26,9 C 19,3 km/h (3 Bft) 93,62 %
06.08.2019 14:20 27,6 C 23,9 C 43,9 C 50 % 1011,5 hPa 0,0 l/m 5,3 km/h (1 Bft) S 178 2 min 0,000 mm 5,0 UV-I 791 W/m 16,2 C 27,6 C 9,7 km/h (2 Bft) 95,74 %
06.08.2019 14:22 27,4 C 24,4 C 42,8 C 49 % 1011,5 hPa 0,0 l/m 9,8 km/h (2 Bft) SW 215 2 min 0,000 mm 3,9 UV-I 785 W/m 15,7 C 26,8 C 14,5 km/h (3 Bft) 95,74 %
06.08.2019 14:24 27,4 C 24,4 C 42,8 C 49 % 1011,5 hPa 0,0 l/m 7,5 km/h (2 Bft) W 263 2 min 0,000 mm 3,0 UV-I 772 W/m 15,7 C 27,2 C 12,9 km/h (3 Bft) 93,75 %
06.08.2019 14:26 27,4 C 24,4 C 42,8 C 50 % 1011,5 hPa 0,0 l/m 9,8 km/h (2 Bft) W-SW 240 2 min 0,000 mm 4,8 UV-I 743 W/m 16,0 C 26,8 C 17,7 km/h (3 Bft) 97,87 %
06.08.2019 14:28 27,5 C 24,4 C 42,2 C 49 % 1011,4 hPa 0,0 l/m 9,8 km/h (2 Bft) W-SW 245 2 min 0,000 mm 4,9 UV-I 765 W/m 15,8 C 27,0 C 17,7 km/h (3 Bft) 98,00 %
06.08.2019 14:30 27,5 C 24,4 C 41,7 C 47 % 1011,4 hPa 0,0 l/m 9,8 km/h (2 Bft) W-NW 297 2 min 0,000 mm 4,9 UV-I 738 W/m 15,2 C 27,0 C 12,9 km/h (3 Bft) 95,74 %
06.08.2019 14:32 27,4 C 24,4 C 40,6 C 48 % 1011,4 hPa 0,0 l/m 8,5 km/h (2 Bft) S-SW 210 2 min 0,000 mm 4,6 UV-I 702 W/m 15,4 C 27,0 C 16,1 km/h (3 Bft) 100,00 %
06.08.2019 14:34 27,4 C 24,4 C 40,0 C 48 % 1011,4 hPa 0,0 l/m 12,1 km/h (2 Bft) W-SW 247 2 min 0,000 mm 4,6 UV-I 648 W/m 15,4 C 26,5 C 20,9 km/h (4 Bft) 93,62 %
06.08.2019 14:36 27,4 C 24,4 C 40,6 C 50 % 1011,4 hPa 0,0 l/m 14,0 km/h (3 Bft) SW 227 2 min 0,000 mm 4,8 UV-I 659 W/m 16,0 C 26,3 C 20,9 km/h (4 Bft) 97,87 %
06.08.2019 14:38 27,5 C 24,4 C 40,0 C 48 % 1011,2 hPa 0,0 l/m 14,2 km/h (3 Bft) W-NW 294 2 min 0,000 mm 4,5 UV-I 732 W/m 15,5 C 26,4 C 19,3 km/h (3 Bft) 100,00 %
06.08.2019 14:40 27,4 C 24,4 C 38,9 C 49 % 1011,2 hPa 0,0 l/m 8,1 km/h (2 Bft) W 275 2 min 0,000 mm 3,4 UV-I 714 W/m 15,7 C 27,1 C 12,9 km/h (3 Bft) 100,00 %
06.08.2019 14:42 27,4 C 24,4 C 37,8 C 48 % 1011,2 hPa 0,0 l/m 13,7 km/h (3 Bft) W 263 2 min 0,000 mm 3,8 UV-I 714 W/m 15,4 C 26,4 C 20,9 km/h (4 Bft) 100,00 %
06.08.2019 14:44 27,6 C 24,4 C 39,4 C 48 % 1011,2 hPa 0,0 l/m 12,9 km/h (3 Bft) SW 225 2 min 0,000 mm 4,8 UV-I 793 W/m 15,6 C 26,7 C 22,5 km/h (4 Bft) 100,00 %
06.08.2019 14:46 27,6 C 24,4 C 39,4 C 46 % 1011,2 hPa 0,0 l/m 14,1 km/h (3 Bft) SW 230 2 min 0,000 mm 4,5 UV-I 857 W/m 14,9 C 26,5 C 19,3 km/h (3 Bft) 98,00 %
06.08.2019 14:48 27,7 C 24,4 C 39,4 C 45 % 1011,3 hPa 0,0 l/m 14,9 km/h (3 Bft) W 261 2 min 0,000 mm 4,9 UV-I 835 W/m 14,7 C 26,6 C 24,1 km/h (4 Bft) 97,87 %
06.08.2019 14:50 27,8 C 24,4 C 40,6 C 45 % 1011,2 hPa 0,0 l/m 10,5 km/h (2 Bft) SW 220 2 min 0,000 mm 4,8 UV-I 812 W/m 14,8 C 27,2 C 16,1 km/h (3 Bft) 100,00 %
06.08.2019 14:52 28,1 C 24,4 C 41,1 C 46 % 1011,3 hPa 0,0 l/m 13,9 km/h (3 Bft) SW 221 2 min 0,000 mm 4,8 UV-I 773 W/m 15,4 C 27,2 C 20,9 km/h (4 Bft) 100,00 %
06.08.2019 14:54 28,2 C 24,4 C 41,1 C 44 % 1011,2 hPa 0,0 l/m 14,1 km/h (3 Bft) W-NW 293 2 min 0,000 mm 4,8 UV-I 812 W/m 14,8 C 27,3 C 19,3 km/h (3 Bft) 100,00 %
06.08.2019 14:56 28,3 C 24,4 C 41,7 C 43 % 1011,2 hPa 0,0 l/m 11,9 km/h (2 Bft) SW 236 2 min 0,000 mm 3,7 UV-I 834 W/m 14,5 C 27,6 C 17,7 km/h (3 Bft) 100,00 %
06.08.2019 14:58 28,5 C 24,4 C 41,7 C 43 % 1011,2 hPa 0,0 l/m 12,6 km/h (3 Bft) SW 232 2 min 0,000 mm 2,3 UV-I 798 W/m 14,7 C 27,8 C 20,9 km/h (4 Bft) 100,00 %
06.08.2019 15:00 28,4 C 24,4 C 41,1 C 43 % 1011,2 hPa 0,0 l/m 13,7 km/h (3 Bft) W-SW 237 2 min 0,585 mm 2,2 UV-I 732 W/m 14,6 C 27,5 C 20,9 km/h (4 Bft) 100,00 %
06.08.2019 15:02 28,3 C 24,4 C 41,7 C 43 % 1011,1 hPa 0,0 l/m 10,4 km/h (2 Bft) SW 234 2 min 0,000 mm 3,9 UV-I 796 W/m 14,5 C 27,8 C 17,7 km/h (3 Bft) 95,74 %
06.08.2019 15:04 28,3 C 24,4 C 41,7 C 43 % 1011,1 hPa 0,0 l/m 8,9 km/h (2 Bft) W-SW 242 2 min 0,000 mm 4,5 UV-I 795 W/m 14,5 C 27,9 C 12,9 km/h (3 Bft) 95,83 %
06.08.2019 15:06 28,3 C 24,4 C 41,7 C 44 % 1011,1 hPa 0,0 l/m 11,2 km/h (2 Bft) W-SW 255 2 min 0,000 mm 4,4 UV-I 803 W/m 14,9 C 27,7 C 19,3 km/h (3 Bft) 98,00 %
06.08.2019 15:08 28,3 C 24,4 C 40,0 C 43 % 1011,1 hPa 0,0 l/m 11,5 km/h (2 Bft) S-SW 212 2 min 0,000 mm 3,9 UV-I 803 W/m 14,5 C 27,6 C 20,9 km/h (4 Bft) 97,87 %
06.08.2019 15:10 28,2 C 24,4 C 38,9 C 44 % 1011,1 hPa 0,0 l/m 7,5 km/h (2 Bft) W-NW 285 2 min 0,000 mm 3,5 UV-I 642 W/m 14,8 C 28,0 C 17,7 km/h (3 Bft) 97,87 %
06.08.2019 15:12 28,0 C 24,4 C 36,1 C 43 % 1011,1 hPa 0,0 l/m 9,1 km/h (2 Bft) W-SW 248 2 min 0,000 mm 2,8 UV-I 457 W/m 14,2 C 27,6 C 14,5 km/h (3 Bft) 100,00 %
06.08.2019 15:14 27,9 C 24,4 C 35,6 C 44 % 1011,1 hPa 0,0 l/m 11,9 km/h (2 Bft) W 267 0 min 0,000 mm 3,3 UV-I 397 W/m 14,5 C 27,1 C 22,5 km/h (4 Bft) 97,14 %
06.08.2019 15:16 27,7 C 24,4 C 34,4 C 44 % 1011,0 hPa 0,0 l/m 12,6 km/h (3 Bft) W-SW 249 0 min 0,000 mm 3,1 UV-I 405 W/m 14,3 C 26,8 C 20,9 km/h (4 Bft) 98,00 %
06.08.2019 15:18 27,6 C 24,4 C 33,3 C 44 % 1011,0 hPa 0,0 l/m 13,7 km/h (3 Bft) W-SW 241 0 min 0,000 mm 2,8 UV-I 365 W/m 14,2 C 26,6 C 20,9 km/h (4 Bft) 97,87 %
06.08.2019 15:20 27,5 C 24,4 C 32,8 C 45 % 1011,0 hPa 0,0 l/m 9,9 km/h (2 Bft) N-NW 344 0 min 0,000 mm 2,7 UV-I 353 W/m 14,5 C 26,9 C 14,5 km/h (3 Bft) 97,87 %
06.08.2019 15:22 27,4 C 24,4 C 33,9 C 45 % 1011,0 hPa 0,0 l/m 7,9 km/h (2 Bft) SW 230 2 min 0,000 mm 3,1 UV-I 485 W/m 14,4 C 27,1 C 17,7 km/h (3 Bft) 95,74 %
06.08.2019 15:24 27,4 C 24,4 C 33,9 C 44 % 1010,9 hPa 0,0 l/m 13,5 km/h (3 Bft) W-NW 293 2 min 0,000 mm 3,3 UV-I 511 W/m 14,0 C 26,4 C 19,3 km/h (3 Bft) 95,74 %
06.08.2019 15:26 27,6 C 24,4 C 34,4 C 44 % 1010,9 hPa 0,0 l/m 9,4 km/h (2 Bft) W 265 2 min 0,000 mm 3,0 UV-I 496 W/m 14,2 C 27,1 C 14,5 km/h (3 Bft) 97,87 %
06.08.2019 15:28 27,7 C 24,4 C 35,0 C 43 % 1010,9 hPa 0,0 l/m 13,4 km/h (3 Bft) W 271 2 min 0,000 mm 3,6 UV-I 664 W/m 14,0 C 26,7 C 20,9 km/h (4 Bft) 95,74 %
06.08.2019 15:30 27,7 C 24,4 C 35,0 C 44 % 1010,8 hPa 0,0 l/m 7,2 km/h (2 Bft) W 262 2 min 0,000 mm 3,2 UV-I 664 W/m 14,3 C 27,6 C 12,9 km/h (3 Bft) 97,87 %
06.08.2019 15:32 27,9 C 24,4 C 36,7 C 45 % 1010,8 hPa 0,0 l/m 7,3 km/h (2 Bft) W 262 2 min 0,000 mm 3,8 UV-I 756 W/m 14,8 C 27,8 C 12,9 km/h (3 Bft) 97,87 %
06.08.2019 15:34 27,9 C 24,4 C 35,0 C 43 % 1010,8 hPa 0,0 l/m 11,0 km/h (2 Bft) NW 311 2 min 0,000 mm 3,0 UV-I 649 W/m 14,1 C 27,2 C 17,7 km/h (3 Bft) 97,87 %
06.08.2019 15:36 27,8 C 24,4 C 37,2 C 43 % 1010,7 hPa 0,0 l/m 10,5 km/h (2 Bft) W 263 2 min 0,000 mm 3,6 UV-I 432 W/m 14,1 C 27,2 C 16,1 km/h (3 Bft) 100,00 %
06.08.2019 15:38 28,0 C 24,4 C 38,9 C 44 % 1010,7 hPa 0,0 l/m 11,3 km/h (2 Bft) W 259 2 min 0,000 mm 3,7 UV-I 807 W/m 14,6 C 27,3 C 16,1 km/h (3 Bft) 100,00 %
06.08.2019 15:40 28,2 C 24,4 C 38,3 C 43 % 1010,6 hPa 0,0 l/m 11,6 km/h (2 Bft) W-NW 286 2 min 0,000 mm 3,2 UV-I 654 W/m 14,4 C 27,5 C 22,5 km/h (4 Bft) 100,00 %
06.08.2019 15:42 28,2 C 24,4 C 37,8 C 45 % 1010,6 hPa 0,0 l/m 10,0 km/h (2 Bft) SW 229 2 min 0,000 mm 2,8 UV-I 654 W/m 15,1 C 27,7 C 16,1 km/h (3 Bft) 97,87 %
06.08.2019 15:44 28,2 C 24,4 C 37,2 C 44 % 1010,6 hPa 0,0 l/m 9,1 km/h (2 Bft) W-NW 284 2 min 0,000 mm 2,8 UV-I 503 W/m 14,8 C 27,8 C 12,9 km/h (3 Bft) 100,00 %
06.08.2019 15:46 28,1 C 24,4 C 36,1 C 43 % 1010,5 hPa 0,0 l/m 6,2 km/h (2 Bft) W-NW 292 0 min 0,000 mm 2,7 UV-I 373 W/m 14,3 C 28,1 C 11,3 km/h (2 Bft) 97,87 %
06.08.2019 15:48 28,1 C 24,4 C 35,6 C 45 % 1010,5 hPa 0,0 l/m 9,4 km/h (2 Bft) W-NW 295 0 min 0,000 mm 2,6 UV-I 348 W/m 15,0 C 27,7 C 19,3 km/h (3 Bft) 97,87 %
06.08.2019 15:50 28,0 C 24,4 C 35,0 C 43 % 1010,4 hPa 0,0 l/m 10,5 km/h (2 Bft) W 277 2 min 0,000 mm 3,0 UV-I 506 W/m 14,2 C 27,4 C 17,7 km/h (3 Bft) 96,00 %
06.08.2019 15:52 28,2 C 24,4 C 37,2 C 45 % 1010,4 hPa 0,0 l/m 6,5 km/h (2 Bft) SW 229 2 min 0,000 mm 3,4 UV-I 659 W/m 15,1 C 28,2 C 14,5 km/h (3 Bft) 97,37 %
06.08.2019 15:54 28,4 C 24,4 C 39,4 C 44 % 1010,4 hPa 0,0 l/m 11,2 km/h (2 Bft) W 265 2 min 0,000 mm 3,6 UV-I 725 W/m 14,9 C 27,8 C 17,7 km/h (3 Bft) 93,62 %
06.08.2019 15:56 28,6 C 24,4 C 38,9 C 43 % 1010,3 hPa 0,0 l/m 17,8 km/h (3 Bft) W 277 2 min 0,000 mm 3,4 UV-I 637 W/m 14,8 C 27,5 C 27,4 km/h (4 Bft) 98,00 %
06.08.2019 15:58 28,6 C 24,4 C 38,9 C 42 % 1010,3 hPa 0,0 l/m 16,0 km/h (3 Bft) SW 229 2 min 0,000 mm 3,2 UV-I 720 W/m 14,4 C 27,6 C 20,9 km/h (4 Bft) 95,74 %
06.08.2019 16:00 28,7 C 24,4 C 39,4 C 43 % 1010,3 hPa 0,0 l/m 9,5 km/h (2 Bft) W-NW 288 2 min 0,457 mm 3,3 UV-I 698 W/m 14,9 C 28,3 C 16,1 km/h (3 Bft) 95,74 %
06.08.2019 16:02 28,8 C 24,4 C 41,1 C 42 % 1010,2 hPa 0,0 l/m 10,2 km/h (2 Bft) W-NW 294 2 min 0,000 mm 3,3 UV-I 676 W/m 14,6 C 28,3 C 22,5 km/h (4 Bft) 96,00 %
06.08.2019 16:04 28,9 C 24,4 C 40,0 C 42 % 1010,2 hPa 0,0 l/m 15,5 km/h (3 Bft) SW 220 2 min 0,000 mm 3,1 UV-I 687 W/m 14,7 C 28,0 C 24,1 km/h (4 Bft) 97,37 %
06.08.2019 16:06 28,9 C 24,4 C 40,0 C 41 % 1010,2 hPa 0,0 l/m 15,5 km/h (3 Bft) W 269 2 min 0,000 mm 3,2 UV-I 600 W/m 14,3 C 28,0 C 22,5 km/h (4 Bft) 97,87 %
06.08.2019 16:08 28,9 C 24,4 C 39,4 C 40 % 1010,2 hPa 0,0 l/m 11,9 km/h (2 Bft) W-SW 244 2 min 0,000 mm 2,6 UV-I 653 W/m 13,9 C 28,3 C 22,5 km/h (4 Bft) 97,87 %
06.08.2019 16:10 28,9 C 24,4 C 37,2 C 41 % 1010,2 hPa 0,0 l/m 15,0 km/h (3 Bft) W 270 2 min 0,000 mm 2,4 UV-I 440 W/m 14,3 C 28,0 C 24,1 km/h (4 Bft) 97,87 %
06.08.2019 16:12 28,7 C 24,4 C 34,4 C 41 % 1010,2 hPa 0,0 l/m 17,2 km/h (3 Bft) W 261 0 min 0,000 mm 2,0 UV-I 255 W/m 14,1 C 27,6 C 24,1 km/h (4 Bft) 98,11 %
06.08.2019 16:14 28,4 C 24,4 C 32,8 C 42 % 1010,2 hPa 0,0 l/m 14,8 km/h (3 Bft) W 261 0 min 0,000 mm 1,9 UV-I 258 W/m 14,2 C 27,4 C 20,9 km/h (4 Bft) 97,87 %
06.08.2019 16:16 28,2 C 24,4 C 31,1 C 41 % 1010,2 hPa 0,0 l/m 15,6 km/h (3 Bft) W-SW 258 0 min 0,000 mm 1,9 UV-I 260 W/m 13,7 C 27,1 C 25,7 km/h (4 Bft) 97,87 %
06.08.2019 16:18 27,9 C 24,4 C 30,6 C 42 % 1010,2 hPa 0,0 l/m 8,2 km/h (2 Bft) W-SW 257 0 min 0,000 mm 2,0 UV-I 285 W/m 13,8 C 27,6 C 14,5 km/h (3 Bft) 93,62 %
06.08.2019 16:20 27,9 C 24,4 C 31,1 C 42 % 1010,2 hPa 0,0 l/m 6,4 km/h (2 Bft) W-SW 237 2 min 0,000 mm 2,2 UV-I 361 W/m 13,8 C 27,9 C 12,9 km/h (3 Bft) 93,75 %
06.08.2019 16:22 28,0 C 24,4 C 33,9 C 43 % 1010,1 hPa 0,0 l/m 7,5 km/h (2 Bft) W-NW 285 2 min 0,000 mm 2,6 UV-I 442 W/m 14,2 C 27,8 C 14,5 km/h (3 Bft) 100,00 %
06.08.2019 16:24 28,2 C 24,4 C 36,7 C 44 % 1010,0 hPa 0,0 l/m 7,0 km/h (2 Bft) W 277 2 min 0,000 mm 3,0 UV-I 586 W/m 14,8 C 28,1 C 16,1 km/h (3 Bft) 100,00 %
06.08.2019 16:26 28,4 C 24,4 C 38,3 C 43 % 1010,0 hPa 0,0 l/m 10,5 km/h (2 Bft) W-SW 243 2 min 0,000 mm 2,9 UV-I 707 W/m 14,6 C 27,9 C 17,7 km/h (3 Bft) 100,00 %
06.08.2019 16:28 28,7 C 24,4 C 39,4 C 45 % 1010,0 hPa 0,0 l/m 7,3 km/h (2 Bft) NW 311 2 min 0,000 mm 2,8 UV-I 666 W/m 15,6 C 28,6 C 12,9 km/h (3 Bft) 100,00 %
06.08.2019 16:30 28,7 C 24,4 C 40,6 C 42 % 1010,0 hPa 0,0 l/m 8,5 km/h (2 Bft) W-SW 255 2 min 0,000 mm 2,7 UV-I 656 W/m 14,5 C 28,4 C 16,1 km/h (3 Bft) 100,00 %
06.08.2019 16:32 28,7 C 24,4 C 41,1 C 43 % 1009,9 hPa 0,0 l/m 5,9 km/h (2 Bft) W 281 2 min 0,000 mm 2,6 UV-I 591 W/m 14,9 C 28,7 C 14,5 km/h (3 Bft) 100,00 %
06.08.2019 16:34 28,7 C 24,4 C 40,6 C 43 % 1009,9 hPa 0,0 l/m 9,0 km/h (2 Bft) W 265 2 min 0,000 mm 2,3 UV-I 545 W/m 14,9 C 28,4 C 16,1 km/h (3 Bft) 100,00 %
06.08.2019 16:36 28,6 C 24,4 C 38,9 C 42 % 1009,9 hPa 0,0 l/m 6,7 km/h (2 Bft) W-SW 257 2 min 0,000 mm 2,1 UV-I 377 W/m 14,4 C 28,6 C 11,3 km/h (2 Bft) 100,00 %
06.08.2019 16:38 28,5 C 24,4 C 37,2 C 43 % 1009,9 hPa 0,0 l/m 5,1 km/h (1 Bft) W-SW 239 0 min 0,000 mm 1,8 UV-I 282 W/m 14,7 C 28,5 C 9,7 km/h (2 Bft) 100,00 %
06.08.2019 16:40 28,4 C 24,4 C 35,6 C 44 % 1009,9 hPa 0,0 l/m 2,5 km/h (1 Bft) W-NW 286 0 min 0,000 mm 1,8 UV-I 286 W/m 14,9 C 28,4 C 6,4 km/h (2 Bft) 100,00 %
06.08.2019 16:42 28,3 C 24,4 C 35,6 C 45 % 1009,9 hPa 0,0 l/m 9,4 km/h (2 Bft) W-SW 253 0 min 0,000 mm 1,9 UV-I 309 W/m 15,2 C 27,9 C 16,1 km/h (3 Bft) 100,00 %
06.08.2019 16:44 28,3 C 24,4 C 35,0 C 44 % 1010,0 hPa 0,0 l/m 7,7 km/h (2 Bft) W-NW 283 2 min 0,000 mm 2,1 UV-I 393 W/m 14,9 C 28,1 C 14,5 km/h (3 Bft) 95,74 %
06.08.2019 16:46 28,1 C 25,0 C 35,6 C 45 % 1010,0 hPa 0,0 l/m 6,2 km/h (2 Bft) W 266 2 min 0,000 mm 2,1 UV-I 403 W/m 15,0 C 28,1 C 9,7 km/h (2 Bft) 98,00 %
06.08.2019 16:48 28,1 C 25,0 C 35,0 C 46 % 1009,9 hPa 0,0 l/m 5,2 km/h (1 Bft) NW 315 2 min 0,000 mm 1,8 UV-I 404 W/m 15,4 C 28,1 C 9,7 km/h (2 Bft) 97,87 %
06.08.2019 16:50 28,1 C 25,0 C 37,2 C 45 % 1009,9 hPa 0,0 l/m 3,1 km/h (1 Bft) W 272 2 min 0,000 mm 2,1 UV-I 480 W/m 15,0 C 28,1 C 4,8 km/h (1 Bft) 95,83 %
06.08.2019 16:52 28,2 C 25,0 C 37,2 C 45 % 1009,9 hPa 0,0 l/m 2,5 km/h (1 Bft) W 279 2 min 0,000 mm 2,1 UV-I 621 W/m 15,1 C 28,2 C 4,8 km/h (1 Bft) 96,88 %
06.08.2019 16:54 28,2 C 25,0 C 36,1 C 44 % 1009,9 hPa 0,0 l/m 8,9 km/h (2 Bft) W-SW 252 2 min 0,000 mm 1,8 UV-I 323 W/m 14,8 C 27,8 C 16,1 km/h (3 Bft) 97,92 %
06.08.2019 16:56 28,1 C 25,0 C 35,0 C 45 % 1009,8 hPa 0,0 l/m 3,8 km/h (1 Bft) NW 309 2 min 0,000 mm 1,8 UV-I 335 W/m 15,0 C 28,1 C 6,4 km/h (2 Bft) 97,87 %
06.08.2019 16:58 28,1 C 25,0 C 35,0 C 45 % 1009,8 hPa 0,0 l/m 3,6 km/h (1 Bft) W 271 2 min 0,000 mm 1,8 UV-I 312 W/m 15,0 C 28,1 C 11,3 km/h (2 Bft) 97,87 %
06.08.2019 17:00 28,1 C 25,0 C 33,9 C 46 % 1009,8 hPa 0,0 l/m 3,8 km/h (1 Bft) NW 308 0 min 0,000 mm 1,7 UV-I 282 W/m 15,4 C 28,1 C 6,4 km/h (2 Bft) 97,87 %
06.08.2019 17:02 28,1 C 25,0 C 33,9 C 46 % 1009,7 hPa 0,0 l/m 1,7 km/h (1 Bft) W-SW 257 0 min 0,381 mm 1,6 UV-I 265 W/m 15,4 C 28,1 C 3,2 km/h (1 Bft) 95,12 %
06.08.2019 17:04 28,1 C 25,0 C 34,4 C 45 % 1009,7 hPa 0,0 l/m 6,4 km/h (2 Bft) SW 226 0 min 0,000 mm 1,7 UV-I 279 W/m 15,0 C 28,1 C 14,5 km/h (3 Bft) 95,74 %
06.08.2019 17:06 28,1 C 25,0 C 36,7 C 44 % 1009,7 hPa 0,0 l/m 5,8 km/h (2 Bft) W-NW 290 2 min 0,000 mm 1,9 UV-I 468 W/m 14,7 C 28,1 C 8,0 km/h (2 Bft) 93,62 %
06.08.2019 17:08 28,4 C 25,0 C 38,3 C 45 % 1009,7 hPa 0,0 l/m 5,2 km/h (1 Bft) SW 236 2 min 0,000 mm 1,9 UV-I 545 W/m 15,3 C 28,4 C 9,7 km/h (2 Bft) 94,00 %
06.08.2019 17:10 28,6 C 25,0 C 39,4 C 47 % 1009,7 hPa 0,0 l/m 3,5 km/h (1 Bft) W 267 2 min 0,000 mm 1,8 UV-I 530 W/m 16,2 C 28,6 C 6,4 km/h (2 Bft) 91,49 %
06.08.2019 17:12 28,8 C 25,0 C 40,6 C 47 % 1009,7 hPa 0,0 l/m 5,3 km/h (1 Bft) W 267 2 min 0,000 mm 1,8 UV-I 518 W/m 16,3 C 28,8 C 12,9 km/h (3 Bft) 96,00 %
06.08.2019 17:14 28,8 C 25,0 C 40,6 C 43 % 1009,6 hPa 0,0 l/m 4,7 km/h (1 Bft) W-NW 285 2 min 0,000 mm 1,7 UV-I 478 W/m 15,0 C 28,8 C 6,4 km/h (2 Bft) 97,87 %
06.08.2019 17:16 28,8 C 25,0 C 40,0 C 45 % 1009,6 hPa 0,0 l/m 4,0 km/h (1 Bft) W-NW 288 2 min 0,000 mm 1,6 UV-I 456 W/m 15,7 C 28,8 C 6,4 km/h (2 Bft) 97,37 %
06.08.2019 17:18 28,7 C 25,0 C 40,6 C 43 % 1009,5 hPa 0,0 l/m 3,3 km/h (1 Bft) W-SW 238 2 min 0,000 mm 1,6 UV-I 483 W/m 14,9 C 28,7 C 6,4 km/h (2 Bft) 98,00 %
06.08.2019 17:20 28,7 C 25,0 C 39,4 C 44 % 1009,6 hPa 0,0 l/m 10,5 km/h (2 Bft) N-NW 333 2 min 0,000 mm 1,5 UV-I 415 W/m 15,2 C 28,2 C 17,7 km/h (3 Bft) 97,87 %
06.08.2019 17:22 28,7 C 25,0 C 38,3 C 43 % 1009,6 hPa 0,0 l/m 13,9 km/h (3 Bft) W 267 2 min 0,000 mm 1,5 UV-I 425 W/m 14,9 C 27,9 C 22,5 km/h (4 Bft) 95,74 %
06.08.2019 17:24 28,7 C 25,0 C 38,3 C 43 % 1009,6 hPa 0,0 l/m 9,6 km/h (2 Bft) W-NW 285 2 min 0,000 mm 1,5 UV-I 460 W/m 14,9 C 28,3 C 16,1 km/h (3 Bft) 97,87 %
06.08.2019 17:26 28,7 C 25,0 C 38,3 C 43 % 1009,6 hPa 0,0 l/m 11,2 km/h (2 Bft) W-SW 244 2 min 0,000 mm 1,5 UV-I 440 W/m 14,9 C 28,1 C 19,3 km/h (3 Bft) 97,87 %
06.08.2019 17:28 28,7 C 25,0 C 37,8 C 42 % 1009,5 hPa 0,0 l/m 11,2 km/h (2 Bft) W 260 2 min 0,000 mm 1,4 UV-I 413 W/m 14,5 C 28,1 C 17,7 km/h (3 Bft) 97,87 %
06.08.2019 17:30 28,8 C 25,0 C 37,8 C 43 % 1009,5 hPa 0,0 l/m 12,8 km/h (3 Bft) W-SW 254 2 min 0,000 mm 1,4 UV-I 412 W/m 15,0 C 28,1 C 19,3 km/h (3 Bft) 97,87 %
06.08.2019 17:32 28,8 C 25,0 C 37,8 C 44 % 1009,5 hPa 0,0 l/m 11,4 km/h (2 Bft) W 262 2 min 0,000 mm 1,4 UV-I 438 W/m 15,3 C 28,2 C 16,1 km/h (3 Bft) 96,00 %
06.08.2019 17:34 28,9 C 25,0 C 38,3 C 42 % 1009,5 hPa 0,0 l/m 12,1 km/h (2 Bft) SW 233 2 min 0,000 mm 1,3 UV-I 440 W/m 14,7 C 28,3 C 20,9 km/h (4 Bft) 96,00 %
06.08.2019 17:36 28,9 C 25,0 C 38,3 C 43 % 1009,5 hPa 0,0 l/m 12,8 km/h (3 Bft) SW 230 2 min 0,000 mm 1,3 UV-I 432 W/m 15,0 C 28,2 C 19,3 km/h (3 Bft) 97,92 %
06.08.2019 17:38 28,8 C 25,0 C 37,8 C 42 % 1009,5 hPa 0,0 l/m 11,7 km/h (2 Bft) S 182 2 min 0,000 mm 1,3 UV-I 416 W/m 14,6 C 28,2 C 17,7 km/h (3 Bft) 95,74 %
06.08.2019 17:40 28,9 C 25,0 C 37,2 C 42 % 1009,4 hPa 0,0 l/m 12,2 km/h (2 Bft) W-SW 243 2 min 0,000 mm 1,2 UV-I 425 W/m 14,7 C 28,3 C 19,3 km/h (3 Bft) 95,74 %
06.08.2019 17:42 28,8 C 25,0 C 35,6 C 42 % 1009,4 hPa 0,0 l/m 10,2 km/h (2 Bft) W-SW 255 2 min 0,000 mm 1,1 UV-I 287 W/m 14,6 C 28,3 C 16,1 km/h (3 Bft) 95,74 %
06.08.2019 17:44 28,7 C 25,0 C 36,1 C 43 % 1009,3 hPa 0,0 l/m 7,6 km/h (2 Bft) W-SW 239 2 min 0,000 mm 1,2 UV-I 289 W/m 14,9 C 28,5 C 12,9 km/h (3 Bft) 97,56 %
06.08.2019 17:46 28,7 C 25,0 C 36,7 C 44 % 1009,3 hPa 0,0 l/m 10,1 km/h (2 Bft) W-SW 246 2 min 0,000 mm 1,2 UV-I 400 W/m 15,2 C 28,2 C 22,5 km/h (4 Bft) 93,62 %
06.08.2019 17:48 28,8 C 25,0 C 36,1 C 43 % 1009,3 hPa 0,0 l/m 10,2 km/h (2 Bft) W 271 2 min 0,000 mm 1,1 UV-I 372 W/m 15,0 C 28,3 C 16,1 km/h (3 Bft) 94,00 %
06.08.2019 17:50 28,7 C 25,0 C 35,0 C 43 % 1009,3 hPa 0,0 l/m 11,1 km/h (2 Bft) W-SW 240 2 min 0,000 mm 1,0 UV-I 320 W/m 14,9 C 28,1 C 20,9 km/h (4 Bft) 95,74 %
06.08.2019 17:52 28,6 C 25,0 C 33,9 C 42 % 1009,3 hPa 0,0 l/m 12,7 km/h (3 Bft) W 263 0 min 0,000 mm 1,0 UV-I 210 W/m 14,4 C 27,9 C 17,7 km/h (3 Bft) 94,74 %
06.08.2019 17:54 28,4 C 25,0 C 31,7 C 43 % 1009,3 hPa 0,0 l/m 10,1 km/h (2 Bft) W-SW 252 0 min 0,000 mm 0,9 UV-I 168 W/m 14,6 C 27,9 C 14,5 km/h (3 Bft) 95,74 %
06.08.2019 17:56 28,3 C 25,0 C 31,1 C 44 % 1009,3 hPa 0,0 l/m 6,8 km/h (2 Bft) W-SW 241 0 min 0,000 mm 0,9 UV-I 176 W/m 14,9 C 28,2 C 11,3 km/h (2 Bft) 96,00 %
06.08.2019 17:58 28,2 C 25,0 C 30,6 C 44 % 1009,2 hPa 0,0 l/m 6,3 km/h (2 Bft) W-SW 250 0 min 0,000 mm 0,9 UV-I 180 W/m 14,8 C 28,2 C 11,3 km/h (2 Bft) 95,74 %
06.08.2019 18:00 28,1 C 25,0 C 29,4 C 44 % 1009,2 hPa 0,0 l/m 13,4 km/h (3 Bft) W-SW 244 0 min 0,330 mm 0,8 UV-I 162 W/m 14,7 C 27,2 C 17,7 km/h (3 Bft) 95,74 %
06.08.2019 18:02 27,9 C 25,0 C 28,9 C 44 % 1009,1 hPa 0,0 l/m 8,3 km/h (2 Bft) W-SW 257 0 min 0,000 mm 0,8 UV-I 151 W/m 14,5 C 27,6 C 17,7 km/h (3 Bft) 93,62 %
06.08.2019 18:04 27,9 C 25,0 C 28,9 C 44 % 1009,1 hPa 0,0 l/m 9,7 km/h (2 Bft) W 266 0 min 0,000 mm 0,8 UV-I 149 W/m 14,5 C 27,4 C 16,1 km/h (3 Bft) 95,74 %
06.08.2019 18:06 27,9 C 25,0 C 29,4 C 44 % 1009,1 hPa 0,0 l/m 10,5 km/h (2 Bft) W 261 0 min 0,000 mm 0,7 UV-I 157 W/m 14,5 C 27,3 C 14,5 km/h (3 Bft) 97,87 %
06.08.2019 18:08 28,0 C 25,0 C 31,7 C 44 % 1009,1 hPa 0,0 l/m 11,2 km/h (2 Bft) SW 236 2 min 0,000 mm 0,8 UV-I 262 W/m 14,6 C 27,3 C 17,7 km/h (3 Bft) 96,00 %
06.08.2019 18:10 28,1 C 25,0 C 32,8 C 44 % 1009,1 hPa 0,0 l/m 12,1 km/h (2 Bft) W 269 2 min 0,000 mm 0,8 UV-I 317 W/m 14,7 C 27,3 C 17,7 km/h (3 Bft) 97,87 %
06.08.2019 18:12 28,2 C 25,0 C 32,8 C 43 % 1009,1 hPa 0,0 l/m 13,1 km/h (3 Bft) W 261 2 min 0,000 mm 0,7 UV-I 333 W/m 14,4 C 27,4 C 19,3 km/h (3 Bft) 97,92 %
06.08.2019 18:14 28,2 C 25,0 C 31,1 C 44 % 1009,0 hPa 0,0 l/m 9,8 km/h (2 Bft) W 275 0 min 0,000 mm 0,7 UV-I 189 W/m 14,8 C 27,7 C 14,5 km/h (3 Bft) 95,74 %
06.08.2019 18:16 28,1 C 25,0 C 30,6 C 44 % 1009,1 hPa 0,0 l/m 8,2 km/h (2 Bft) S-SW 202 0 min 0,000 mm 0,6 UV-I 158 W/m 14,7 C 27,8 C 12,9 km/h (3 Bft) 97,87 %
06.08.2019 18:18 28,0 C 25,0 C 30,0 C 45 % 1009,1 hPa 0,0 l/m 7,2 km/h (2 Bft) W 262 0 min 0,000 mm 0,6 UV-I 154 W/m 14,9 C 27,9 C 11,3 km/h (2 Bft) 97,37 %
06.08.2019 18:20 27,9 C 25,0 C 28,9 C 45 % 1009,1 hPa 0,0 l/m 7,5 km/h (2 Bft) S-SW 209 0 min 0,000 mm 0,6 UV-I 146 W/m 14,8 C 27,7 C 11,3 km/h (2 Bft) 100,00 %
06.08.2019 18:22 27,9 C 25,0 C 28,9 C 46 % 1009,2 hPa 0,0 l/m 8,0 km/h (2 Bft) S-SW 209 0 min 0,000 mm 0,5 UV-I 141 W/m 15,2 C 27,6 C 12,9 km/h (3 Bft) 100,00 %
06.08.2019 18:24 27,8 C 25,0 C 28,3 C 45 % 1009,2 hPa 0,0 l/m 8,1 km/h (2 Bft) SW 215 0 min 0,000 mm 0,5 UV-I 138 W/m 14,8 C 27,5 C 16,1 km/h (3 Bft) 97,87 %
06.08.2019 18:26 27,7 C 25,0 C 28,3 C 45 % 1009,2 hPa 0,0 l/m 10,1 km/h (2 Bft) W-SW 256 0 min 0,000 mm 0,3 UV-I 139 W/m 14,7 C 27,1 C 14,5 km/h (3 Bft) 98,00 %
06.08.2019 18:28 27,7 C 25,0 C 27,8 C 46 % 1009,2 hPa 0,0 l/m 11,5 km/h (2 Bft) SW 230 0 min 0,000 mm 0,0 UV-I 149 W/m 15,0 C 27,0 C 17,7 km/h (3 Bft) 95,74 %
06.08.2019 18:30 27,7 C 25,0 C 27,8 C 46 % 1009,2 hPa 0,0 l/m 11,2 km/h (2 Bft) W 259 0 min 0,000 mm 0,0 UV-I 160 W/m 15,0 C 27,0 C 16,1 km/h (3 Bft) 97,87 %
06.08.2019 18:32 27,7 C 25,0 C 27,8 C 46 % 1009,2 hPa 0,0 l/m 10,3 km/h (2 Bft) W-SW 244 0 min 0,000 mm 0,0 UV-I 171 W/m 15,0 C 27,1 C 16,1 km/h (3 Bft) 97,87 %
06.08.2019 18:34 27,7 C 25,0 C 28,3 C 46 % 1009,3 hPa 0,0 l/m 12,0 km/h (2 Bft) S-SW 200 2 min 0,000 mm 0,0 UV-I 182 W/m 15,0 C 26,9 C 22,5 km/h (4 Bft) 97,87 %
06.08.2019 18:36 27,7 C 25,0 C 28,3 C 45 % 1009,3 hPa 0,0 l/m 11,6 km/h (2 Bft) W-SW 246 2 min 0,000 mm 0,0 UV-I 190 W/m 14,7 C 26,9 C 19,3 km/h (3 Bft) 94,00 %
06.08.2019 18:38 27,8 C 25,0 C 30,0 C 45 % 1009,3 hPa 0,0 l/m 9,0 km/h (2 Bft) W-SW 253 2 min 0,000 mm 0,0 UV-I 274 W/m 14,8 C 27,4 C 12,9 km/h (3 Bft) 100,00 %
06.08.2019 18:40 27,9 C 25,0 C 31,7 C 46 % 1009,4 hPa 0,0 l/m 7,4 km/h (2 Bft) W-SW 248 2 min 0,000 mm 0,0 UV-I 306 W/m 15,2 C 27,7 C 12,9 km/h (3 Bft) 96,00 %
06.08.2019 18:42 28,1 C 25,0 C 32,2 C 46 % 1009,3 hPa 0,0 l/m 5,8 km/h (2 Bft) W-SW 252 2 min 0,000 mm 0,0 UV-I 258 W/m 15,4 C 28,1 C 9,7 km/h (2 Bft) 96,00 %
06.08.2019 18:44 28,2 C 25,0 C 32,8 C 45 % 1009,3 hPa 0,0 l/m 8,5 km/h (2 Bft) W-SW 254 2 min 0,000 mm 0,0 UV-I 261 W/m 15,1 C 27,9 C 16,1 km/h (3 Bft) 95,74 %
06.08.2019 18:46 28,3 C 25,0 C 32,2 C 44 % 1009,4 hPa 0,0 l/m 8,7 km/h (2 Bft) W 265 2 min 0,000 mm 0,0 UV-I 231 W/m 14,9 C 28,0 C 12,9 km/h (3 Bft) 97,87 %
06.08.2019 18:48 28,3 C 25,0 C 32,2 C 44 % 1009,4 hPa 0,0 l/m 6,0 km/h (2 Bft) W 260 2 min 0,000 mm 0,0 UV-I 203 W/m 14,9 C 28,3 C 9,7 km/h (2 Bft) 97,87 %
06.08.2019 18:50 28,2 C 25,0 C 31,1 C 44 % 1009,4 hPa 0,0 l/m 6,9 km/h (2 Bft) W-NW 290 2 min 0,000 mm 0,0 UV-I 165 W/m 14,8 C 28,1 C 12,9 km/h (3 Bft) 98,00 %
06.08.2019 18:52 28,0 C 25,0 C 30,6 C 45 % 1009,3 hPa 0,0 l/m 3,2 km/h (1 Bft) W 279 2 min 0,000 mm 0,0 UV-I 151 W/m 14,9 C 28,0 C 4,8 km/h (1 Bft) 100,00 %
06.08.2019 18:54 27,9 C 25,0 C 30,0 C 45 % 1009,4 hPa 0,0 l/m 3,9 km/h (1 Bft) W-SW 255 2 min 0,000 mm 0,0 UV-I 141 W/m 14,8 C 27,9 C 9,7 km/h (2 Bft) 100,00 %
06.08.2019 18:56 27,8 C 25,0 C 29,4 C 45 % 1009,3 hPa 0,0 l/m 8,3 km/h (2 Bft) W-NW 292 2 min 0,000 mm 0,0 UV-I 138 W/m 14,8 C 27,5 C 12,9 km/h (3 Bft) 97,87 %
06.08.2019 18:59 27,7 C 25,0 C 28,9 C 46 % 1009,4 hPa 0,0 l/m 5,3 km/h (1 Bft) W-NW 288 0 min 0,000 mm 0,0 UV-I 124 W/m 15,0 C 27,7 C 12,9 km/h (3 Bft) 97,14 %
06.08.2019 19:00 27,7 C 25,0 C 28,3 C 47 % 1009,4 hPa 0,0 l/m 2,9 km/h (1 Bft) W 263 0 min 0,000 mm 0,0 UV-I 111 W/m 15,3 C 27,7 C 4,8 km/h (1 Bft) 100,00 %
06.08.2019 19:02 27,6 C 25,0 C 27,8 C 46 % 1009,3 hPa 0,0 l/m 4,4 km/h (1 Bft) W-SW 256 0 min 0,203 mm 0,0 UV-I 102 W/m 14,9 C 27,6 C 6,4 km/h (2 Bft) 100,00 %
06.08.2019 19:04 27,5 C 25,0 C 27,2 C 46 % 1009,4 hPa 0,0 l/m 4,7 km/h (1 Bft) W 271 0 min 0,000 mm 0,0 UV-I 95 W/m 14,8 C 27,5 C 9,7 km/h (2 Bft) 100,00 %
06.08.2019 19:06 27,4 C 25,0 C 27,2 C 46 % 1009,4 hPa 0,0 l/m 4,7 km/h (1 Bft) W 281 0 min 0,000 mm 0,0 UV-I 89 W/m 14,7 C 27,4 C 6,4 km/h (2 Bft) 100,00 %
06.08.2019 19:08 27,3 C 25,0 C 26,7 C 46 % 1009,4 hPa 0,0 l/m 5,6 km/h (1 Bft) W 267 0 min 0,000 mm 0,0 UV-I 85 W/m 14,6 C 27,3 C 9,7 km/h (2 Bft) 97,87 %
06.08.2019 19:10 27,3 C 25,0 C 26,1 C 46 % 1009,4 hPa 0,0 l/m 3,9 km/h (1 Bft) W 263 0 min 0,000 mm 0,0 UV-I 80 W/m 14,6 C 27,3 C 6,4 km/h (2 Bft) 100,00 %
06.08.2019 19:12 27,2 C 25,0 C 26,1 C 47 % 1009,4 hPa 0,0 l/m 1,3 km/h (1 Bft) W 263 0 min 0,000 mm 0,0 UV-I 74 W/m 14,9 C 27,2 C 3,2 km/h (1 Bft) 100,00 %
06.08.2019 19:14 27,2 C 25,0 C 25,6 C 48 % 1009,4 hPa 0,0 l/m 4,0 km/h (1 Bft) W-SW 258 0 min 0,000 mm 0,0 UV-I 67 W/m 15,2 C 27,2 C 6,4 km/h (2 Bft) 100,00 %
06.08.2019 19:16 27,1 C 25,0 C 25,6 C 49 % 1009,4 hPa 0,0 l/m 3,0 km/h (1 Bft) W 259 0 min 0,000 mm 0,0 UV-I 69 W/m 15,4 C 27,1 C 4,8 km/h (1 Bft) 97,87 %
06.08.2019 19:19 27,0 C 25,0 C 25,6 C 49 % 1009,3 hPa 0,0 l/m 5,5 km/h (1 Bft) W 273 0 min 0,000 mm 0,0 UV-I 80 W/m 15,4 C 27,0 C 12,9 km/h (3 Bft) 100,00 %
06.08.2019 19:20 26,9 C 25,0 C 25,6 C 49 % 1009,3 hPa 0,0 l/m 4,3 km/h (1 Bft) W 271 0 min 0,000 mm 0,0 UV-I 80 W/m 15,3 C 26,9 C 6,4 km/h (2 Bft) 95,65 %
06.08.2019 19:22 26,9 C 25,0 C 25,6 C 48 % 1009,3 hPa 0,0 l/m 4,4 km/h (1 Bft) W-SW 252 0 min 0,000 mm 0,0 UV-I 75 W/m 14,9 C 26,9 C 6,4 km/h (2 Bft) 100,00 %
06.08.2019 19:24 26,8 C 25,0 C 25,6 C 49 % 1009,2 hPa 0,0 l/m 2,9 km/h (1 Bft) W-SW 252 0 min 0,000 mm 0,0 UV-I 69 W/m 15,2 C 26,8 C 4,8 km/h (1 Bft) 100,00 %
06.08.2019 19:26 26,8 C 25,0 C 25,6 C 50 % 1009,2 hPa 0,0 l/m 4,6 km/h (1 Bft) W 260 0 min 0,000 mm 0,0 UV-I 65 W/m 15,5 C 26,8 C 6,4 km/h (2 Bft) 100,00 %
06.08.2019 19:28 26,8 C 25,0 C 25,0 C 49 % 1009,2 hPa 0,0 l/m 3,9 km/h (1 Bft) W 273 0 min 0,000 mm 0,0 UV-I 69 W/m 15,2 C 26,8 C 9,7 km/h (2 Bft) 100,00 %
06.08.2019 19:30 26,8 C 25,0 C 25,0 C 48 % 1009,2 hPa 0,0 l/m 4,0 km/h (1 Bft) W-SW 246 0 min 0,000 mm 0,0 UV-I 70 W/m 14,9 C 26,8 C 4,8 km/h (1 Bft) 100,00 %
06.08.2019 19:32 26,8 C 25,0 C 25,0 C 48 % 1009,2 hPa 0,0 l/m 3,7 km/h (1 Bft) W-SW 248 0 min 0,000 mm 0,0 UV-I 64 W/m 14,9 C 26,8 C 6,4 km/h (2 Bft) 97,87 %
06.08.2019 19:34 26,8 C 25,0 C 25,0 C 48 % 1009,2 hPa 0,0 l/m 2,7 km/h (1 Bft) W-SW 257 0 min 0,000 mm 0,0 UV-I 57 W/m 14,9 C 26,8 C 4,8 km/h (1 Bft) 100,00 %
06.08.2019 19:36 26,8 C 25,0 C 25,0 C 49 % 1009,2 hPa 0,0 l/m 2,7 km/h (1 Bft) W-SW 257 0 min 0,000 mm 0,0 UV-I 50 W/m 15,2 C 26,8 C 4,8 km/h (1 Bft) 98,00 %
06.08.2019 19:38 26,6 C 25,0 C 24,4 C 49 % 1009,1 hPa 0,0 l/m 2,9 km/h (1 Bft) W-SW 248 0 min 0,000 mm 0,0 UV-I 48 W/m 15,0 C 26,6 C 4,8 km/h (1 Bft) 93,62 %
06.08.2019 19:40 26,6 C 25,0 C 24,4 C 50 % 1009,1 hPa 0,0 l/m 2,7 km/h (1 Bft) W-SW 246 0 min 0,000 mm 0,0 UV-I 49 W/m 15,3 C 26,6 C 4,8 km/h (1 Bft) 94,00 %
06.08.2019 19:42 26,4 C 25,0 C 24,4 C 50 % 1009,1 hPa 0,0 l/m 2,4 km/h (1 Bft) W-SW 239 0 min 0,000 mm 0,0 UV-I 47 W/m 15,1 C 26,4 C 4,8 km/h (1 Bft) 97,87 %
06.08.2019 19:44 26,3 C 25,0 C 23,9 C 51 % 1009,1 hPa 0,0 l/m 2,4 km/h (1 Bft) W-SW 239 0 min 0,000 mm 0,0 UV-I 47 W/m 15,3 C 26,3 C 3,2 km/h (1 Bft) 93,62 %
06.08.2019 19:46 26,2 C 25,0 C 23,9 C 54 % 1009,1 hPa 0,0 l/m 1,5 km/h (1 Bft) W-SW 239 0 min 0,000 mm 0,0 UV-I 46 W/m 16,1 C 26,2 C 3,2 km/h (1 Bft) 97,87 %
06.08.2019 19:48 26,1 C 25,0 C 23,9 C 54 % 1009,0 hPa 0,0 l/m 2,0 km/h (1 Bft) W-SW 239 0 min 0,000 mm 0,0 UV-I 43 W/m 16,0 C 26,1 C 3,2 km/h (1 Bft) 97,87 %
06.08.2019 19:50 25,8 C 25,0 C 23,3 C 55 % 1009,0 hPa 0,0 l/m 2,3 km/h (1 Bft) W-SW 239 0 min 0,000 mm 0,0 UV-I 42 W/m 16,1 C 25,8 C 3,2 km/h (1 Bft) 95,74 %
06.08.2019 19:52 25,6 C 25,0 C 23,3 C 55 % 1009,0 hPa 0,0 l/m 1,3 km/h (1 Bft) W-SW 239 0 min 0,000 mm 0,0 UV-I 40 W/m 15,9 C 25,6 C 3,2 km/h (1 Bft) 97,87 %
06.08.2019 19:54 25,4 C 25,0 C 22,8 C 56 % 1009,0 hPa 0,0 l/m 1,6 km/h (1 Bft) W-SW 239 0 min 0,000 mm 0,0 UV-I 39 W/m 16,0 C 25,4 C 3,2 km/h (1 Bft) 97,87 %
06.08.2019 19:56 25,2 C 25,0 C 22,8 C 57 % 1009,0 hPa 0,0 l/m 1,0 km/h (0 Bft) W-SW 239 0 min 0,000 mm 0,0 UV-I 38 W/m 16,1 C 25,2 C 1,6 km/h (1 Bft) 97,87 %
06.08.2019 19:58 24,9 C 25,0 C 22,8 C 59 % 1008,9 hPa 0,0 l/m 1,9 km/h (1 Bft) W-SW 239 0 min 0,000 mm 0,0 UV-I 36 W/m 16,3 C 24,9 C 3,2 km/h (1 Bft) 95,74 %
06.08.2019 20:00 24,6 C 25,0 C 22,2 C 61 % 1008,9 hPa 0,0 l/m 1,9 km/h (1 Bft) W-SW 239 0 min 0,076 mm 0,0 UV-I 33 W/m 16,6 C 24,6 C 3,2 km/h (1 Bft) 93,62 %
06.08.2019 20:02 24,3 C 25,0 C 22,2 C 62 % 1008,8 hPa 0,0 l/m 2,2 km/h (1 Bft) W-SW 239 0 min 0,000 mm 0,0 UV-I 31 W/m 16,5 C 24,3 C 3,2 km/h (1 Bft) 94,44 %
06.08.2019 20:04 24,0 C 25,0 C 21,7 C 63 % 1008,8 hPa 0,0 l/m 2,9 km/h (1 Bft) W-SW 239 0 min 0,000 mm 0,0 UV-I 29 W/m 16,5 C 24,0 C 3,2 km/h (1 Bft) 93,62 %
06.08.2019 20:06 23,9 C 25,0 C 21,7 C 63 % 1008,8 hPa 0,0 l/m 3,2 km/h (1 Bft) W-SW 239 0 min 0,000 mm 0,0 UV-I 27 W/m 16,4 C 23,9 C 3,2 km/h (1 Bft) 94,00 %
06.08.2019 20:08 23,7 C 25,0 C 21,7 C 64 % 1008,8 hPa 0,0 l/m 3,1 km/h (1 Bft) W-SW 239 0 min 0,000 mm 0,0 UV-I 26 W/m 16,5 C 23,7 C 3,2 km/h (1 Bft) 95,74 %
06.08.2019 20:10 23,4 C 25,0 C 21,1 C 65 % 1008,8 hPa 0,0 l/m 3,7 km/h (1 Bft) W-SW 239 0 min 0,000 mm 0,0 UV-I 24 W/m 16,4 C 23,4 C 4,8 km/h (1 Bft) 95,74 %
06.08.2019 20:12 23,4 C 25,0 C 21,1 C 65 % 1008,8 hPa 0,0 l/m 3,9 km/h (1 Bft) W-SW 239 0 min 0,000 mm 0,0 UV-I 22 W/m 16,4 C 23,4 C 4,8 km/h (1 Bft) 97,87 %
06.08.2019 20:14 23,4 C 25,0 C 21,1 C 63 % 1008,8 hPa 0,0 l/m 3,2 km/h (1 Bft) W-SW 238 2 min 0,000 mm 0,0 UV-I 20 W/m 15,9 C 23,4 C 4,8 km/h (1 Bft) 95,74 %
06.08.2019 20:16 23,4 C 25,0 C 21,1 C 64 % 1008,8 hPa 0,0 l/m 2,2 km/h (1 Bft) W-SW 238 2 min 0,000 mm 0,0 UV-I 18 W/m 16,2 C 23,4 C 3,2 km/h (1 Bft) 98,00 %
06.08.2019 20:18 23,3 C 25,0 C 20,6 C 64 % 1008,8 hPa 0,0 l/m 2,9 km/h (1 Bft) W-SW 238 2 min 0,000 mm 0,0 UV-I 16 W/m 16,1 C 23,3 C 4,8 km/h (1 Bft) 98,00 %
06.08.2019 20:20 23,2 C 24,4 C 20,6 C 66 % 1008,8 hPa 0,0 l/m 2,9 km/h (1 Bft) W-SW 238 2 min 0,000 mm 0,0 UV-I 13 W/m 16,5 C 23,2 C 3,2 km/h (1 Bft) 97,87 %
06.08.2019 20:22 23,1 C 24,4 C 20,0 C 66 % 1008,8 hPa 0,0 l/m 3,0 km/h (1 Bft) W-SW 238 0 min 0,000 mm 0,0 UV-I 12 W/m 16,4 C 23,1 C 4,8 km/h (1 Bft) 95,74 %
06.08.2019 20:24 23,0 C 24,4 C 20,0 C 66 % 1008,8 hPa 0,0 l/m 2,7 km/h (1 Bft) W-SW 238 0 min 0,000 mm 0,0 UV-I 11 W/m 16,3 C 23,0 C 3,2 km/h (1 Bft) 97,14 %
06.08.2019 20:26 22,8 C 24,4 C 20,0 C 67 % 1008,7 hPa 0,0 l/m 2,6 km/h (1 Bft) W-SW 238 0 min 0,000 mm 0,0 UV-I 10 W/m 16,3 C 22,8 C 3,2 km/h (1 Bft) 100,00 %
06.08.2019 20:28 22,7 C 24,4 C 20,0 C 67 % 1008,7 hPa 0,0 l/m 2,8 km/h (1 Bft) W-SW 238 0 min 0,000 mm 0,0 UV-I 9 W/m 16,2 C 22,7 C 4,8 km/h (1 Bft) 97,87 %
06.08.2019 20:30 22,6 C 24,4 C 20,0 C 66 % 1008,7 hPa 0,0 l/m 3,8 km/h (1 Bft) W-SW 238 0 min 0,000 mm 0,0 UV-I 9 W/m 15,9 C 22,6 C 4,8 km/h (1 Bft) 100,00 %
06.08.2019 20:32 22,8 C 24,4 C 19,4 C 64 % 1008,8 hPa 0,0 l/m 1,7 km/h (1 Bft) W-SW 238 0 min 0,000 mm 0,0 UV-I 7 W/m 15,6 C 22,8 C 3,2 km/h (1 Bft) 100,00 %
06.08.2019 20:34 23,1 C 24,4 C 19,4 C 64 % 1008,8 hPa 0,0 l/m 0,2 km/h (0 Bft) W-SW 238 0 min 0,000 mm 0,0 UV-I 6 W/m 15,9 C 23,1 C 1,6 km/h (1 Bft) 100,00 %
06.08.2019 20:36 23,0 C 24,4 C 19,4 C 65 % 1008,8 hPa 0,0 l/m 1,0 km/h (0 Bft) W-SW 238 0 min 0,000 mm 0,0 UV-I 5 W/m 16,1 C 23,0 C 3,2 km/h (1 Bft) 100,00 %
06.08.2019 20:38 22,7 C 24,4 C 19,4 C 67 % 1008,7 hPa 0,0 l/m 2,2 km/h (1 Bft) W-SW 238 0 min 0,000 mm 0,0 UV-I 5 W/m 16,2 C 22,7 C 3,2 km/h (1 Bft) 100,00 %
06.08.2019 20:40 22,6 C 24,4 C 19,4 C 65 % 1008,7 hPa 0,0 l/m 2,3 km/h (1 Bft) W-SW 238 0 min 0,000 mm 0,0 UV-I 5 W/m 15,7 C 22,6 C 3,2 km/h (1 Bft) 100,00 %
06.08.2019 20:42 22,6 C 24,4 C 19,4 C 65 % 1008,8 hPa 0,0 l/m 3,1 km/h (1 Bft) W-SW 238 0 min 0,000 mm 0,0 UV-I 2 W/m 15,7 C 22,6 C 3,2 km/h (1 Bft) 100,00 %
06.08.2019 20:44 22,4 C 24,4 C 19,4 C 67 % 1008,8 hPa 0,0 l/m 2,9 km/h (1 Bft) W-SW 238 0 min 0,000 mm 0,0 UV-I 0 W/m 16,0 C 22,4 C 3,2 km/h (1 Bft) 100,00 %
06.08.2019 20:46 22,4 C 24,4 C 18,9 C 66 % 1008,8 hPa 0,0 l/m 2,5 km/h (1 Bft) W-SW 238 0 min 0,000 mm 0,0 UV-I 0 W/m 15,7 C 22,4 C 4,8 km/h (1 Bft) 100,00 %
06.08.2019 20:48 22,5 C 24,4 C 18,9 C 65 % 1008,8 hPa 0,0 l/m 1,4 km/h (1 Bft) W-SW 238 0 min 0,000 mm 0,0 UV-I 0 W/m 15,6 C 22,5 C 1,6 km/h (1 Bft) 100,00 %
06.08.2019 20:50 22,6 C 24,4 C 19,4 C 67 % 1008,8 hPa 0,0 l/m 1,6 km/h (1 Bft) W-SW 238 0 min 0,000 mm 0,0 UV-I 0 W/m 16,2 C 22,6 C 3,2 km/h (1 Bft) 100,00 %
06.08.2019 20:52 22,4 C 24,4 C 18,9 C 68 % 1008,8 hPa 0,0 l/m 2,3 km/h (1 Bft) W-SW 238 0 min 0,000 mm 0,0 UV-I 0 W/m 16,2 C 22,4 C 3,2 km/h (1 Bft) 95,74 %
06.08.2019 20:54 22,2 C 24,4 C 18,9 C 69 % 1008,8 hPa 0,0 l/m 2,7 km/h (1 Bft) W-SW 238 0 min 0,000 mm 0,0 UV-I 0 W/m 16,2 C 22,2 C 4,8 km/h (1 Bft) 95,74 %
06.08.2019 20:56 22,1 C 24,4 C 18,9 C 68 % 1008,8 hPa 0,0 l/m 3,5 km/h (1 Bft) W-SW 238 0 min 0,000 mm 0,0 UV-I 0 W/m 15,9 C 22,1 C 4,8 km/h (1 Bft) 97,87 %
06.08.2019 20:58 22,1 C 24,4 C 18,9 C 69 % 1008,8 hPa 0,0 l/m 4,3 km/h (1 Bft) S 176 0 min 0,000 mm 0,0 UV-I 0 W/m 16,1 C 22,1 C 6,4 km/h (2 Bft) 96,00 %
06.08.2019 21:00 21,8 C 24,4 C 18,9 C 68 % 1008,7 hPa 0,0 l/m 7,0 km/h (2 Bft) S-SO 150 0 min 0,000 mm 0,0 UV-I 0 W/m 15,6 C 21,6 C 8,0 km/h (2 Bft) 97,14 %
06.08.2019 21:02 21,7 C 24,4 C 18,9 C 69 % 1008,7 hPa 0,0 l/m 5,3 km/h (1 Bft) S-SO 150 0 min 0,026 mm 0,0 UV-I 0 W/m 15,8 C 21,7 C 6,4 km/h (2 Bft) 98,08 %
06.08.2019 21:04 21,6 C 24,4 C 18,9 C 69 % 1008,7 hPa 0,0 l/m 2,6 km/h (1 Bft) S-SO 150 0 min 0,000 mm 0,0 UV-I 0 W/m 15,7 C 21,6 C 4,8 km/h (1 Bft) 95,74 %
06.08.2019 21:06 21,7 C 24,4 C 18,9 C 68 % 1008,8 hPa 0,0 l/m 1,9 km/h (1 Bft) S-SO 152 0 min 0,000 mm 0,0 UV-I 0 W/m 15,5 C 21,7 C 3,2 km/h (1 Bft) 97,87 %
06.08.2019 21:09 21,8 C 24,4 C 18,9 C 72 % 1008,8 hPa 0,0 l/m 1,2 km/h (1 Bft) S-SO 152 0 min 0,000 mm 0,0 UV-I 0 W/m 16,5 C 21,8 C 1,6 km/h (1 Bft) 95,77 %
06.08.2019 21:10 21,7 C 24,4 C 18,9 C 72 % 1008,8 hPa 0,0 l/m 0,8 km/h (0 Bft) S-SO 152 0 min 0,000 mm 0,0 UV-I 0 W/m 16,4 C 21,7 C 1,6 km/h (1 Bft) 100,00 %
06.08.2019 21:12 21,6 C 24,4 C 18,9 C 72 % 1008,8 hPa 0,0 l/m 1,1 km/h (1 Bft) S-SO 152 0 min 0,000 mm 0,0 UV-I 0 W/m 16,3 C 21,6 C 1,6 km/h (1 Bft) 98,00 %
06.08.2019 21:14 21,7 C 24,4 C 18,9 C 73 % 1008,8 hPa 0,0 l/m 1,9 km/h (1 Bft) S-SO 152 0 min 0,000 mm 0,0 UV-I 0 W/m 16,6 C 21,7 C 3,2 km/h (1 Bft) 95,74 %
06.08.2019 21:16 21,4 C 24,4 C 18,9 C 74 % 1008,8 hPa 0,0 l/m 2,6 km/h (1 Bft) S-SO 152 0 min 0,000 mm 0,0 UV-I 0 W/m 16,6 C 21,4 C 3,2 km/h (1 Bft) 95,74 %
06.08.2019 21:18 21,2 C 24,4 C 18,9 C 74 % 1008,8 hPa 0,0 l/m 2,6 km/h (1 Bft) S-SO 152 0 min 0,000 mm 0,0 UV-I 0 W/m 16,4 C 21,2 C 3,2 km/h (1 Bft) 93,62 %
06.08.2019 21:20 21,3 C 24,4 C 18,9 C 73 % 1008,8 hPa 0,0 l/m 2,8 km/h (1 Bft) S-SO 152 0 min 0,000 mm 0,0 UV-I 0 W/m 16,3 C 21,3 C 3,2 km/h (1 Bft) 97,87 %
06.08.2019 21:22 21,4 C 24,4 C 18,9 C 72 % 1008,8 hPa 0,0 l/m 2,3 km/h (1 Bft) S-SO 153 0 min 0,000 mm 0,0 UV-I 0 W/m 16,1 C 21,4 C 3,2 km/h (1 Bft) 97,87 %
06.08.2019 21:24 21,5 C 24,4 C 18,9 C 72 % 1008,8 hPa 0,0 l/m 2,1 km/h (1 Bft) S-SO 153 0 min 0,000 mm 0,0 UV-I 0 W/m 16,2 C 21,5 C 3,2 km/h (1 Bft) 97,92 %
06.08.2019 21:26 21,6 C 24,4 C 18,9 C 73 % 1008,8 hPa 0,0 l/m 2,3 km/h (1 Bft) S-SO 153 0 min 0,000 mm 0,0 UV-I 0 W/m 16,5 C 21,6 C 3,2 km/h (1 Bft) 97,87 %
06.08.2019 21:28 21,6 C 24,4 C 18,9 C 73 % 1008,8 hPa 0,0 l/m 2,9 km/h (1 Bft) S-SO 153 0 min 0,000 mm 0,0 UV-I 0 W/m 16,5 C 21,6 C 4,8 km/h (1 Bft) 97,87 %
06.08.2019 21:30 21,5 C 24,4 C 18,9 C 73 % 1008,8 hPa 0,0 l/m 3,2 km/h (1 Bft) S-SO 153 0 min 0,000 mm 0,0 UV-I 0 W/m 16,4 C 21,5 C 4,8 km/h (1 Bft) 95,74 %
06.08.2019 21:32 21,2 C 24,4 C 18,9 C 73 % 1008,8 hPa 0,0 l/m 6,0 km/h (2 Bft) SO 138 0 min 0,000 mm 0,0 UV-I 0 W/m 16,2 C 21,2 C 11,3 km/h (2 Bft) 93,62 %
06.08.2019 21:34 21,3 C 24,4 C 18,9 C 70 % 1008,8 hPa 0,0 l/m 6,7 km/h (2 Bft) SO 140 0 min 0,000 mm 0,0 UV-I 0 W/m 15,6 C 21,2 C 12,9 km/h (3 Bft) 93,62 %
06.08.2019 21:36 21,3 C 24,4 C 18,9 C 71 % 1008,8 hPa 0,0 l/m 3,9 km/h (1 Bft) SO 134 0 min 0,000 mm 0,0 UV-I 0 W/m 15,8 C 21,3 C 6,4 km/h (2 Bft) 91,49 %
06.08.2019 21:38 21,2 C 24,4 C 18,9 C 70 % 1008,8 hPa 0,0 l/m 2,3 km/h (1 Bft) SO 134 0 min 0,000 mm 0,0 UV-I 0 W/m 15,5 C 21,2 C 3,2 km/h (1 Bft) 91,49 %
06.08.2019 21:40 21,3 C 24,4 C 18,9 C 70 % 1008,8 hPa 0,0 l/m 2,0 km/h (1 Bft) SO 134 0 min 0,000 mm 0,0 UV-I 0 W/m 15,6 C 21,3 C 3,2 km/h (1 Bft) 94,29 %
06.08.2019 21:42 21,4 C 24,4 C 18,9 C 68 % 1008,8 hPa 0,0 l/m 0,4 km/h (0 Bft) SO 134 0 min 0,000 mm 0,0 UV-I 0 W/m 15,2 C 21,4 C 1,6 km/h (1 Bft) 89,36 %
06.08.2019 21:44 21,4 C 24,4 C 18,9 C 68 % 1008,8 hPa 0,0 l/m 1,7 km/h (1 Bft) SO 134 0 min 0,000 mm 0,0 UV-I 0 W/m 15,2 C 21,4 C 3,2 km/h (1 Bft) 92,00 %
06.08.2019 21:46 21,6 C 24,4 C 18,9 C 68 % 1008,9 hPa 0,0 l/m 2,4 km/h (1 Bft) SO 142 0 min 0,000 mm 0,0 UV-I 0 W/m 15,4 C 21,6 C 3,2 km/h (1 Bft) 91,49 %
06.08.2019 21:48 21,6 C 24,4 C 18,9 C 70 % 1008,9 hPa 0,0 l/m 2,4 km/h (1 Bft) SO 142 0 min 0,000 mm 0,0 UV-I 0 W/m 15,9 C 21,6 C 3,2 km/h (1 Bft) 90,57 %
06.08.2019 21:50 21,4 C 24,4 C 18,9 C 72 % 1008,8 hPa 0,0 l/m 1,8 km/h (1 Bft) SO 142 0 min 0,000 mm 0,0 UV-I 0 W/m 16,1 C 21,4 C 3,2 km/h (1 Bft) 91,49 %
06.08.2019 21:52 21,3 C 24,4 C 18,9 C 73 % 1008,8 hPa 0,0 l/m 1,3 km/h (1 Bft) SO 142 0 min 0,000 mm 0,0 UV-I 0 W/m 16,3 C 21,3 C 1,6 km/h (1 Bft) 93,62 %
06.08.2019 21:54 21,1 C 24,4 C 18,9 C 74 % 1008,8 hPa 0,0 l/m 1,3 km/h (1 Bft) SO 142 0 min 0,000 mm 0,0 UV-I 0 W/m 16,3 C 21,1 C 3,2 km/h (1 Bft) 93,62 %
06.08.2019 21:56 20,9 C 24,4 C 18,3 C 75 % 1008,7 hPa 0,0 l/m 1,3 km/h (1 Bft) SO 142 0 min 0,000 mm 0,0 UV-I 0 W/m 16,3 C 20,9 C 1,6 km/h (1 Bft) 97,87 %
06.08.2019 21:58 20,7 C 24,4 C 18,3 C 74 % 1008,6 hPa 0,0 l/m 2,5 km/h (1 Bft) SO 142 0 min 0,000 mm 0,0 UV-I 0 W/m 15,9 C 20,7 C 3,2 km/h (1 Bft) 97,87 %
06.08.2019 22:00 20,4 C 24,4 C 18,3 C 74 % 1008,6 hPa 0,0 l/m 2,1 km/h (1 Bft) S-SO 154 0 min 0,025 mm 0,0 UV-I 0 W/m 15,6 C 20,4 C 4,8 km/h (1 Bft) 91,49 %
06.08.2019 22:02 20,5 C 24,4 C 18,3 C 72 % 1008,6 hPa 0,0 l/m 2,9 km/h (1 Bft) S-SO 154 0 min 0,000 mm 0,0 UV-I 0 W/m 15,3 C 20,5 C 3,2 km/h (1 Bft) 97,44 %
06.08.2019 22:04 20,7 C 24,4 C 18,3 C 72 % 1008,6 hPa 0,0 l/m 2,1 km/h (1 Bft) S-SO 154 0 min 0,000 mm 0,0 UV-I 0 W/m 15,5 C 20,7 C 3,2 km/h (1 Bft) 95,74 %
06.08.2019 22:06 20,8 C 24,4 C 17,8 C 73 % 1008,5 hPa 0,0 l/m 1,4 km/h (1 Bft) S-SO 154 0 min 0,000 mm 0,0 UV-I 0 W/m 15,8 C 20,8 C 3,2 km/h (1 Bft) 93,62 %
06.08.2019 22:08 20,9 C 24,4 C 17,8 C 73 % 1008,6 hPa 0,0 l/m 1,5 km/h (1 Bft) S-SO 154 0 min 0,000 mm 0,0 UV-I 0 W/m 15,9 C 20,9 C 3,2 km/h (1 Bft) 97,87 %
06.08.2019 22:10 21,0 C 24,4 C 17,8 C 72 % 1008,6 hPa 0,0 l/m 2,5 km/h (1 Bft) S-SO 154 0 min 0,000 mm 0,0 UV-I 0 W/m 15,8 C 21,0 C 3,2 km/h (1 Bft) 100,00 %
06.08.2019 22:12 20,9 C 24,4 C 17,8 C 74 % 1008,6 hPa 0,0 l/m 2,0 km/h (1 Bft) S-SO 154 0 min 0,000 mm 0,0 UV-I 0 W/m 16,1 C 20,9 C 3,2 km/h (1 Bft) 100,00 %
06.08.2019 22:14 20,8 C 24,4 C 17,8 C 74 % 1008,6 hPa 0,0 l/m 1,8 km/h (1 Bft) S-SO 154 0 min 0,000 mm 0,0 UV-I 0 W/m 16,0 C 20,8 C 3,2 km/h (1 Bft) 100,00 %
06.08.2019 22:16 20,7 C 24,4 C 18,3 C 74 % 1008,6 hPa 0,0 l/m 2,4 km/h (1 Bft) S-SO 154 0 min 0,000 mm 0,0 UV-I 0 W/m 15,9 C 20,7 C 3,2 km/h (1 Bft) 100,00 %
06.08.2019 22:18 20,6 C 24,4 C 18,3 C 74 % 1008,5 hPa 0,0 l/m 3,2 km/h (1 Bft) S 173 0 min 0,000 mm 0,0 UV-I 0 W/m 15,8 C 20,6 C 4,8 km/h (1 Bft) 100,00 %
06.08.2019 22:20 20,5 C 24,4 C 18,3 C 75 % 1008,5 hPa 0,0 l/m 4,0 km/h (1 Bft) S 176 0 min 0,000 mm 0,0 UV-I 0 W/m 15,9 C 20,5 C 4,8 km/h (1 Bft) 100,00 %
06.08.2019 22:22 20,4 C 24,4 C 18,3 C 75 % 1008,5 hPa 0,0 l/m 3,6 km/h (1 Bft) S 176 0 min 0,000 mm 0,0 UV-I 0 W/m 15,8 C 20,4 C 4,8 km/h (1 Bft) 100,00 %
06.08.2019 22:24 20,3 C 24,4 C 18,3 C 76 % 1008,5 hPa 0,0 l/m 2,2 km/h (1 Bft) S 176 0 min 0,000 mm 0,0 UV-I 0 W/m 15,9 C 20,3 C 3,2 km/h (1 Bft) 100,00 %
06.08.2019 22:26 20,3 C 24,4 C 18,3 C 76 % 1008,5 hPa 0,0 l/m 0,8 km/h (0 Bft) S 176 0 min 0,000 mm 0,0 UV-I 0 W/m 15,9 C 20,3 C 1,6 km/h (1 Bft) 97,87 %
06.08.2019 22:28 20,3 C 24,4 C 18,3 C 76 % 1008,5 hPa 0,0 l/m 1,0 km/h (0 Bft) S 176 0 min 0,000 mm 0,0 UV-I 0 W/m 15,9 C 20,3 C 3,2 km/h (1 Bft) 95,74 %
06.08.2019 22:30 20,4 C 24,4 C 18,3 C 75 % 1008,5 hPa 0,0 l/m 2,5 km/h (1 Bft) S 176 0 min 0,000 mm 0,0 UV-I 0 W/m 15,8 C 20,4 C 3,2 km/h (1 Bft) 95,74 %
06.08.2019 22:32 20,5 C 24,4 C 18,3 C 74 % 1008,5 hPa 0,0 l/m 2,7 km/h (1 Bft) S 176 0 min 0,000 mm 0,0 UV-I 0 W/m 15,7 C 20,5 C 3,2 km/h (1 Bft) 97,44 %
06.08.2019 22:34 20,6 C 24,4 C 18,3 C 73 % 1008,5 hPa 0,0 l/m 2,5 km/h (1 Bft) S 176 0 min 0,000 mm 0,0 UV-I 0 W/m 15,6 C 20,6 C 4,8 km/h (1 Bft) 100,00 %
06.08.2019 22:36 20,7 C 24,4 C 18,3 C 73 % 1008,5 hPa 0,0 l/m 3,3 km/h (1 Bft) S 176 0 min 0,000 mm 0,0 UV-I 0 W/m 15,7 C 20,7 C 4,8 km/h (1 Bft) 100,00 %
06.08.2019 22:38 20,7 C 24,4 C 18,3 C 74 % 1008,5 hPa 0,0 l/m 2,4 km/h (1 Bft) S 176 0 min 0,000 mm 0,0 UV-I 0 W/m 15,9 C 20,7 C 3,2 km/h (1 Bft) 95,74 %
06.08.2019 22:40 20,7 C 24,4 C 18,3 C 73 % 1008,5 hPa 0,0 l/m 2,4 km/h (1 Bft) S 176 0 min 0,000 mm 0,0 UV-I 0 W/m 15,7 C 20,7 C 3,2 km/h (1 Bft) 95,74 %
06.08.2019 22:42 20,7 C 24,4 C 18,3 C 72 % 1008,5 hPa 0,0 l/m 3,5 km/h (1 Bft) S 186 0 min 0,000 mm 0,0 UV-I 0 W/m 15,5 C 20,7 C 4,8 km/h (1 Bft) 97,87 %
06.08.2019 22:44 20,7 C 24,4 C 18,3 C 73 % 1008,5 hPa 0,0 l/m 4,5 km/h (1 Bft) S-SW 194 0 min 0,000 mm 0,0 UV-I 0 W/m 15,7 C 20,7 C 4,8 km/h (1 Bft) 95,74 %
06.08.2019 22:46 20,6 C 24,4 C 18,3 C 75 % 1008,5 hPa 0,0 l/m 3,7 km/h (1 Bft) S-SW 196 0 min 0,000 mm 0,0 UV-I 0 W/m 16,0 C 20,6 C 6,4 km/h (2 Bft) 100,00 %
06.08.2019 22:49 20,4 C 24,4 C 18,3 C 76 % 1008,5 hPa 0,0 l/m 2,0 km/h (1 Bft) S-SW 196 0 min 0,000 mm 0,0 UV-I 0 W/m 16,0 C 20,4 C 3,2 km/h (1 Bft) 100,00 %
06.08.2019 22:50 20,4 C 24,4 C 18,3 C 76 % 1008,5 hPa 0,0 l/m 1,1 km/h (1 Bft) S-SW 196 0 min 0,000 mm 0,0 UV-I 0 W/m 16,0 C 20,4 C 1,6 km/h (1 Bft) 100,00 %
06.08.2019 22:52 20,3 C 24,4 C 17,8 C 75 % 1008,5 hPa 0,0 l/m 1,3 km/h (1 Bft) S-SW 196 0 min 0,000 mm 0,0 UV-I 0 W/m 15,7 C 20,3 C 3,2 km/h (1 Bft) 100,00 %
06.08.2019 22:54 20,3 C 24,4 C 17,8 C 75 % 1008,5 hPa 0,0 l/m 2,9 km/h (1 Bft) S-SW 198 0 min 0,000 mm 0,0 UV-I 0 W/m 15,7 C 20,3 C 4,8 km/h (1 Bft) 100,00 %
06.08.2019 22:56 20,2 C 24,4 C 17,8 C 75 % 1008,5 hPa 0,0 l/m 3,9 km/h (1 Bft) S-SW 198 0 min 0,000 mm 0,0 UV-I 0 W/m 15,6 C 20,2 C 4,8 km/h (1 Bft) 97,87 %
06.08.2019 22:58 20,2 C 24,4 C 17,8 C 75 % 1008,5 hPa 0,0 l/m 3,9 km/h (1 Bft) S-SW 198 0 min 0,000 mm 0,0 UV-I 0 W/m 15,6 C 20,2 C 4,8 km/h (1 Bft) 94,74 %
06.08.2019 23:00 20,2 C 24,4 C 18,3 C 76 % 1008,5 hPa 0,0 l/m 3,3 km/h (1 Bft) S-SW 198 0 min 0,000 mm 0,0 UV-I 0 W/m 15,8 C 20,2 C 4,8 km/h (1 Bft) 96,00 %
06.08.2019 23:02 20,2 C 24,4 C 18,3 C 76 % 1008,5 hPa 0,0 l/m 3,0 km/h (1 Bft) S-SW 198 0 min 0,026 mm 0,0 UV-I 0 W/m 15,8 C 20,2 C 4,8 km/h (1 Bft) 97,87 %
06.08.2019 23:04 20,2 C 24,4 C 18,3 C 77 % 1008,5 hPa 0,0 l/m 3,2 km/h (1 Bft) S-SW 198 0 min 0,000 mm 0,0 UV-I 0 W/m 16,0 C 20,2 C 4,8 km/h (1 Bft) 95,74 %
06.08.2019 23:06 20,2 C 24,4 C 18,3 C 76 % 1008,5 hPa 0,0 l/m 2,4 km/h (1 Bft) S-SW 198 0 min 0,000 mm 0,0 UV-I 0 W/m 15,8 C 20,2 C 3,2 km/h (1 Bft) 97,87 %
06.08.2019 23:09 20,2 C 24,4 C 18,3 C 77 % 1008,5 hPa 0,0 l/m 3,2 km/h (1 Bft) S-SW 198 0 min 0,000 mm 0,0 UV-I 0 W/m 16,0 C 20,2 C 4,8 km/h (1 Bft) 97,30 %
06.08.2019 23:10 20,2 C 24,4 C 18,3 C 77 % 1008,5 hPa 0,0 l/m 3,8 km/h (1 Bft) S-SW 198 0 min 0,000 mm 0,0 UV-I 0 W/m 16,0 C 20,2 C 4,8 km/h (1 Bft) 100,00 %
06.08.2019 23:12 20,2 C 24,4 C 18,3 C 77 % 1008,5 hPa 0,0 l/m 4,0 km/h (1 Bft) S-SW 198 0 min 0,000 mm 0,0 UV-I 0 W/m 16,0 C 20,2 C 4,8 km/h (1 Bft) 97,87 %
06.08.2019 23:14 20,3 C 24,4 C 18,3 C 76 % 1008,6 hPa 0,0 l/m 3,8 km/h (1 Bft) S-SW 198 0 min 0,000 mm 0,0 UV-I 0 W/m 15,9 C 20,3 C 4,8 km/h (1 Bft) 95,74 %
06.08.2019 23:16 20,4 C 24,4 C 18,3 C 75 % 1008,5 hPa 0,0 l/m 3,7 km/h (1 Bft) S-SW 198 0 min 0,000 mm 0,0 UV-I 0 W/m 15,8 C 20,4 C 4,8 km/h (1 Bft) 96,00 %
06.08.2019 23:19 20,5 C 24,4 C 18,3 C 76 % 1008,6 hPa 0,0 l/m 3,6 km/h (1 Bft) S-SW 198 0 min 0,000 mm 0,0 UV-I 0 W/m 16,1 C 20,5 C 4,8 km/h (1 Bft) 98,39 %
06.08.2019 23:20 20,4 C 24,4 C 18,3 C 76 % 1008,6 hPa 0,0 l/m 3,2 km/h (1 Bft) S-SW 198 0 min 0,000 mm 0,0 UV-I 0 W/m 16,0 C 20,4 C 4,8 km/h (1 Bft) 95,83 %
06.08.2019 23:22 20,3 C 24,4 C 18,3 C 77 % 1008,6 hPa 0,0 l/m 2,5 km/h (1 Bft) S-SW 198 0 min 0,000 mm 0,0 UV-I 0 W/m 16,1 C 20,3 C 4,8 km/h (1 Bft) 97,87 %
06.08.2019 23:24 20,3 C 24,4 C 18,3 C 77 % 1008,6 hPa 0,0 l/m 2,3 km/h (1 Bft) S-SW 198 0 min 0,000 mm 0,0 UV-I 0 W/m 16,1 C 20,3 C 3,2 km/h (1 Bft) 100,00 %
06.08.2019 23:26 20,2 C 24,4 C 18,3 C 77 % 1008,5 hPa 0,0 l/m 3,6 km/h (1 Bft) S-SW 198 0 min 0,000 mm 0,0 UV-I 0 W/m 16,0 C 20,2 C 4,8 km/h (1 Bft) 100,00 %
06.08.2019 23:29 20,1 C 24,4 C 18,3 C 77 % 1008,5 hPa 0,0 l/m 4,7 km/h (1 Bft) S-SW 197 0 min 0,000 mm 0,0 UV-I 0 W/m 15,9 C 20,1 C 6,4 km/h (2 Bft) 97,26 %
06.08.2019 23:30 20,1 C 24,4 C 18,3 C 77 % 1008,5 hPa 0,0 l/m 4,9 km/h (1 Bft) S-SW 192 0 min 0,000 mm 0,0 UV-I 0 W/m 15,9 C 20,1 C 6,4 km/h (2 Bft) 95,83 %
06.08.2019 23:32 20,1 C 24,4 C 18,3 C 76 % 1008,5 hPa 0,0 l/m 4,9 km/h (1 Bft) S 188 0 min 0,000 mm 0,0 UV-I 0 W/m 15,7 C 20,1 C 6,4 km/h (2 Bft) 100,00 %
06.08.2019 23:34 20,0 C 24,4 C 18,3 C 77 % 1008,4 hPa 0,0 l/m 4,5 km/h (1 Bft) S-SW 194 0 min 0,000 mm 0,0 UV-I 0 W/m 15,8 C 20,0 C 6,4 km/h (2 Bft) 95,74 %
06.08.2019 23:36 19,9 C 24,4 C 18,3 C 77 % 1008,5 hPa 0,0 l/m 4,0 km/h (1 Bft) S-SW 194 0 min 0,000 mm 0,0 UV-I 0 W/m 15,7 C 19,9 C 4,8 km/h (1 Bft) 100,00 %
06.08.2019 23:38 20,1 C 24,4 C 18,3 C 76 % 1008,5 hPa 0,0 l/m 4,2 km/h (1 Bft) S-SW 194 0 min 0,000 mm 0,0 UV-I 0 W/m 15,7 C 20,1 C 6,4 km/h (2 Bft) 97,87 %
06.08.2019 23:40 20,3 C 24,4 C 18,3 C 75 % 1008,5 hPa 0,0 l/m 4,2 km/h (1 Bft) S-SW 194 0 min 0,000 mm 0,0 UV-I 0 W/m 15,7 C 20,3 C 6,4 km/h (2 Bft) 95,74 %
06.08.2019 23:42 20,5 C 24,4 C 18,3 C 74 % 1008,5 hPa 0,0 l/m 4,4 km/h (1 Bft) S-SW 194 0 min 0,000 mm 0,0 UV-I 0 W/m 15,7 C 20,5 C 6,4 km/h (2 Bft) 98,00 %
06.08.2019 23:44 20,7 C 24,4 C 18,9 C 73 % 1008,5 hPa 0,0 l/m 3,7 km/h (1 Bft) S-SW 192 0 min 0,000 mm 0,0 UV-I 0 W/m 15,7 C 20,7 C 4,8 km/h (1 Bft) 97,87 %
06.08.2019 23:46 20,6 C 24,4 C 18,9 C 74 % 1008,5 hPa 0,0 l/m 4,1 km/h (1 Bft) S-SO 167 0 min 0,000 mm 0,0 UV-I 0 W/m 15,8 C 20,6 C 6,4 km/h (2 Bft) 93,62 %
06.08.2019 23:48 20,4 C 24,4 C 18,9 C 75 % 1008,5 hPa 0,0 l/m 3,2 km/h (1 Bft) S-SO 167 0 min 0,000 mm 0,0 UV-I 0 W/m 15,8 C 20,4 C 4,8 km/h (1 Bft) 97,22 %
06.08.2019 23:50 20,3 C 24,4 C 18,3 C 75 % 1008,5 hPa 0,0 l/m 1,4 km/h (1 Bft) S-SO 167 0 min 0,000 mm 0,0 UV-I 0 W/m 15,7 C 20,3 C 4,8 km/h (1 Bft) 96,00 %
06.08.2019 23:52 20,3 C 24,4 C 18,3 C 74 % 1008,6 hPa 0,0 l/m 0,6 km/h (0 Bft) S-SO 167 0 min 0,000 mm 0,0 UV-I 0 W/m 15,5 C 20,3 C 1,6 km/h (1 Bft) 97,87 %
06.08.2019 23:54 20,3 C 24,4 C 18,3 C 75 % 1008,6 hPa 0,0 l/m 1,2 km/h (1 Bft) S-SO 167 0 min 0,000 mm 0,0 UV-I 0 W/m 15,7 C 20,3 C 4,8 km/h (1 Bft) 97,87 %
06.08.2019 23:56 20,1 C 24,4 C 18,3 C 78 % 1008,6 hPa 0,0 l/m 2,1 km/h (1 Bft) S-SO 167 0 min 0,000 mm 0,0 UV-I 0 W/m 16,1 C 20,1 C 4,8 km/h (1 Bft) 96,00 %
06.08.2019 23:59 19,7 C 24,4 C 18,3 C 78 % 1008,6 hPa 0,0 l/m 0,8 km/h (0 Bft) S-SO 167 0 min 0,000 mm 0,0 UV-I 0 W/m 15,8 C 19,7 C 1,6 km/h (1 Bft) 97,14 %
_ Min-Zeit 05:22 04:36 04:34 16:08 23:34 - 00:24 - - - - - - 16:16 03:40 00:24 21:42
Minimum _ 16,4 C 23,3 C 15,0 C 40 % 1008,4 hPa - 0,0 km/h (0 Bft) - - - - - - 13,7 C 15,7 C 0,0 km/h (0 Bft) 89,36 %
_ Max-Zeit 16:06 16:46 14:20 05:30 10:14 00:01 15:56 - - 10:56 15:00 13:36 13:40 11:56 17:12 15:56 00:38
Maximum _ 29,0 C 25,0 C 43,9 C 92 % 1013,6 hPa 0,0 l/m 17,8 km/h
W (3 Bft)
- - 2 min 0,585 mm 5,9 UV-I 960 W/m 18,1 C 28,8 C 27,4 km/h
W (4 Bft)
100,00 %
Durchschnitt _ 22,0 C 24,0 C 24,7 C 71 % 1011,0 hPa #0,0 l/m 4,1 km/h (1 Bft) W-SW - #6:04 h #3,658 mm 2,5 UV-I 323 W/m 15,9 C 21,9 C 7,0 km/h (2 Bft) 97,24 %